<?xml version="1.0" encoding="UTF-8" standalone="no" ?>
<gpx xmlns="http://www.topografix.com/GPX/1/1" xmlns:xsi="http://www.w3.org/2001/XMLSchema-instance" xsi:schemaLocation="http://www.topografix.com/GPX/1/1 http://www.topografix.com/GPX/1/1/gpx.xsd" version="1.1" creator="VisuGPX - https://www.visugpx.com">
  <metadata>
    <name>Grande balade</name>
    <desc><![CDATA[Avec un peu d\'allure....au début, puisqu\'après mon amie se retrouve avec un étrier en moins (réparé par une longe!!)]]></desc>
  </metadata>
  <trk>
    <name><![CDATA[Untitled]]></name>
    <trkseg>
      <trkpt lat="48.70686" lon="1.75532">
        <ele>173.19999694824</ele>
        <time>2012-02-28T12:52:53.000Z</time>
      </trkpt>
      <trkpt lat="48.70683" lon="1.75538">
        <ele>173.39999389648</ele>
        <time>2012-02-28T12:52:57.000Z</time>
      </trkpt>
      <trkpt lat="48.70681" lon="1.75542">
        <ele>173.60000610352</ele>
        <time>2012-02-28T12:53:03.000Z</time>
      </trkpt>
      <trkpt lat="48.70677" lon="1.75552">
        <ele>174</ele>
        <time>2012-02-28T12:53:11.000Z</time>
      </trkpt>
      <trkpt lat="48.70673" lon="1.75559">
        <ele>174.19999694824</ele>
        <time>2012-02-28T12:53:16.000Z</time>
      </trkpt>
      <trkpt lat="48.70671" lon="1.75562">
        <ele>174.39999389648</ele>
        <time>2012-02-28T12:53:18.000Z</time>
      </trkpt>
      <trkpt lat="48.70665" lon="1.75573">
        <ele>175</ele>
        <time>2012-02-28T12:53:25.000Z</time>
      </trkpt>
      <trkpt lat="48.70661" lon="1.75584">
        <ele>175.60000610352</ele>
        <time>2012-02-28T12:53:32.000Z</time>
      </trkpt>
      <trkpt lat="48.70661" lon="1.75585">
        <ele>175.60000610352</ele>
        <time>2012-02-28T12:53:33.000Z</time>
      </trkpt>
      <trkpt lat="48.70659" lon="1.75586">
        <ele>175.80000305176</ele>
        <time>2012-02-28T12:53:37.000Z</time>
      </trkpt>
      <trkpt lat="48.70643" lon="1.75623">
        <ele>177.60000610352</ele>
        <time>2012-02-28T12:54:10.000Z</time>
      </trkpt>
      <trkpt lat="48.70642" lon="1.75633">
        <ele>177.80000305176</ele>
        <time>2012-02-28T12:54:14.000Z</time>
      </trkpt>
      <trkpt lat="48.70641" lon="1.75639">
        <ele>177.80000305176</ele>
        <time>2012-02-28T12:54:17.000Z</time>
      </trkpt>
      <trkpt lat="48.70641" lon="1.75649">
        <ele>178</ele>
        <time>2012-02-28T12:54:23.000Z</time>
      </trkpt>
      <trkpt lat="48.70642" lon="1.75652">
        <ele>178</ele>
        <time>2012-02-28T12:54:25.000Z</time>
      </trkpt>
      <trkpt lat="48.70643" lon="1.75661">
        <ele>177.80000305176</ele>
        <time>2012-02-28T12:54:31.000Z</time>
      </trkpt>
      <trkpt lat="48.70644" lon="1.75662">
        <ele>177.60000610352</ele>
        <time>2012-02-28T12:54:32.000Z</time>
      </trkpt>
      <trkpt lat="48.70646" lon="1.75668">
        <ele>177.39999389648</ele>
        <time>2012-02-28T12:54:36.000Z</time>
      </trkpt>
      <trkpt lat="48.70648" lon="1.75676">
        <ele>177</ele>
        <time>2012-02-28T12:54:40.000Z</time>
      </trkpt>
      <trkpt lat="48.70645" lon="1.75689">
        <ele>177</ele>
        <time>2012-02-28T12:54:48.000Z</time>
      </trkpt>
      <trkpt lat="48.70643" lon="1.75696">
        <ele>177</ele>
        <time>2012-02-28T12:54:52.000Z</time>
      </trkpt>
      <trkpt lat="48.7064" lon="1.75707">
        <ele>177</ele>
        <time>2012-02-28T12:54:58.000Z</time>
      </trkpt>
      <trkpt lat="48.70639" lon="1.75708">
        <ele>177</ele>
        <time>2012-02-28T12:54:59.000Z</time>
      </trkpt>
      <trkpt lat="48.70635" lon="1.75716">
        <ele>177</ele>
        <time>2012-02-28T12:55:04.000Z</time>
      </trkpt>
      <trkpt lat="48.70633" lon="1.7572">
        <ele>177.19999694824</ele>
        <time>2012-02-28T12:55:07.000Z</time>
      </trkpt>
      <trkpt lat="48.70627" lon="1.75733">
        <ele>177</ele>
        <time>2012-02-28T12:55:15.000Z</time>
      </trkpt>
      <trkpt lat="48.70623" lon="1.75742">
        <ele>177</ele>
        <time>2012-02-28T12:55:21.000Z</time>
      </trkpt>
      <trkpt lat="48.70621" lon="1.75745">
        <ele>177</ele>
        <time>2012-02-28T12:55:23.000Z</time>
      </trkpt>
      <trkpt lat="48.70615" lon="1.75755">
        <ele>177</ele>
        <time>2012-02-28T12:55:30.000Z</time>
      </trkpt>
      <trkpt lat="48.70611" lon="1.75761">
        <ele>177</ele>
        <time>2012-02-28T12:55:34.000Z</time>
      </trkpt>
      <trkpt lat="48.7061" lon="1.75763">
        <ele>177</ele>
        <time>2012-02-28T12:55:36.000Z</time>
      </trkpt>
      <trkpt lat="48.70606" lon="1.7577">
        <ele>177</ele>
        <time>2012-02-28T12:55:42.000Z</time>
      </trkpt>
      <trkpt lat="48.70604" lon="1.75772">
        <ele>177</ele>
        <time>2012-02-28T12:55:44.000Z</time>
      </trkpt>
      <trkpt lat="48.70599" lon="1.7578">
        <ele>177</ele>
        <time>2012-02-28T12:55:50.000Z</time>
      </trkpt>
      <trkpt lat="48.70594" lon="1.75788">
        <ele>177</ele>
        <time>2012-02-28T12:55:57.000Z</time>
      </trkpt>
      <trkpt lat="48.70591" lon="1.75793">
        <ele>177</ele>
        <time>2012-02-28T12:56:01.000Z</time>
      </trkpt>
      <trkpt lat="48.70584" lon="1.75804">
        <ele>177</ele>
        <time>2012-02-28T12:56:09.000Z</time>
      </trkpt>
      <trkpt lat="48.7058" lon="1.75814">
        <ele>177</ele>
        <time>2012-02-28T12:56:16.000Z</time>
      </trkpt>
      <trkpt lat="48.70578" lon="1.75821">
        <ele>177</ele>
        <time>2012-02-28T12:56:21.000Z</time>
      </trkpt>
      <trkpt lat="48.70577" lon="1.75831">
        <ele>176.60000610352</ele>
        <time>2012-02-28T12:56:28.000Z</time>
      </trkpt>
      <trkpt lat="48.70577" lon="1.75843">
        <ele>176.60000610352</ele>
        <time>2012-02-28T12:56:35.000Z</time>
      </trkpt>
      <trkpt lat="48.70568" lon="1.75853">
        <ele>177.39999389648</ele>
        <time>2012-02-28T12:56:41.000Z</time>
      </trkpt>
      <trkpt lat="48.70565" lon="1.75856">
        <ele>177.60000610352</ele>
        <time>2012-02-28T12:56:44.000Z</time>
      </trkpt>
      <trkpt lat="48.70565" lon="1.75863">
        <ele>177.60000610352</ele>
        <time>2012-02-28T12:56:48.000Z</time>
      </trkpt>
      <trkpt lat="48.70563" lon="1.75875">
        <ele>177.80000305176</ele>
        <time>2012-02-28T12:56:55.000Z</time>
      </trkpt>
      <trkpt lat="48.70557" lon="1.75887">
        <ele>178.19999694824</ele>
        <time>2012-02-28T12:57:02.000Z</time>
      </trkpt>
      <trkpt lat="48.70551" lon="1.75896">
        <ele>178.60000610352</ele>
        <time>2012-02-28T12:57:07.000Z</time>
      </trkpt>
      <trkpt lat="48.70545" lon="1.75908">
        <ele>178.80000305176</ele>
        <time>2012-02-28T12:57:14.000Z</time>
      </trkpt>
      <trkpt lat="48.7054" lon="1.75911">
        <ele>179.19999694824</ele>
        <time>2012-02-28T12:57:18.000Z</time>
      </trkpt>
      <trkpt lat="48.70536" lon="1.75922">
        <ele>179.19999694824</ele>
        <time>2012-02-28T12:57:24.000Z</time>
      </trkpt>
      <trkpt lat="48.70532" lon="1.75928">
        <ele>179.19999694824</ele>
        <time>2012-02-28T12:57:28.000Z</time>
      </trkpt>
      <trkpt lat="48.70527" lon="1.75936">
        <ele>179.19999694824</ele>
        <time>2012-02-28T12:57:34.000Z</time>
      </trkpt>
      <trkpt lat="48.70526" lon="1.75937">
        <ele>179.19999694824</ele>
        <time>2012-02-28T12:57:35.000Z</time>
      </trkpt>
      <trkpt lat="48.70519" lon="1.75947">
        <ele>179.39999389648</ele>
        <time>2012-02-28T12:57:42.000Z</time>
      </trkpt>
      <trkpt lat="48.70514" lon="1.75951">
        <ele>179.39999389648</ele>
        <time>2012-02-28T12:57:47.000Z</time>
      </trkpt>
      <trkpt lat="48.70512" lon="1.75952">
        <ele>179.39999389648</ele>
        <time>2012-02-28T12:57:48.000Z</time>
      </trkpt>
      <trkpt lat="48.70509" lon="1.75957">
        <ele>179.39999389648</ele>
        <time>2012-02-28T12:57:52.000Z</time>
      </trkpt>
      <trkpt lat="48.705" lon="1.75968">
        <ele>179.60000610352</ele>
        <time>2012-02-28T12:58:00.000Z</time>
      </trkpt>
      <trkpt lat="48.70499" lon="1.75976">
        <ele>179.19999694824</ele>
        <time>2012-02-28T12:58:05.000Z</time>
      </trkpt>
      <trkpt lat="48.70494" lon="1.75983">
        <ele>179</ele>
        <time>2012-02-28T12:58:10.000Z</time>
      </trkpt>
      <trkpt lat="48.70493" lon="1.75987">
        <ele>178.80000305176</ele>
        <time>2012-02-28T12:58:13.000Z</time>
      </trkpt>
      <trkpt lat="48.7049" lon="1.75995">
        <ele>178.60000610352</ele>
        <time>2012-02-28T12:58:18.000Z</time>
      </trkpt>
      <trkpt lat="48.70489" lon="1.76">
        <ele>178.39999389648</ele>
        <time>2012-02-28T12:58:22.000Z</time>
      </trkpt>
      <trkpt lat="48.70485" lon="1.76012">
        <ele>177.80000305176</ele>
        <time>2012-02-28T12:58:29.000Z</time>
      </trkpt>
      <trkpt lat="48.70482" lon="1.76023">
        <ele>177.19999694824</ele>
        <time>2012-02-28T12:58:35.000Z</time>
      </trkpt>
      <trkpt lat="48.70481" lon="1.76032">
        <ele>176.80000305176</ele>
        <time>2012-02-28T12:58:39.000Z</time>
      </trkpt>
      <trkpt lat="48.7048" lon="1.76037">
        <ele>176.60000610352</ele>
        <time>2012-02-28T12:58:43.000Z</time>
      </trkpt>
      <trkpt lat="48.70476" lon="1.76047">
        <ele>176.19999694824</ele>
        <time>2012-02-28T12:58:48.000Z</time>
      </trkpt>
      <trkpt lat="48.70475" lon="1.76055">
        <ele>175.80000305176</ele>
        <time>2012-02-28T12:58:52.000Z</time>
      </trkpt>
      <trkpt lat="48.70475" lon="1.76058">
        <ele>175.60000610352</ele>
        <time>2012-02-28T12:58:54.000Z</time>
      </trkpt>
      <trkpt lat="48.70474" lon="1.7607">
        <ele>175</ele>
        <time>2012-02-28T12:59:00.000Z</time>
      </trkpt>
      <trkpt lat="48.7047" lon="1.76082">
        <ele>174.60000610352</ele>
        <time>2012-02-28T12:59:05.000Z</time>
      </trkpt>
      <trkpt lat="48.70471" lon="1.76084">
        <ele>174.39999389648</ele>
        <time>2012-02-28T12:59:07.000Z</time>
      </trkpt>
      <trkpt lat="48.70467" lon="1.76095">
        <ele>174.39999389648</ele>
        <time>2012-02-28T12:59:13.000Z</time>
      </trkpt>
      <trkpt lat="48.70465" lon="1.76101">
        <ele>174.39999389648</ele>
        <time>2012-02-28T12:59:17.000Z</time>
      </trkpt>
      <trkpt lat="48.70464" lon="1.76103">
        <ele>174.39999389648</ele>
        <time>2012-02-28T12:59:18.000Z</time>
      </trkpt>
      <trkpt lat="48.70462" lon="1.76104">
        <ele>174.60000610352</ele>
        <time>2012-02-28T12:59:20.000Z</time>
      </trkpt>
      <trkpt lat="48.7046" lon="1.76108">
        <ele>174.60000610352</ele>
        <time>2012-02-28T12:59:24.000Z</time>
      </trkpt>
      <trkpt lat="48.70459" lon="1.76114">
        <ele>174.60000610352</ele>
        <time>2012-02-28T12:59:31.000Z</time>
      </trkpt>
      <trkpt lat="48.70459" lon="1.76114">
        <ele>174.60000610352</ele>
        <time>2012-02-28T12:59:32.000Z</time>
      </trkpt>
      <trkpt lat="48.70461" lon="1.76119">
        <ele>174.39999389648</ele>
        <time>2012-02-28T13:00:03.000Z</time>
      </trkpt>
      <trkpt lat="48.7046" lon="1.76128">
        <ele>174.39999389648</ele>
        <time>2012-02-28T13:00:06.000Z</time>
      </trkpt>
      <trkpt lat="48.70461" lon="1.76137">
        <ele>174.19999694824</ele>
        <time>2012-02-28T13:00:10.000Z</time>
      </trkpt>
      <trkpt lat="48.7046" lon="1.76147">
        <ele>174.19999694824</ele>
        <time>2012-02-28T13:00:15.000Z</time>
      </trkpt>
      <trkpt lat="48.70459" lon="1.76159">
        <ele>174</ele>
        <time>2012-02-28T13:00:22.000Z</time>
      </trkpt>
      <trkpt lat="48.7046" lon="1.76168">
        <ele>173.80000305176</ele>
        <time>2012-02-28T13:00:27.000Z</time>
      </trkpt>
      <trkpt lat="48.7046" lon="1.76172">
        <ele>173.80000305176</ele>
        <time>2012-02-28T13:00:29.000Z</time>
      </trkpt>
      <trkpt lat="48.70462" lon="1.76181">
        <ele>173.60000610352</ele>
        <time>2012-02-28T13:00:33.000Z</time>
      </trkpt>
      <trkpt lat="48.7046" lon="1.76187">
        <ele>173.39999389648</ele>
        <time>2012-02-28T13:00:41.000Z</time>
      </trkpt>
      <trkpt lat="48.70457" lon="1.76193">
        <ele>173.39999389648</ele>
        <time>2012-02-28T13:00:50.000Z</time>
      </trkpt>
      <trkpt lat="48.70454" lon="1.76197">
        <ele>173.39999389648</ele>
        <time>2012-02-28T13:00:52.000Z</time>
      </trkpt>
      <trkpt lat="48.70452" lon="1.76201">
        <ele>173.39999389648</ele>
        <time>2012-02-28T13:00:57.000Z</time>
      </trkpt>
      <trkpt lat="48.70456" lon="1.76205">
        <ele>173.19999694824</ele>
        <time>2012-02-28T13:01:05.000Z</time>
      </trkpt>
      <trkpt lat="48.70458" lon="1.7621">
        <ele>173</ele>
        <time>2012-02-28T13:01:11.000Z</time>
      </trkpt>
      <trkpt lat="48.70462" lon="1.76221">
        <ele>172.60000610352</ele>
        <time>2012-02-28T13:01:17.000Z</time>
      </trkpt>
      <trkpt lat="48.70463" lon="1.76225">
        <ele>172.39999389648</ele>
        <time>2012-02-28T13:01:20.000Z</time>
      </trkpt>
      <trkpt lat="48.70461" lon="1.7623">
        <ele>172.39999389648</ele>
        <time>2012-02-28T13:01:23.000Z</time>
      </trkpt>
      <trkpt lat="48.70462" lon="1.76244">
        <ele>172</ele>
        <time>2012-02-28T13:01:30.000Z</time>
      </trkpt>
      <trkpt lat="48.70461" lon="1.76257">
        <ele>172</ele>
        <time>2012-02-28T13:01:37.000Z</time>
      </trkpt>
      <trkpt lat="48.70461" lon="1.76259">
        <ele>172</ele>
        <time>2012-02-28T13:01:38.000Z</time>
      </trkpt>
      <trkpt lat="48.70454" lon="1.7627">
        <ele>172.39999389648</ele>
        <time>2012-02-28T13:01:45.000Z</time>
      </trkpt>
      <trkpt lat="48.70453" lon="1.76274">
        <ele>172.39999389648</ele>
        <time>2012-02-28T13:01:47.000Z</time>
      </trkpt>
      <trkpt lat="48.70453" lon="1.76279">
        <ele>172.39999389648</ele>
        <time>2012-02-28T13:01:51.000Z</time>
      </trkpt>
      <trkpt lat="48.70454" lon="1.76282">
        <ele>172.39999389648</ele>
        <time>2012-02-28T13:01:53.000Z</time>
      </trkpt>
      <trkpt lat="48.70451" lon="1.76291">
        <ele>172.60000610352</ele>
        <time>2012-02-28T13:01:59.000Z</time>
      </trkpt>
      <trkpt lat="48.7045" lon="1.76302">
        <ele>172.60000610352</ele>
        <time>2012-02-28T13:02:04.000Z</time>
      </trkpt>
      <trkpt lat="48.7045" lon="1.76307">
        <ele>172.60000610352</ele>
        <time>2012-02-28T13:02:07.000Z</time>
      </trkpt>
      <trkpt lat="48.70449" lon="1.76315">
        <ele>172.80000305176</ele>
        <time>2012-02-28T13:02:12.000Z</time>
      </trkpt>
      <trkpt lat="48.70449" lon="1.76324">
        <ele>172.80000305176</ele>
        <time>2012-02-28T13:02:17.000Z</time>
      </trkpt>
      <trkpt lat="48.70451" lon="1.76332">
        <ele>172.80000305176</ele>
        <time>2012-02-28T13:02:22.000Z</time>
      </trkpt>
      <trkpt lat="48.70451" lon="1.76334">
        <ele>172.80000305176</ele>
        <time>2012-02-28T13:02:23.000Z</time>
      </trkpt>
      <trkpt lat="48.70453" lon="1.76348">
        <ele>173.39999389648</ele>
        <time>2012-02-28T13:02:31.000Z</time>
      </trkpt>
      <trkpt lat="48.70453" lon="1.76349">
        <ele>173.39999389648</ele>
        <time>2012-02-28T13:02:32.000Z</time>
      </trkpt>
      <trkpt lat="48.70452" lon="1.76359">
        <ele>174</ele>
        <time>2012-02-28T13:02:37.000Z</time>
      </trkpt>
      <trkpt lat="48.70453" lon="1.76366">
        <ele>174.19999694824</ele>
        <time>2012-02-28T13:02:41.000Z</time>
      </trkpt>
      <trkpt lat="48.70455" lon="1.76376">
        <ele>174.60000610352</ele>
        <time>2012-02-28T13:02:45.000Z</time>
      </trkpt>
      <trkpt lat="48.70459" lon="1.76387">
        <ele>175</ele>
        <time>2012-02-28T13:02:51.000Z</time>
      </trkpt>
      <trkpt lat="48.70459" lon="1.76388">
        <ele>175.19999694824</ele>
        <time>2012-02-28T13:02:52.000Z</time>
      </trkpt>
      <trkpt lat="48.7046" lon="1.76396">
        <ele>175.39999389648</ele>
        <time>2012-02-28T13:02:58.000Z</time>
      </trkpt>
      <trkpt lat="48.70461" lon="1.76399">
        <ele>175.60000610352</ele>
        <time>2012-02-28T13:03:03.000Z</time>
      </trkpt>
      <trkpt lat="48.70459" lon="1.76416">
        <ele>176.39999389648</ele>
        <time>2012-02-28T13:03:17.000Z</time>
      </trkpt>
      <trkpt lat="48.7046" lon="1.76424">
        <ele>176.60000610352</ele>
        <time>2012-02-28T13:03:22.000Z</time>
      </trkpt>
      <trkpt lat="48.70461" lon="1.7643">
        <ele>176.80000305176</ele>
        <time>2012-02-28T13:03:27.000Z</time>
      </trkpt>
      <trkpt lat="48.70461" lon="1.76438">
        <ele>176.80000305176</ele>
        <time>2012-02-28T13:03:33.000Z</time>
      </trkpt>
      <trkpt lat="48.70462" lon="1.7644">
        <ele>177</ele>
        <time>2012-02-28T13:03:34.000Z</time>
      </trkpt>
      <trkpt lat="48.70462" lon="1.76448">
        <ele>177</ele>
        <time>2012-02-28T13:03:39.000Z</time>
      </trkpt>
      <trkpt lat="48.70459" lon="1.76455">
        <ele>177.39999389648</ele>
        <time>2012-02-28T13:03:47.000Z</time>
      </trkpt>
      <trkpt lat="48.70458" lon="1.76455">
        <ele>177.39999389648</ele>
        <time>2012-02-28T13:03:49.000Z</time>
      </trkpt>
      <trkpt lat="48.70446" lon="1.76534">
        <ele>179.39999389648</ele>
        <time>2012-02-28T13:05:23.000Z</time>
      </trkpt>
      <trkpt lat="48.70446" lon="1.76545">
        <ele>179.39999389648</ele>
        <time>2012-02-28T13:05:28.000Z</time>
      </trkpt>
      <trkpt lat="48.70445" lon="1.76553">
        <ele>179.60000610352</ele>
        <time>2012-02-28T13:05:32.000Z</time>
      </trkpt>
      <trkpt lat="48.70444" lon="1.76555">
        <ele>179.60000610352</ele>
        <time>2012-02-28T13:05:34.000Z</time>
      </trkpt>
      <trkpt lat="48.70443" lon="1.76563">
        <ele>179.60000610352</ele>
        <time>2012-02-28T13:05:39.000Z</time>
      </trkpt>
      <trkpt lat="48.70442" lon="1.76564">
        <ele>179.60000610352</ele>
        <time>2012-02-28T13:05:40.000Z</time>
      </trkpt>
      <trkpt lat="48.7044" lon="1.7657">
        <ele>179.80000305176</ele>
        <time>2012-02-28T13:05:44.000Z</time>
      </trkpt>
      <trkpt lat="48.70439" lon="1.76571">
        <ele>179.80000305176</ele>
        <time>2012-02-28T13:05:47.000Z</time>
      </trkpt>
      <trkpt lat="48.70424" lon="1.76588">
        <ele>180.60000610352</ele>
        <time>2012-02-28T13:06:33.000Z</time>
      </trkpt>
      <trkpt lat="48.70419" lon="1.76592">
        <ele>180.80000305176</ele>
        <time>2012-02-28T13:06:37.000Z</time>
      </trkpt>
      <trkpt lat="48.70416" lon="1.76594">
        <ele>180.80000305176</ele>
        <time>2012-02-28T13:06:41.000Z</time>
      </trkpt>
      <trkpt lat="48.70414" lon="1.7659">
        <ele>180.80000305176</ele>
        <time>2012-02-28T13:06:46.000Z</time>
      </trkpt>
      <trkpt lat="48.70412" lon="1.76592">
        <ele>180.80000305176</ele>
        <time>2012-02-28T13:06:50.000Z</time>
      </trkpt>
      <trkpt lat="48.70411" lon="1.76591">
        <ele>180.80000305176</ele>
        <time>2012-02-28T13:06:55.000Z</time>
      </trkpt>
      <trkpt lat="48.70411" lon="1.7659">
        <ele>180.80000305176</ele>
        <time>2012-02-28T13:06:56.000Z</time>
      </trkpt>
      <trkpt lat="48.70399" lon="1.76598">
        <ele>180.39999389648</ele>
        <time>2012-02-28T13:07:12.000Z</time>
      </trkpt>
      <trkpt lat="48.70388" lon="1.76606">
        <ele>180</ele>
        <time>2012-02-28T13:07:20.000Z</time>
      </trkpt>
      <trkpt lat="48.70382" lon="1.76609">
        <ele>179.80000305176</ele>
        <time>2012-02-28T13:07:25.000Z</time>
      </trkpt>
      <trkpt lat="48.70375" lon="1.76613">
        <ele>179.60000610352</ele>
        <time>2012-02-28T13:07:31.000Z</time>
      </trkpt>
      <trkpt lat="48.7037" lon="1.76615">
        <ele>179.39999389648</ele>
        <time>2012-02-28T13:07:35.000Z</time>
      </trkpt>
      <trkpt lat="48.70363" lon="1.76622">
        <ele>179.19999694824</ele>
        <time>2012-02-28T13:07:40.000Z</time>
      </trkpt>
      <trkpt lat="48.70358" lon="1.76625">
        <ele>179</ele>
        <time>2012-02-28T13:07:44.000Z</time>
      </trkpt>
      <trkpt lat="48.70354" lon="1.76627">
        <ele>179</ele>
        <time>2012-02-28T13:07:47.000Z</time>
      </trkpt>
      <trkpt lat="48.70346" lon="1.76631">
        <ele>178.80000305176</ele>
        <time>2012-02-28T13:07:55.000Z</time>
      </trkpt>
      <trkpt lat="48.70341" lon="1.76635">
        <ele>178.60000610352</ele>
        <time>2012-02-28T13:08:01.000Z</time>
      </trkpt>
      <trkpt lat="48.70338" lon="1.7663">
        <ele>178.60000610352</ele>
        <time>2012-02-28T13:08:06.000Z</time>
      </trkpt>
      <trkpt lat="48.70338" lon="1.7663">
        <ele>178.60000610352</ele>
        <time>2012-02-28T13:08:07.000Z</time>
      </trkpt>
      <trkpt lat="48.7034" lon="1.76634">
        <ele>178.60000610352</ele>
        <time>2012-02-28T13:08:12.000Z</time>
      </trkpt>
      <trkpt lat="48.70334" lon="1.76631">
        <ele>178.39999389648</ele>
        <time>2012-02-28T13:10:22.000Z</time>
      </trkpt>
      <trkpt lat="48.70332" lon="1.76637">
        <ele>178.39999389648</ele>
        <time>2012-02-28T13:10:24.000Z</time>
      </trkpt>
      <trkpt lat="48.70325" lon="1.76647">
        <ele>178.39999389648</ele>
        <time>2012-02-28T13:10:31.000Z</time>
      </trkpt>
      <trkpt lat="48.70325" lon="1.76654">
        <ele>178.39999389648</ele>
        <time>2012-02-28T13:10:36.000Z</time>
      </trkpt>
      <trkpt lat="48.70327" lon="1.76661">
        <ele>178.19999694824</ele>
        <time>2012-02-28T13:10:40.000Z</time>
      </trkpt>
      <trkpt lat="48.70327" lon="1.76667">
        <ele>178.19999694824</ele>
        <time>2012-02-28T13:10:46.000Z</time>
      </trkpt>
      <trkpt lat="48.70327" lon="1.76675">
        <ele>178.19999694824</ele>
        <time>2012-02-28T13:10:52.000Z</time>
      </trkpt>
      <trkpt lat="48.70327" lon="1.76685">
        <ele>178.19999694824</ele>
        <time>2012-02-28T13:10:58.000Z</time>
      </trkpt>
      <trkpt lat="48.70328" lon="1.76698">
        <ele>178.19999694824</ele>
        <time>2012-02-28T13:11:05.000Z</time>
      </trkpt>
      <trkpt lat="48.70328" lon="1.76711">
        <ele>178.19999694824</ele>
        <time>2012-02-28T13:11:11.000Z</time>
      </trkpt>
      <trkpt lat="48.7033" lon="1.76721">
        <ele>178</ele>
        <time>2012-02-28T13:11:17.000Z</time>
      </trkpt>
      <trkpt lat="48.70328" lon="1.7673">
        <ele>178.19999694824</ele>
        <time>2012-02-28T13:11:22.000Z</time>
      </trkpt>
      <trkpt lat="48.70328" lon="1.76745">
        <ele>178.19999694824</ele>
        <time>2012-02-28T13:11:30.000Z</time>
      </trkpt>
      <trkpt lat="48.70327" lon="1.76753">
        <ele>178.19999694824</ele>
        <time>2012-02-28T13:11:35.000Z</time>
      </trkpt>
      <trkpt lat="48.70328" lon="1.76765">
        <ele>178.19999694824</ele>
        <time>2012-02-28T13:11:42.000Z</time>
      </trkpt>
      <trkpt lat="48.70328" lon="1.7678">
        <ele>178.39999389648</ele>
        <time>2012-02-28T13:11:50.000Z</time>
      </trkpt>
      <trkpt lat="48.70328" lon="1.76788">
        <ele>178.60000610352</ele>
        <time>2012-02-28T13:11:54.000Z</time>
      </trkpt>
      <trkpt lat="48.70328" lon="1.76801">
        <ele>178.60000610352</ele>
        <time>2012-02-28T13:12:01.000Z</time>
      </trkpt>
      <trkpt lat="48.70329" lon="1.76821">
        <ele>178.80000305176</ele>
        <time>2012-02-28T13:12:12.000Z</time>
      </trkpt>
      <trkpt lat="48.70329" lon="1.76823">
        <ele>178.80000305176</ele>
        <time>2012-02-28T13:12:13.000Z</time>
      </trkpt>
      <trkpt lat="48.7033" lon="1.76838">
        <ele>179</ele>
        <time>2012-02-28T13:12:20.000Z</time>
      </trkpt>
      <trkpt lat="48.70329" lon="1.76842">
        <ele>179.19999694824</ele>
        <time>2012-02-28T13:12:22.000Z</time>
      </trkpt>
      <trkpt lat="48.70331" lon="1.76852">
        <ele>179.19999694824</ele>
        <time>2012-02-28T13:12:29.000Z</time>
      </trkpt>
      <trkpt lat="48.70332" lon="1.7686">
        <ele>179.39999389648</ele>
        <time>2012-02-28T13:12:33.000Z</time>
      </trkpt>
      <trkpt lat="48.70332" lon="1.76875">
        <ele>179.60000610352</ele>
        <time>2012-02-28T13:12:40.000Z</time>
      </trkpt>
      <trkpt lat="48.70332" lon="1.76888">
        <ele>179.60000610352</ele>
        <time>2012-02-28T13:12:47.000Z</time>
      </trkpt>
      <trkpt lat="48.70334" lon="1.76902">
        <ele>179.80000305176</ele>
        <time>2012-02-28T13:12:54.000Z</time>
      </trkpt>
      <trkpt lat="48.70334" lon="1.76923">
        <ele>180.19999694824</ele>
        <time>2012-02-28T13:13:04.000Z</time>
      </trkpt>
      <trkpt lat="48.70336" lon="1.76932">
        <ele>180.39999389648</ele>
        <time>2012-02-28T13:13:08.000Z</time>
      </trkpt>
      <trkpt lat="48.70336" lon="1.76934">
        <ele>180.39999389648</ele>
        <time>2012-02-28T13:13:09.000Z</time>
      </trkpt>
      <trkpt lat="48.70336" lon="1.76951">
        <ele>180.80000305176</ele>
        <time>2012-02-28T13:13:17.000Z</time>
      </trkpt>
      <trkpt lat="48.7034" lon="1.76971">
        <ele>181.19999694824</ele>
        <time>2012-02-28T13:13:27.000Z</time>
      </trkpt>
      <trkpt lat="48.7034" lon="1.7698">
        <ele>181.39999389648</ele>
        <time>2012-02-28T13:13:33.000Z</time>
      </trkpt>
      <trkpt lat="48.7034" lon="1.76993">
        <ele>181.60000610352</ele>
        <time>2012-02-28T13:13:39.000Z</time>
      </trkpt>
      <trkpt lat="48.70341" lon="1.77001">
        <ele>181.60000610352</ele>
        <time>2012-02-28T13:13:44.000Z</time>
      </trkpt>
      <trkpt lat="48.70341" lon="1.77012">
        <ele>181.60000610352</ele>
        <time>2012-02-28T13:13:50.000Z</time>
      </trkpt>
      <trkpt lat="48.70343" lon="1.77025">
        <ele>181.60000610352</ele>
        <time>2012-02-28T13:13:56.000Z</time>
      </trkpt>
      <trkpt lat="48.70345" lon="1.77038">
        <ele>181.39999389648</ele>
        <time>2012-02-28T13:14:03.000Z</time>
      </trkpt>
      <trkpt lat="48.70345" lon="1.77048">
        <ele>181.39999389648</ele>
        <time>2012-02-28T13:14:09.000Z</time>
      </trkpt>
      <trkpt lat="48.70346" lon="1.7706">
        <ele>181.39999389648</ele>
        <time>2012-02-28T13:14:16.000Z</time>
      </trkpt>
      <trkpt lat="48.70347" lon="1.77065">
        <ele>181.39999389648</ele>
        <time>2012-02-28T13:14:19.000Z</time>
      </trkpt>
      <trkpt lat="48.70349" lon="1.77078">
        <ele>181.19999694824</ele>
        <time>2012-02-28T13:14:26.000Z</time>
      </trkpt>
      <trkpt lat="48.70349" lon="1.77086">
        <ele>181.19999694824</ele>
        <time>2012-02-28T13:14:30.000Z</time>
      </trkpt>
      <trkpt lat="48.70349" lon="1.77102">
        <ele>181.19999694824</ele>
        <time>2012-02-28T13:14:38.000Z</time>
      </trkpt>
      <trkpt lat="48.70351" lon="1.77115">
        <ele>181.19999694824</ele>
        <time>2012-02-28T13:14:46.000Z</time>
      </trkpt>
      <trkpt lat="48.70352" lon="1.77128">
        <ele>181.19999694824</ele>
        <time>2012-02-28T13:14:52.000Z</time>
      </trkpt>
      <trkpt lat="48.70354" lon="1.77143">
        <ele>181.19999694824</ele>
        <time>2012-02-28T13:15:00.000Z</time>
      </trkpt>
      <trkpt lat="48.70356" lon="1.77149">
        <ele>181.19999694824</ele>
        <time>2012-02-28T13:15:04.000Z</time>
      </trkpt>
      <trkpt lat="48.70358" lon="1.77164">
        <ele>181.19999694824</ele>
        <time>2012-02-28T13:15:12.000Z</time>
      </trkpt>
      <trkpt lat="48.70357" lon="1.77167">
        <ele>181.19999694824</ele>
        <time>2012-02-28T13:15:14.000Z</time>
      </trkpt>
      <trkpt lat="48.70359" lon="1.77182">
        <ele>181</ele>
        <time>2012-02-28T13:15:23.000Z</time>
      </trkpt>
      <trkpt lat="48.7036" lon="1.77196">
        <ele>180.80000305176</ele>
        <time>2012-02-28T13:15:31.000Z</time>
      </trkpt>
      <trkpt lat="48.70362" lon="1.77208">
        <ele>180.60000610352</ele>
        <time>2012-02-28T13:15:38.000Z</time>
      </trkpt>
      <trkpt lat="48.70363" lon="1.77221">
        <ele>180.60000610352</ele>
        <time>2012-02-28T13:15:45.000Z</time>
      </trkpt>
      <trkpt lat="48.70363" lon="1.77224">
        <ele>180.60000610352</ele>
        <time>2012-02-28T13:15:47.000Z</time>
      </trkpt>
      <trkpt lat="48.70365" lon="1.77235">
        <ele>180.39999389648</ele>
        <time>2012-02-28T13:15:54.000Z</time>
      </trkpt>
      <trkpt lat="48.70366" lon="1.77238">
        <ele>180.39999389648</ele>
        <time>2012-02-28T13:15:59.000Z</time>
      </trkpt>
      <trkpt lat="48.70368" lon="1.77245">
        <ele>180.39999389648</ele>
        <time>2012-02-28T13:16:15.000Z</time>
      </trkpt>
      <trkpt lat="48.70371" lon="1.7727">
        <ele>180.80000305176</ele>
        <time>2012-02-28T13:16:20.000Z</time>
      </trkpt>
      <trkpt lat="48.70375" lon="1.773">
        <ele>181.39999389648</ele>
        <time>2012-02-28T13:16:27.000Z</time>
      </trkpt>
      <trkpt lat="48.70378" lon="1.77312">
        <ele>181.60000610352</ele>
        <time>2012-02-28T13:16:32.000Z</time>
      </trkpt>
      <trkpt lat="48.70381" lon="1.77324">
        <ele>182</ele>
        <time>2012-02-28T13:16:39.000Z</time>
      </trkpt>
      <trkpt lat="48.70385" lon="1.77334">
        <ele>182.19999694824</ele>
        <time>2012-02-28T13:16:45.000Z</time>
      </trkpt>
      <trkpt lat="48.70389" lon="1.77347">
        <ele>182.80000305176</ele>
        <time>2012-02-28T13:16:52.000Z</time>
      </trkpt>
      <trkpt lat="48.70393" lon="1.77359">
        <ele>183.19999694824</ele>
        <time>2012-02-28T13:16:59.000Z</time>
      </trkpt>
      <trkpt lat="48.70398" lon="1.77371">
        <ele>183.39999389648</ele>
        <time>2012-02-28T13:17:06.000Z</time>
      </trkpt>
      <trkpt lat="48.70402" lon="1.77386">
        <ele>183.80000305176</ele>
        <time>2012-02-28T13:17:11.000Z</time>
      </trkpt>
      <trkpt lat="48.70411" lon="1.77413">
        <ele>184</ele>
        <time>2012-02-28T13:17:18.000Z</time>
      </trkpt>
      <trkpt lat="48.70419" lon="1.77441">
        <ele>184.60000610352</ele>
        <time>2012-02-28T13:17:25.000Z</time>
      </trkpt>
      <trkpt lat="48.70431" lon="1.77477">
        <ele>185</ele>
        <time>2012-02-28T13:17:34.000Z</time>
      </trkpt>
      <trkpt lat="48.70441" lon="1.77507">
        <ele>185.19999694824</ele>
        <time>2012-02-28T13:17:41.000Z</time>
      </trkpt>
      <trkpt lat="48.70455" lon="1.77546">
        <ele>185.60000610352</ele>
        <time>2012-02-28T13:17:50.000Z</time>
      </trkpt>
      <trkpt lat="48.70466" lon="1.7758">
        <ele>186.39999389648</ele>
        <time>2012-02-28T13:17:58.000Z</time>
      </trkpt>
      <trkpt lat="48.70473" lon="1.77604">
        <ele>186.19999694824</ele>
        <time>2012-02-28T13:18:04.000Z</time>
      </trkpt>
      <trkpt lat="48.70481" lon="1.77626">
        <ele>185.80000305176</ele>
        <time>2012-02-28T13:18:10.000Z</time>
      </trkpt>
      <trkpt lat="48.7049" lon="1.77653">
        <ele>185.39999389648</ele>
        <time>2012-02-28T13:18:17.000Z</time>
      </trkpt>
      <trkpt lat="48.70495" lon="1.77679">
        <ele>185.39999389648</ele>
        <time>2012-02-28T13:18:23.000Z</time>
      </trkpt>
      <trkpt lat="48.70506" lon="1.77708">
        <ele>185.80000305176</ele>
        <time>2012-02-28T13:18:30.000Z</time>
      </trkpt>
      <trkpt lat="48.70514" lon="1.77737">
        <ele>186.39999389648</ele>
        <time>2012-02-28T13:18:37.000Z</time>
      </trkpt>
      <trkpt lat="48.7052" lon="1.77753">
        <ele>186.60000610352</ele>
        <time>2012-02-28T13:18:42.000Z</time>
      </trkpt>
      <trkpt lat="48.70529" lon="1.77766">
        <ele>186.39999389648</ele>
        <time>2012-02-28T13:18:47.000Z</time>
      </trkpt>
      <trkpt lat="48.70543" lon="1.77767">
        <ele>186.19999694824</ele>
        <time>2012-02-28T13:18:52.000Z</time>
      </trkpt>
      <trkpt lat="48.70567" lon="1.77764">
        <ele>185.60000610352</ele>
        <time>2012-02-28T13:18:59.000Z</time>
      </trkpt>
      <trkpt lat="48.70593" lon="1.77761">
        <ele>184.80000305176</ele>
        <time>2012-02-28T13:19:07.000Z</time>
      </trkpt>
      <trkpt lat="48.70618" lon="1.77756">
        <ele>183.80000305176</ele>
        <time>2012-02-28T13:19:15.000Z</time>
      </trkpt>
      <trkpt lat="48.70642" lon="1.77753">
        <ele>183</ele>
        <time>2012-02-28T13:19:23.000Z</time>
      </trkpt>
      <trkpt lat="48.70667" lon="1.77751">
        <ele>182</ele>
        <time>2012-02-28T13:19:31.000Z</time>
      </trkpt>
      <trkpt lat="48.70678" lon="1.77752">
        <ele>181.39999389648</ele>
        <time>2012-02-28T13:19:35.000Z</time>
      </trkpt>
      <trkpt lat="48.70694" lon="1.77751">
        <ele>180.60000610352</ele>
        <time>2012-02-28T13:19:40.000Z</time>
      </trkpt>
      <trkpt lat="48.70719" lon="1.77747">
        <ele>179.39999389648</ele>
        <time>2012-02-28T13:19:47.000Z</time>
      </trkpt>
      <trkpt lat="48.70745" lon="1.77743">
        <ele>178.19999694824</ele>
        <time>2012-02-28T13:19:55.000Z</time>
      </trkpt>
      <trkpt lat="48.70763" lon="1.77739">
        <ele>177.39999389648</ele>
        <time>2012-02-28T13:20:00.000Z</time>
      </trkpt>
      <trkpt lat="48.70782" lon="1.77735">
        <ele>176.80000305176</ele>
        <time>2012-02-28T13:20:05.000Z</time>
      </trkpt>
      <trkpt lat="48.70813" lon="1.77732">
        <ele>175.60000610352</ele>
        <time>2012-02-28T13:20:13.000Z</time>
      </trkpt>
      <trkpt lat="48.70836" lon="1.77731">
        <ele>175</ele>
        <time>2012-02-28T13:20:19.000Z</time>
      </trkpt>
      <trkpt lat="48.7087" lon="1.77726">
        <ele>174.19999694824</ele>
        <time>2012-02-28T13:20:28.000Z</time>
      </trkpt>
      <trkpt lat="48.70895" lon="1.77725">
        <ele>173.60000610352</ele>
        <time>2012-02-28T13:20:34.000Z</time>
      </trkpt>
      <trkpt lat="48.70924" lon="1.7772">
        <ele>172.80000305176</ele>
        <time>2012-02-28T13:20:42.000Z</time>
      </trkpt>
      <trkpt lat="48.70943" lon="1.77717">
        <ele>172.39999389648</ele>
        <time>2012-02-28T13:20:47.000Z</time>
      </trkpt>
      <trkpt lat="48.70968" lon="1.77713">
        <ele>172</ele>
        <time>2012-02-28T13:20:54.000Z</time>
      </trkpt>
      <trkpt lat="48.70983" lon="1.7771">
        <ele>171.80000305176</ele>
        <time>2012-02-28T13:20:59.000Z</time>
      </trkpt>
      <trkpt lat="48.70984" lon="1.7771">
        <ele>171.60000610352</ele>
        <time>2012-02-28T13:21:02.000Z</time>
      </trkpt>
      <trkpt lat="48.70986" lon="1.77709">
        <ele>171.60000610352</ele>
        <time>2012-02-28T13:21:06.000Z</time>
      </trkpt>
      <trkpt lat="48.71001" lon="1.77708">
        <ele>171.39999389648</ele>
        <time>2012-02-28T13:21:09.000Z</time>
      </trkpt>
      <trkpt lat="48.71033" lon="1.77705">
        <ele>170.80000305176</ele>
        <time>2012-02-28T13:21:16.000Z</time>
      </trkpt>
      <trkpt lat="48.71059" lon="1.77701">
        <ele>170.19999694824</ele>
        <time>2012-02-28T13:21:22.000Z</time>
      </trkpt>
      <trkpt lat="48.71072" lon="1.77712">
        <ele>169.80000305176</ele>
        <time>2012-02-28T13:21:26.000Z</time>
      </trkpt>
      <trkpt lat="48.71087" lon="1.77744">
        <ele>169.19999694824</ele>
        <time>2012-02-28T13:21:33.000Z</time>
      </trkpt>
      <trkpt lat="48.71094" lon="1.77761">
        <ele>169.19999694824</ele>
        <time>2012-02-28T13:21:37.000Z</time>
      </trkpt>
      <trkpt lat="48.71102" lon="1.77796">
        <ele>169.60000610352</ele>
        <time>2012-02-28T13:21:42.000Z</time>
      </trkpt>
      <trkpt lat="48.71106" lon="1.77828">
        <ele>170</ele>
        <time>2012-02-28T13:21:47.000Z</time>
      </trkpt>
      <trkpt lat="48.71111" lon="1.77855">
        <ele>170</ele>
        <time>2012-02-28T13:21:51.000Z</time>
      </trkpt>
      <trkpt lat="48.71114" lon="1.77867">
        <ele>170</ele>
        <time>2012-02-28T13:21:53.000Z</time>
      </trkpt>
      <trkpt lat="48.71121" lon="1.77899">
        <ele>170.19999694824</ele>
        <time>2012-02-28T13:21:58.000Z</time>
      </trkpt>
      <trkpt lat="48.71128" lon="1.77925">
        <ele>170.60000610352</ele>
        <time>2012-02-28T13:22:02.000Z</time>
      </trkpt>
      <trkpt lat="48.71137" lon="1.77947">
        <ele>171</ele>
        <time>2012-02-28T13:22:06.000Z</time>
      </trkpt>
      <trkpt lat="48.71134" lon="1.77982">
        <ele>171</ele>
        <time>2012-02-28T13:22:12.000Z</time>
      </trkpt>
      <trkpt lat="48.71135" lon="1.78004">
        <ele>171.19999694824</ele>
        <time>2012-02-28T13:22:16.000Z</time>
      </trkpt>
      <trkpt lat="48.7114" lon="1.78022">
        <ele>171.80000305176</ele>
        <time>2012-02-28T13:22:19.000Z</time>
      </trkpt>
      <trkpt lat="48.71148" lon="1.78046">
        <ele>172.60000610352</ele>
        <time>2012-02-28T13:22:23.000Z</time>
      </trkpt>
      <trkpt lat="48.71161" lon="1.78071">
        <ele>173.60000610352</ele>
        <time>2012-02-28T13:22:28.000Z</time>
      </trkpt>
      <trkpt lat="48.7118" lon="1.78093">
        <ele>174</ele>
        <time>2012-02-28T13:22:33.000Z</time>
      </trkpt>
      <trkpt lat="48.71191" lon="1.78113">
        <ele>174.39999389648</ele>
        <time>2012-02-28T13:22:38.000Z</time>
      </trkpt>
      <trkpt lat="48.71205" lon="1.78132">
        <ele>174.60000610352</ele>
        <time>2012-02-28T13:22:43.000Z</time>
      </trkpt>
      <trkpt lat="48.71208" lon="1.78136">
        <ele>174.80000305176</ele>
        <time>2012-02-28T13:22:44.000Z</time>
      </trkpt>
      <trkpt lat="48.71224" lon="1.78152">
        <ele>175</ele>
        <time>2012-02-28T13:22:48.000Z</time>
      </trkpt>
      <trkpt lat="48.71254" lon="1.78179">
        <ele>175.39999389648</ele>
        <time>2012-02-28T13:22:53.000Z</time>
      </trkpt>
      <trkpt lat="48.7128" lon="1.78195">
        <ele>176.80000305176</ele>
        <time>2012-02-28T13:22:57.000Z</time>
      </trkpt>
      <trkpt lat="48.71293" lon="1.78206">
        <ele>177.60000610352</ele>
        <time>2012-02-28T13:23:00.000Z</time>
      </trkpt>
      <trkpt lat="48.71301" lon="1.7821">
        <ele>177.80000305176</ele>
        <time>2012-02-28T13:23:02.000Z</time>
      </trkpt>
      <trkpt lat="48.71317" lon="1.78222">
        <ele>178.80000305176</ele>
        <time>2012-02-28T13:23:06.000Z</time>
      </trkpt>
      <trkpt lat="48.7133" lon="1.7823">
        <ele>179.39999389648</ele>
        <time>2012-02-28T13:23:09.000Z</time>
      </trkpt>
      <trkpt lat="48.71337" lon="1.78235">
        <ele>179.60000610352</ele>
        <time>2012-02-28T13:23:11.000Z</time>
      </trkpt>
      <trkpt lat="48.71355" lon="1.78244">
        <ele>179</ele>
        <time>2012-02-28T13:23:16.000Z</time>
      </trkpt>
      <trkpt lat="48.71372" lon="1.7825">
        <ele>178.60000610352</ele>
        <time>2012-02-28T13:23:20.000Z</time>
      </trkpt>
      <trkpt lat="48.71393" lon="1.78252">
        <ele>178</ele>
        <time>2012-02-28T13:23:27.000Z</time>
      </trkpt>
      <trkpt lat="48.71395" lon="1.78251">
        <ele>177.80000305176</ele>
        <time>2012-02-28T13:23:28.000Z</time>
      </trkpt>
      <trkpt lat="48.71406" lon="1.78253">
        <ele>177.39999389648</ele>
        <time>2012-02-28T13:23:34.000Z</time>
      </trkpt>
      <trkpt lat="48.71416" lon="1.78256">
        <ele>177.19999694824</ele>
        <time>2012-02-28T13:23:41.000Z</time>
      </trkpt>
      <trkpt lat="48.71424" lon="1.78259">
        <ele>177.19999694824</ele>
        <time>2012-02-28T13:23:46.000Z</time>
      </trkpt>
      <trkpt lat="48.71433" lon="1.78266">
        <ele>177.39999389648</ele>
        <time>2012-02-28T13:23:54.000Z</time>
      </trkpt>
      <trkpt lat="48.71445" lon="1.78273">
        <ele>177.60000610352</ele>
        <time>2012-02-28T13:24:02.000Z</time>
      </trkpt>
      <trkpt lat="48.71453" lon="1.78277">
        <ele>177.60000610352</ele>
        <time>2012-02-28T13:24:08.000Z</time>
      </trkpt>
      <trkpt lat="48.71464" lon="1.78279">
        <ele>177.60000610352</ele>
        <time>2012-02-28T13:24:16.000Z</time>
      </trkpt>
      <trkpt lat="48.71467" lon="1.7828">
        <ele>177.80000305176</ele>
        <time>2012-02-28T13:24:18.000Z</time>
      </trkpt>
      <trkpt lat="48.71473" lon="1.78283">
        <ele>177.80000305176</ele>
        <time>2012-02-28T13:24:23.000Z</time>
      </trkpt>
      <trkpt lat="48.71483" lon="1.78287">
        <ele>178</ele>
        <time>2012-02-28T13:24:30.000Z</time>
      </trkpt>
      <trkpt lat="48.71492" lon="1.78289">
        <ele>178</ele>
        <time>2012-02-28T13:24:36.000Z</time>
      </trkpt>
      <trkpt lat="48.715" lon="1.7829">
        <ele>178</ele>
        <time>2012-02-28T13:24:42.000Z</time>
      </trkpt>
      <trkpt lat="48.71502" lon="1.7829">
        <ele>178</ele>
        <time>2012-02-28T13:24:43.000Z</time>
      </trkpt>
      <trkpt lat="48.71515" lon="1.78293">
        <ele>178</ele>
        <time>2012-02-28T13:24:52.000Z</time>
      </trkpt>
      <trkpt lat="48.71526" lon="1.783">
        <ele>178.39999389648</ele>
        <time>2012-02-28T13:25:00.000Z</time>
      </trkpt>
      <trkpt lat="48.71538" lon="1.78306">
        <ele>178.60000610352</ele>
        <time>2012-02-28T13:25:09.000Z</time>
      </trkpt>
      <trkpt lat="48.71553" lon="1.78313">
        <ele>178.60000610352</ele>
        <time>2012-02-28T13:25:19.000Z</time>
      </trkpt>
      <trkpt lat="48.71561" lon="1.78317">
        <ele>178.80000305176</ele>
        <time>2012-02-28T13:25:25.000Z</time>
      </trkpt>
      <trkpt lat="48.71568" lon="1.78321">
        <ele>178.80000305176</ele>
        <time>2012-02-28T13:25:30.000Z</time>
      </trkpt>
      <trkpt lat="48.71577" lon="1.78329">
        <ele>179</ele>
        <time>2012-02-28T13:25:37.000Z</time>
      </trkpt>
      <trkpt lat="48.71586" lon="1.78331">
        <ele>178.80000305176</ele>
        <time>2012-02-28T13:25:43.000Z</time>
      </trkpt>
      <trkpt lat="48.716" lon="1.78338">
        <ele>178.80000305176</ele>
        <time>2012-02-28T13:25:50.000Z</time>
      </trkpt>
      <trkpt lat="48.71606" lon="1.7834">
        <ele>178.60000610352</ele>
        <time>2012-02-28T13:25:52.000Z</time>
      </trkpt>
      <trkpt lat="48.71632" lon="1.78352">
        <ele>178.39999389648</ele>
        <time>2012-02-28T13:26:00.000Z</time>
      </trkpt>
      <trkpt lat="48.71641" lon="1.78371">
        <ele>178.39999389648</ele>
        <time>2012-02-28T13:26:05.000Z</time>
      </trkpt>
      <trkpt lat="48.71645" lon="1.78386">
        <ele>178.60000610352</ele>
        <time>2012-02-28T13:26:11.000Z</time>
      </trkpt>
      <trkpt lat="48.71649" lon="1.78404">
        <ele>178.80000305176</ele>
        <time>2012-02-28T13:26:19.000Z</time>
      </trkpt>
      <trkpt lat="48.71649" lon="1.78419">
        <ele>179.19999694824</ele>
        <time>2012-02-28T13:26:26.000Z</time>
      </trkpt>
      <trkpt lat="48.71651" lon="1.78432">
        <ele>179.80000305176</ele>
        <time>2012-02-28T13:26:32.000Z</time>
      </trkpt>
      <trkpt lat="48.71654" lon="1.78452">
        <ele>180.60000610352</ele>
        <time>2012-02-28T13:26:41.000Z</time>
      </trkpt>
      <trkpt lat="48.71655" lon="1.78458">
        <ele>181</ele>
        <time>2012-02-28T13:26:44.000Z</time>
      </trkpt>
      <trkpt lat="48.71658" lon="1.7847">
        <ele>181.60000610352</ele>
        <time>2012-02-28T13:26:50.000Z</time>
      </trkpt>
      <trkpt lat="48.71659" lon="1.78472">
        <ele>181.60000610352</ele>
        <time>2012-02-28T13:26:51.000Z</time>
      </trkpt>
      <trkpt lat="48.71663" lon="1.78484">
        <ele>182.19999694824</ele>
        <time>2012-02-28T13:26:58.000Z</time>
      </trkpt>
      <trkpt lat="48.71665" lon="1.78489">
        <ele>182.39999389648</ele>
        <time>2012-02-28T13:27:01.000Z</time>
      </trkpt>
      <trkpt lat="48.71669" lon="1.78498">
        <ele>182.80000305176</ele>
        <time>2012-02-28T13:27:06.000Z</time>
      </trkpt>
      <trkpt lat="48.71676" lon="1.78505">
        <ele>182.60000610352</ele>
        <time>2012-02-28T13:27:12.000Z</time>
      </trkpt>
      <trkpt lat="48.71683" lon="1.78511">
        <ele>182.19999694824</ele>
        <time>2012-02-28T13:27:18.000Z</time>
      </trkpt>
      <trkpt lat="48.71695" lon="1.78521">
        <ele>181.39999389648</ele>
        <time>2012-02-28T13:27:28.000Z</time>
      </trkpt>
      <trkpt lat="48.71706" lon="1.7853">
        <ele>180.80000305176</ele>
        <time>2012-02-28T13:27:36.000Z</time>
      </trkpt>
      <trkpt lat="48.71712" lon="1.78536">
        <ele>180.39999389648</ele>
        <time>2012-02-28T13:27:41.000Z</time>
      </trkpt>
      <trkpt lat="48.7172" lon="1.78545">
        <ele>180</ele>
        <time>2012-02-28T13:27:48.000Z</time>
      </trkpt>
      <trkpt lat="48.71727" lon="1.78555">
        <ele>179.60000610352</ele>
        <time>2012-02-28T13:27:55.000Z</time>
      </trkpt>
      <trkpt lat="48.71733" lon="1.78566">
        <ele>179.19999694824</ele>
        <time>2012-02-28T13:28:02.000Z</time>
      </trkpt>
      <trkpt lat="48.71739" lon="1.78578">
        <ele>178.80000305176</ele>
        <time>2012-02-28T13:28:10.000Z</time>
      </trkpt>
      <trkpt lat="48.71739" lon="1.78579">
        <ele>178.80000305176</ele>
        <time>2012-02-28T13:28:11.000Z</time>
      </trkpt>
      <trkpt lat="48.71742" lon="1.78584">
        <ele>178.60000610352</ele>
        <time>2012-02-28T13:28:15.000Z</time>
      </trkpt>
      <trkpt lat="48.71741" lon="1.78602">
        <ele>179.39999389648</ele>
        <time>2012-02-28T13:28:24.000Z</time>
      </trkpt>
      <trkpt lat="48.71738" lon="1.78613">
        <ele>180</ele>
        <time>2012-02-28T13:28:30.000Z</time>
      </trkpt>
      <trkpt lat="48.71734" lon="1.78626">
        <ele>180.60000610352</ele>
        <time>2012-02-28T13:28:36.000Z</time>
      </trkpt>
      <trkpt lat="48.71731" lon="1.7864">
        <ele>181.39999389648</ele>
        <time>2012-02-28T13:28:43.000Z</time>
      </trkpt>
      <trkpt lat="48.71725" lon="1.78658">
        <ele>182</ele>
        <time>2012-02-28T13:28:52.000Z</time>
      </trkpt>
      <trkpt lat="48.71721" lon="1.7867">
        <ele>182.19999694824</ele>
        <time>2012-02-28T13:28:58.000Z</time>
      </trkpt>
      <trkpt lat="48.7172" lon="1.78671">
        <ele>182.19999694824</ele>
        <time>2012-02-28T13:29:01.000Z</time>
      </trkpt>
      <trkpt lat="48.71719" lon="1.78679">
        <ele>182</ele>
        <time>2012-02-28T13:29:09.000Z</time>
      </trkpt>
      <trkpt lat="48.71714" lon="1.78697">
        <ele>181.80000305176</ele>
        <time>2012-02-28T13:29:17.000Z</time>
      </trkpt>
      <trkpt lat="48.7171" lon="1.78713">
        <ele>181.39999389648</ele>
        <time>2012-02-28T13:29:25.000Z</time>
      </trkpt>
      <trkpt lat="48.71706" lon="1.78726">
        <ele>181.19999694824</ele>
        <time>2012-02-28T13:29:31.000Z</time>
      </trkpt>
      <trkpt lat="48.717" lon="1.78744">
        <ele>180.80000305176</ele>
        <time>2012-02-28T13:29:40.000Z</time>
      </trkpt>
      <trkpt lat="48.71695" lon="1.78759">
        <ele>180.60000610352</ele>
        <time>2012-02-28T13:29:47.000Z</time>
      </trkpt>
      <trkpt lat="48.71689" lon="1.78779">
        <ele>180.39999389648</ele>
        <time>2012-02-28T13:29:56.000Z</time>
      </trkpt>
      <trkpt lat="48.71685" lon="1.78789">
        <ele>180.39999389648</ele>
        <time>2012-02-28T13:30:01.000Z</time>
      </trkpt>
      <trkpt lat="48.71682" lon="1.78802">
        <ele>180.19999694824</ele>
        <time>2012-02-28T13:30:07.000Z</time>
      </trkpt>
      <trkpt lat="48.71678" lon="1.78815">
        <ele>180</ele>
        <time>2012-02-28T13:30:13.000Z</time>
      </trkpt>
      <trkpt lat="48.71672" lon="1.78833">
        <ele>180</ele>
        <time>2012-02-28T13:30:22.000Z</time>
      </trkpt>
      <trkpt lat="48.71667" lon="1.78849">
        <ele>179.80000305176</ele>
        <time>2012-02-28T13:30:29.000Z</time>
      </trkpt>
      <trkpt lat="48.71663" lon="1.78862">
        <ele>179.80000305176</ele>
        <time>2012-02-28T13:30:35.000Z</time>
      </trkpt>
      <trkpt lat="48.7166" lon="1.78873">
        <ele>179.80000305176</ele>
        <time>2012-02-28T13:30:41.000Z</time>
      </trkpt>
      <trkpt lat="48.71655" lon="1.78887">
        <ele>179.60000610352</ele>
        <time>2012-02-28T13:30:48.000Z</time>
      </trkpt>
      <trkpt lat="48.71652" lon="1.78897">
        <ele>179.60000610352</ele>
        <time>2012-02-28T13:30:53.000Z</time>
      </trkpt>
      <trkpt lat="48.71648" lon="1.78911">
        <ele>179.60000610352</ele>
        <time>2012-02-28T13:31:01.000Z</time>
      </trkpt>
      <trkpt lat="48.71644" lon="1.78921">
        <ele>179.60000610352</ele>
        <time>2012-02-28T13:31:07.000Z</time>
      </trkpt>
      <trkpt lat="48.71639" lon="1.7894">
        <ele>179.60000610352</ele>
        <time>2012-02-28T13:31:18.000Z</time>
      </trkpt>
      <trkpt lat="48.71635" lon="1.78955">
        <ele>179.80000305176</ele>
        <time>2012-02-28T13:31:25.000Z</time>
      </trkpt>
      <trkpt lat="48.71634" lon="1.78964">
        <ele>179.80000305176</ele>
        <time>2012-02-28T13:31:30.000Z</time>
      </trkpt>
      <trkpt lat="48.7163" lon="1.78974">
        <ele>179.80000305176</ele>
        <time>2012-02-28T13:31:35.000Z</time>
      </trkpt>
      <trkpt lat="48.71623" lon="1.78993">
        <ele>180</ele>
        <time>2012-02-28T13:31:45.000Z</time>
      </trkpt>
      <trkpt lat="48.71616" lon="1.79008">
        <ele>180</ele>
        <time>2012-02-28T13:31:55.000Z</time>
      </trkpt>
      <trkpt lat="48.71611" lon="1.79023">
        <ele>180</ele>
        <time>2012-02-28T13:32:03.000Z</time>
      </trkpt>
      <trkpt lat="48.71609" lon="1.79031">
        <ele>179.80000305176</ele>
        <time>2012-02-28T13:32:07.000Z</time>
      </trkpt>
      <trkpt lat="48.71608" lon="1.79038">
        <ele>179.80000305176</ele>
        <time>2012-02-28T13:32:11.000Z</time>
      </trkpt>
      <trkpt lat="48.71605" lon="1.79053">
        <ele>179.60000610352</ele>
        <time>2012-02-28T13:32:20.000Z</time>
      </trkpt>
      <trkpt lat="48.71599" lon="1.79071">
        <ele>179.60000610352</ele>
        <time>2012-02-28T13:32:30.000Z</time>
      </trkpt>
      <trkpt lat="48.71594" lon="1.79088">
        <ele>179.60000610352</ele>
        <time>2012-02-28T13:32:39.000Z</time>
      </trkpt>
      <trkpt lat="48.71589" lon="1.79107">
        <ele>180</ele>
        <time>2012-02-28T13:32:49.000Z</time>
      </trkpt>
      <trkpt lat="48.71583" lon="1.79123">
        <ele>180.60000610352</ele>
        <time>2012-02-28T13:32:59.000Z</time>
      </trkpt>
      <trkpt lat="48.71578" lon="1.79134">
        <ele>180.80000305176</ele>
        <time>2012-02-28T13:33:06.000Z</time>
      </trkpt>
      <trkpt lat="48.71575" lon="1.79148">
        <ele>181.19999694824</ele>
        <time>2012-02-28T13:33:13.000Z</time>
      </trkpt>
      <trkpt lat="48.71569" lon="1.79167">
        <ele>181.60000610352</ele>
        <time>2012-02-28T13:33:24.000Z</time>
      </trkpt>
      <trkpt lat="48.71565" lon="1.79177">
        <ele>181.80000305176</ele>
        <time>2012-02-28T13:33:30.000Z</time>
      </trkpt>
      <trkpt lat="48.71562" lon="1.79188">
        <ele>181.80000305176</ele>
        <time>2012-02-28T13:33:36.000Z</time>
      </trkpt>
      <trkpt lat="48.7156" lon="1.79199">
        <ele>181.80000305176</ele>
        <time>2012-02-28T13:33:42.000Z</time>
      </trkpt>
      <trkpt lat="48.71555" lon="1.79213">
        <ele>181.80000305176</ele>
        <time>2012-02-28T13:33:50.000Z</time>
      </trkpt>
      <trkpt lat="48.71552" lon="1.79223">
        <ele>181.80000305176</ele>
        <time>2012-02-28T13:33:56.000Z</time>
      </trkpt>
      <trkpt lat="48.7155" lon="1.79227">
        <ele>181.80000305176</ele>
        <time>2012-02-28T13:33:58.000Z</time>
      </trkpt>
      <trkpt lat="48.71547" lon="1.79239">
        <ele>181.80000305176</ele>
        <time>2012-02-28T13:34:04.000Z</time>
      </trkpt>
      <trkpt lat="48.71541" lon="1.79259">
        <ele>181.80000305176</ele>
        <time>2012-02-28T13:34:15.000Z</time>
      </trkpt>
      <trkpt lat="48.71533" lon="1.7928">
        <ele>181.39999389648</ele>
        <time>2012-02-28T13:34:26.000Z</time>
      </trkpt>
      <trkpt lat="48.71528" lon="1.79294">
        <ele>181</ele>
        <time>2012-02-28T13:34:33.000Z</time>
      </trkpt>
      <trkpt lat="48.71526" lon="1.79301">
        <ele>180.80000305176</ele>
        <time>2012-02-28T13:34:38.000Z</time>
      </trkpt>
      <trkpt lat="48.71531" lon="1.79316">
        <ele>180.19999694824</ele>
        <time>2012-02-28T13:34:47.000Z</time>
      </trkpt>
      <trkpt lat="48.71535" lon="1.79324">
        <ele>180</ele>
        <time>2012-02-28T13:34:52.000Z</time>
      </trkpt>
      <trkpt lat="48.71543" lon="1.7933">
        <ele>179.60000610352</ele>
        <time>2012-02-28T13:35:00.000Z</time>
      </trkpt>
      <trkpt lat="48.71544" lon="1.79331">
        <ele>179.60000610352</ele>
        <time>2012-02-28T13:35:01.000Z</time>
      </trkpt>
      <trkpt lat="48.71549" lon="1.79331">
        <ele>179.39999389648</ele>
        <time>2012-02-28T13:35:05.000Z</time>
      </trkpt>
      <trkpt lat="48.71551" lon="1.79331">
        <ele>179.39999389648</ele>
        <time>2012-02-28T13:35:07.000Z</time>
      </trkpt>
      <trkpt lat="48.71564" lon="1.79338">
        <ele>179</ele>
        <time>2012-02-28T13:35:16.000Z</time>
      </trkpt>
      <trkpt lat="48.71572" lon="1.79343">
        <ele>178.80000305176</ele>
        <time>2012-02-28T13:35:22.000Z</time>
      </trkpt>
      <trkpt lat="48.71579" lon="1.79349">
        <ele>178.60000610352</ele>
        <time>2012-02-28T13:35:28.000Z</time>
      </trkpt>
      <trkpt lat="48.71592" lon="1.79357">
        <ele>178</ele>
        <time>2012-02-28T13:35:38.000Z</time>
      </trkpt>
      <trkpt lat="48.71604" lon="1.79366">
        <ele>177.39999389648</ele>
        <time>2012-02-28T13:35:47.000Z</time>
      </trkpt>
      <trkpt lat="48.7161" lon="1.79373">
        <ele>177</ele>
        <time>2012-02-28T13:35:53.000Z</time>
      </trkpt>
      <trkpt lat="48.71614" lon="1.79377">
        <ele>176.80000305176</ele>
        <time>2012-02-28T13:35:57.000Z</time>
      </trkpt>
      <trkpt lat="48.71627" lon="1.79385">
        <ele>176.39999389648</ele>
        <time>2012-02-28T13:36:07.000Z</time>
      </trkpt>
      <trkpt lat="48.71634" lon="1.7939">
        <ele>176.19999694824</ele>
        <time>2012-02-28T13:36:14.000Z</time>
      </trkpt>
      <trkpt lat="48.71634" lon="1.7939">
        <ele>176.19999694824</ele>
        <time>2012-02-28T13:36:15.000Z</time>
      </trkpt>
      <trkpt lat="48.71638" lon="1.79391">
        <ele>176</ele>
        <time>2012-02-28T13:36:28.000Z</time>
      </trkpt>
      <trkpt lat="48.71651" lon="1.79398">
        <ele>175.60000610352</ele>
        <time>2012-02-28T13:36:36.000Z</time>
      </trkpt>
      <trkpt lat="48.71655" lon="1.79398">
        <ele>175.60000610352</ele>
        <time>2012-02-28T13:36:41.000Z</time>
      </trkpt>
      <trkpt lat="48.71664" lon="1.79404">
        <ele>175.39999389648</ele>
        <time>2012-02-28T13:36:55.000Z</time>
      </trkpt>
      <trkpt lat="48.71674" lon="1.79414">
        <ele>175.19999694824</ele>
        <time>2012-02-28T13:37:03.000Z</time>
      </trkpt>
      <trkpt lat="48.71679" lon="1.79418">
        <ele>175.19999694824</ele>
        <time>2012-02-28T13:37:07.000Z</time>
      </trkpt>
      <trkpt lat="48.71687" lon="1.79426">
        <ele>175.19999694824</ele>
        <time>2012-02-28T13:37:14.000Z</time>
      </trkpt>
      <trkpt lat="48.71695" lon="1.79427">
        <ele>175.39999389648</ele>
        <time>2012-02-28T13:37:20.000Z</time>
      </trkpt>
      <trkpt lat="48.717" lon="1.79428">
        <ele>175.39999389648</ele>
        <time>2012-02-28T13:37:24.000Z</time>
      </trkpt>
      <trkpt lat="48.71702" lon="1.79431">
        <ele>175.39999389648</ele>
        <time>2012-02-28T13:37:28.000Z</time>
      </trkpt>
      <trkpt lat="48.71712" lon="1.79438">
        <ele>175.19999694824</ele>
        <time>2012-02-28T13:37:37.000Z</time>
      </trkpt>
      <trkpt lat="48.71718" lon="1.79442">
        <ele>175.19999694824</ele>
        <time>2012-02-28T13:37:44.000Z</time>
      </trkpt>
      <trkpt lat="48.7172" lon="1.79443">
        <ele>175.19999694824</ele>
        <time>2012-02-28T13:37:45.000Z</time>
      </trkpt>
      <trkpt lat="48.71725" lon="1.79448">
        <ele>175.19999694824</ele>
        <time>2012-02-28T13:37:50.000Z</time>
      </trkpt>
      <trkpt lat="48.71728" lon="1.79453">
        <ele>175</ele>
        <time>2012-02-28T13:37:54.000Z</time>
      </trkpt>
      <trkpt lat="48.71738" lon="1.79457">
        <ele>175</ele>
        <time>2012-02-28T13:38:02.000Z</time>
      </trkpt>
      <trkpt lat="48.71744" lon="1.79465">
        <ele>174.60000610352</ele>
        <time>2012-02-28T13:38:08.000Z</time>
      </trkpt>
      <trkpt lat="48.71746" lon="1.79467">
        <ele>174.60000610352</ele>
        <time>2012-02-28T13:38:10.000Z</time>
      </trkpt>
      <trkpt lat="48.7175" lon="1.79471">
        <ele>174.39999389648</ele>
        <time>2012-02-28T13:38:14.000Z</time>
      </trkpt>
      <trkpt lat="48.71761" lon="1.79478">
        <ele>174.39999389648</ele>
        <time>2012-02-28T13:38:22.000Z</time>
      </trkpt>
      <trkpt lat="48.71768" lon="1.79483">
        <ele>174.39999389648</ele>
        <time>2012-02-28T13:38:28.000Z</time>
      </trkpt>
      <trkpt lat="48.71779" lon="1.7949">
        <ele>174.39999389648</ele>
        <time>2012-02-28T13:38:36.000Z</time>
      </trkpt>
      <trkpt lat="48.7178" lon="1.79492">
        <ele>174.39999389648</ele>
        <time>2012-02-28T13:38:37.000Z</time>
      </trkpt>
      <trkpt lat="48.71789" lon="1.79496">
        <ele>174.60000610352</ele>
        <time>2012-02-28T13:38:44.000Z</time>
      </trkpt>
      <trkpt lat="48.71799" lon="1.79499">
        <ele>174.80000305176</ele>
        <time>2012-02-28T13:38:52.000Z</time>
      </trkpt>
      <trkpt lat="48.71802" lon="1.79502">
        <ele>174.80000305176</ele>
        <time>2012-02-28T13:38:55.000Z</time>
      </trkpt>
      <trkpt lat="48.7181" lon="1.79507">
        <ele>174.80000305176</ele>
        <time>2012-02-28T13:39:02.000Z</time>
      </trkpt>
      <trkpt lat="48.71811" lon="1.79507">
        <ele>174.80000305176</ele>
        <time>2012-02-28T13:39:03.000Z</time>
      </trkpt>
      <trkpt lat="48.71818" lon="1.79511">
        <ele>175</ele>
        <time>2012-02-28T13:39:08.000Z</time>
      </trkpt>
      <trkpt lat="48.71826" lon="1.79517">
        <ele>175</ele>
        <time>2012-02-28T13:39:15.000Z</time>
      </trkpt>
      <trkpt lat="48.71837" lon="1.79524">
        <ele>175.19999694824</ele>
        <time>2012-02-28T13:39:24.000Z</time>
      </trkpt>
      <trkpt lat="48.71846" lon="1.7953">
        <ele>175.60000610352</ele>
        <time>2012-02-28T13:39:32.000Z</time>
      </trkpt>
      <trkpt lat="48.71852" lon="1.79533">
        <ele>176</ele>
        <time>2012-02-28T13:39:38.000Z</time>
      </trkpt>
      <trkpt lat="48.71861" lon="1.79537">
        <ele>176.60000610352</ele>
        <time>2012-02-28T13:39:45.000Z</time>
      </trkpt>
      <trkpt lat="48.71865" lon="1.79541">
        <ele>176.60000610352</ele>
        <time>2012-02-28T13:39:52.000Z</time>
      </trkpt>
      <trkpt lat="48.71864" lon="1.79542">
        <ele>176.60000610352</ele>
        <time>2012-02-28T13:39:55.000Z</time>
      </trkpt>
      <trkpt lat="48.71878" lon="1.79553">
        <ele>177.19999694824</ele>
        <time>2012-02-28T13:40:14.000Z</time>
      </trkpt>
      <trkpt lat="48.71887" lon="1.79557">
        <ele>177.80000305176</ele>
        <time>2012-02-28T13:40:19.000Z</time>
      </trkpt>
      <trkpt lat="48.71898" lon="1.79563">
        <ele>178.39999389648</ele>
        <time>2012-02-28T13:40:27.000Z</time>
      </trkpt>
      <trkpt lat="48.71902" lon="1.79567">
        <ele>178.60000610352</ele>
        <time>2012-02-28T13:40:31.000Z</time>
      </trkpt>
      <trkpt lat="48.71909" lon="1.79572">
        <ele>178.80000305176</ele>
        <time>2012-02-28T13:40:38.000Z</time>
      </trkpt>
      <trkpt lat="48.71915" lon="1.79581">
        <ele>179</ele>
        <time>2012-02-28T13:40:44.000Z</time>
      </trkpt>
      <trkpt lat="48.71924" lon="1.79588">
        <ele>179.39999389648</ele>
        <time>2012-02-28T13:40:52.000Z</time>
      </trkpt>
      <trkpt lat="48.71934" lon="1.79592">
        <ele>180</ele>
        <time>2012-02-28T13:40:59.000Z</time>
      </trkpt>
      <trkpt lat="48.71939" lon="1.79594">
        <ele>180.19999694824</ele>
        <time>2012-02-28T13:41:02.000Z</time>
      </trkpt>
      <trkpt lat="48.71947" lon="1.79597">
        <ele>180.60000610352</ele>
        <time>2012-02-28T13:41:09.000Z</time>
      </trkpt>
      <trkpt lat="48.71954" lon="1.79604">
        <ele>181</ele>
        <time>2012-02-28T13:41:16.000Z</time>
      </trkpt>
      <trkpt lat="48.71957" lon="1.79606">
        <ele>181</ele>
        <time>2012-02-28T13:41:18.000Z</time>
      </trkpt>
      <trkpt lat="48.71961" lon="1.79608">
        <ele>181.19999694824</ele>
        <time>2012-02-28T13:41:22.000Z</time>
      </trkpt>
      <trkpt lat="48.71973" lon="1.79616">
        <ele>181.80000305176</ele>
        <time>2012-02-28T13:41:31.000Z</time>
      </trkpt>
      <trkpt lat="48.71981" lon="1.79623">
        <ele>182</ele>
        <time>2012-02-28T13:41:37.000Z</time>
      </trkpt>
      <trkpt lat="48.71987" lon="1.79631">
        <ele>182.19999694824</ele>
        <time>2012-02-28T13:41:43.000Z</time>
      </trkpt>
      <trkpt lat="48.71991" lon="1.79636">
        <ele>182.19999694824</ele>
        <time>2012-02-28T13:41:47.000Z</time>
      </trkpt>
      <trkpt lat="48.71998" lon="1.79641">
        <ele>182.60000610352</ele>
        <time>2012-02-28T13:41:53.000Z</time>
      </trkpt>
      <trkpt lat="48.72003" lon="1.79644">
        <ele>182.60000610352</ele>
        <time>2012-02-28T13:41:57.000Z</time>
      </trkpt>
      <trkpt lat="48.72009" lon="1.79649">
        <ele>182.80000305176</ele>
        <time>2012-02-28T13:42:03.000Z</time>
      </trkpt>
      <trkpt lat="48.72022" lon="1.79657">
        <ele>183.19999694824</ele>
        <time>2012-02-28T13:42:12.000Z</time>
      </trkpt>
      <trkpt lat="48.72031" lon="1.79665">
        <ele>183.60000610352</ele>
        <time>2012-02-28T13:42:20.000Z</time>
      </trkpt>
      <trkpt lat="48.72039" lon="1.7967">
        <ele>183.80000305176</ele>
        <time>2012-02-28T13:42:26.000Z</time>
      </trkpt>
      <trkpt lat="48.7205" lon="1.79673">
        <ele>184</ele>
        <time>2012-02-28T13:42:34.000Z</time>
      </trkpt>
      <trkpt lat="48.7206" lon="1.79679">
        <ele>184.19999694824</ele>
        <time>2012-02-28T13:42:42.000Z</time>
      </trkpt>
      <trkpt lat="48.72067" lon="1.79684">
        <ele>184</ele>
        <time>2012-02-28T13:42:48.000Z</time>
      </trkpt>
      <trkpt lat="48.72075" lon="1.7969">
        <ele>184</ele>
        <time>2012-02-28T13:42:54.000Z</time>
      </trkpt>
      <trkpt lat="48.72084" lon="1.79697">
        <ele>183.80000305176</ele>
        <time>2012-02-28T13:43:02.000Z</time>
      </trkpt>
      <trkpt lat="48.72092" lon="1.79703">
        <ele>183.19999694824</ele>
        <time>2012-02-28T13:43:08.000Z</time>
      </trkpt>
      <trkpt lat="48.72101" lon="1.79708">
        <ele>182.80000305176</ele>
        <time>2012-02-28T13:43:15.000Z</time>
      </trkpt>
      <trkpt lat="48.72109" lon="1.79719">
        <ele>182.19999694824</ele>
        <time>2012-02-28T13:43:22.000Z</time>
      </trkpt>
      <trkpt lat="48.7211" lon="1.79719">
        <ele>182.19999694824</ele>
        <time>2012-02-28T13:43:23.000Z</time>
      </trkpt>
      <trkpt lat="48.7212" lon="1.79727">
        <ele>182</ele>
        <time>2012-02-28T13:43:31.000Z</time>
      </trkpt>
      <trkpt lat="48.72129" lon="1.79732">
        <ele>181.80000305176</ele>
        <time>2012-02-28T13:43:38.000Z</time>
      </trkpt>
      <trkpt lat="48.72138" lon="1.79738">
        <ele>181.60000610352</ele>
        <time>2012-02-28T13:43:45.000Z</time>
      </trkpt>
      <trkpt lat="48.72147" lon="1.79743">
        <ele>181.80000305176</ele>
        <time>2012-02-28T13:43:51.000Z</time>
      </trkpt>
      <trkpt lat="48.72156" lon="1.79746">
        <ele>181.80000305176</ele>
        <time>2012-02-28T13:43:58.000Z</time>
      </trkpt>
      <trkpt lat="48.72165" lon="1.79752">
        <ele>181.80000305176</ele>
        <time>2012-02-28T13:44:05.000Z</time>
      </trkpt>
      <trkpt lat="48.72173" lon="1.79757">
        <ele>182.19999694824</ele>
        <time>2012-02-28T13:44:11.000Z</time>
      </trkpt>
      <trkpt lat="48.7218" lon="1.7976">
        <ele>182.39999389648</ele>
        <time>2012-02-28T13:44:16.000Z</time>
      </trkpt>
      <trkpt lat="48.72187" lon="1.79769">
        <ele>182.39999389648</ele>
        <time>2012-02-28T13:44:23.000Z</time>
      </trkpt>
      <trkpt lat="48.72192" lon="1.79776">
        <ele>182.60000610352</ele>
        <time>2012-02-28T13:44:29.000Z</time>
      </trkpt>
      <trkpt lat="48.72202" lon="1.79782">
        <ele>182.80000305176</ele>
        <time>2012-02-28T13:44:36.000Z</time>
      </trkpt>
      <trkpt lat="48.72213" lon="1.7979">
        <ele>183</ele>
        <time>2012-02-28T13:44:45.000Z</time>
      </trkpt>
      <trkpt lat="48.72224" lon="1.79795">
        <ele>183.39999389648</ele>
        <time>2012-02-28T13:44:53.000Z</time>
      </trkpt>
      <trkpt lat="48.72231" lon="1.79798">
        <ele>183.60000610352</ele>
        <time>2012-02-28T13:44:59.000Z</time>
      </trkpt>
      <trkpt lat="48.72239" lon="1.79802">
        <ele>184</ele>
        <time>2012-02-28T13:45:06.000Z</time>
      </trkpt>
      <trkpt lat="48.72245" lon="1.79809">
        <ele>183.80000305176</ele>
        <time>2012-02-28T13:45:12.000Z</time>
      </trkpt>
      <trkpt lat="48.72255" lon="1.79817">
        <ele>183.80000305176</ele>
        <time>2012-02-28T13:45:21.000Z</time>
      </trkpt>
      <trkpt lat="48.72263" lon="1.79819">
        <ele>184</ele>
        <time>2012-02-28T13:45:28.000Z</time>
      </trkpt>
      <trkpt lat="48.72275" lon="1.79826">
        <ele>183.80000305176</ele>
        <time>2012-02-28T13:45:37.000Z</time>
      </trkpt>
      <trkpt lat="48.7228" lon="1.79833">
        <ele>183.80000305176</ele>
        <time>2012-02-28T13:45:43.000Z</time>
      </trkpt>
      <trkpt lat="48.72288" lon="1.79838">
        <ele>183.60000610352</ele>
        <time>2012-02-28T13:45:50.000Z</time>
      </trkpt>
      <trkpt lat="48.72289" lon="1.79838">
        <ele>183.80000305176</ele>
        <time>2012-02-28T13:45:51.000Z</time>
      </trkpt>
      <trkpt lat="48.72295" lon="1.79843">
        <ele>183.60000610352</ele>
        <time>2012-02-28T13:45:56.000Z</time>
      </trkpt>
      <trkpt lat="48.72301" lon="1.79851">
        <ele>183.39999389648</ele>
        <time>2012-02-28T13:46:03.000Z</time>
      </trkpt>
      <trkpt lat="48.72304" lon="1.79853">
        <ele>183.39999389648</ele>
        <time>2012-02-28T13:46:05.000Z</time>
      </trkpt>
      <trkpt lat="48.72312" lon="1.79856">
        <ele>183.39999389648</ele>
        <time>2012-02-28T13:46:12.000Z</time>
      </trkpt>
      <trkpt lat="48.7232" lon="1.79864">
        <ele>183.19999694824</ele>
        <time>2012-02-28T13:46:20.000Z</time>
      </trkpt>
      <trkpt lat="48.72332" lon="1.79872">
        <ele>183.19999694824</ele>
        <time>2012-02-28T13:46:29.000Z</time>
      </trkpt>
      <trkpt lat="48.72342" lon="1.79876">
        <ele>183.39999389648</ele>
        <time>2012-02-28T13:46:37.000Z</time>
      </trkpt>
      <trkpt lat="48.72344" lon="1.79879">
        <ele>183.19999694824</ele>
        <time>2012-02-28T13:46:43.000Z</time>
      </trkpt>
      <trkpt lat="48.72349" lon="1.7988">
        <ele>183.39999389648</ele>
        <time>2012-02-28T13:46:49.000Z</time>
      </trkpt>
      <trkpt lat="48.72356" lon="1.79885">
        <ele>183.60000610352</ele>
        <time>2012-02-28T13:46:54.000Z</time>
      </trkpt>
      <trkpt lat="48.72362" lon="1.79892">
        <ele>183.39999389648</ele>
        <time>2012-02-28T13:47:00.000Z</time>
      </trkpt>
      <trkpt lat="48.72372" lon="1.79897">
        <ele>183.60000610352</ele>
        <time>2012-02-28T13:47:07.000Z</time>
      </trkpt>
      <trkpt lat="48.72382" lon="1.79907">
        <ele>183.80000305176</ele>
        <time>2012-02-28T13:47:16.000Z</time>
      </trkpt>
      <trkpt lat="48.72392" lon="1.79911">
        <ele>184</ele>
        <time>2012-02-28T13:47:21.000Z</time>
      </trkpt>
      <trkpt lat="48.7241" lon="1.79923">
        <ele>184.39999389648</ele>
        <time>2012-02-28T13:47:27.000Z</time>
      </trkpt>
      <trkpt lat="48.72426" lon="1.79933">
        <ele>184.60000610352</ele>
        <time>2012-02-28T13:47:33.000Z</time>
      </trkpt>
      <trkpt lat="48.72432" lon="1.79938">
        <ele>184.39999389648</ele>
        <time>2012-02-28T13:47:38.000Z</time>
      </trkpt>
      <trkpt lat="48.72439" lon="1.79947">
        <ele>184.39999389648</ele>
        <time>2012-02-28T13:47:45.000Z</time>
      </trkpt>
      <trkpt lat="48.72447" lon="1.79951">
        <ele>184.39999389648</ele>
        <time>2012-02-28T13:47:51.000Z</time>
      </trkpt>
      <trkpt lat="48.7246" lon="1.79957">
        <ele>184.60000610352</ele>
        <time>2012-02-28T13:47:59.000Z</time>
      </trkpt>
      <trkpt lat="48.72472" lon="1.79964">
        <ele>184.80000305176</ele>
        <time>2012-02-28T13:48:08.000Z</time>
      </trkpt>
      <trkpt lat="48.72476" lon="1.79967">
        <ele>184.80000305176</ele>
        <time>2012-02-28T13:48:11.000Z</time>
      </trkpt>
      <trkpt lat="48.72481" lon="1.7997">
        <ele>184.80000305176</ele>
        <time>2012-02-28T13:48:15.000Z</time>
      </trkpt>
      <trkpt lat="48.72486" lon="1.79979">
        <ele>184.60000610352</ele>
        <time>2012-02-28T13:48:21.000Z</time>
      </trkpt>
      <trkpt lat="48.72493" lon="1.79983">
        <ele>184.60000610352</ele>
        <time>2012-02-28T13:48:26.000Z</time>
      </trkpt>
      <trkpt lat="48.72498" lon="1.79986">
        <ele>184.60000610352</ele>
        <time>2012-02-28T13:48:30.000Z</time>
      </trkpt>
      <trkpt lat="48.72508" lon="1.79989">
        <ele>184.39999389648</ele>
        <time>2012-02-28T13:48:37.000Z</time>
      </trkpt>
      <trkpt lat="48.72518" lon="1.79995">
        <ele>184</ele>
        <time>2012-02-28T13:48:45.000Z</time>
      </trkpt>
      <trkpt lat="48.72522" lon="1.79997">
        <ele>183.80000305176</ele>
        <time>2012-02-28T13:48:48.000Z</time>
      </trkpt>
      <trkpt lat="48.72527" lon="1.80002">
        <ele>183.60000610352</ele>
        <time>2012-02-28T13:48:52.000Z</time>
      </trkpt>
      <trkpt lat="48.72535" lon="1.80008">
        <ele>183</ele>
        <time>2012-02-28T13:48:59.000Z</time>
      </trkpt>
      <trkpt lat="48.72541" lon="1.80017">
        <ele>182.39999389648</ele>
        <time>2012-02-28T13:49:06.000Z</time>
      </trkpt>
      <trkpt lat="48.72551" lon="1.80023">
        <ele>181.80000305176</ele>
        <time>2012-02-28T13:49:14.000Z</time>
      </trkpt>
      <trkpt lat="48.72554" lon="1.80025">
        <ele>181.80000305176</ele>
        <time>2012-02-28T13:49:16.000Z</time>
      </trkpt>
      <trkpt lat="48.72559" lon="1.80027">
        <ele>181.60000610352</ele>
        <time>2012-02-28T13:49:20.000Z</time>
      </trkpt>
      <trkpt lat="48.7257" lon="1.80035">
        <ele>181</ele>
        <time>2012-02-28T13:49:30.000Z</time>
      </trkpt>
      <trkpt lat="48.72577" lon="1.80043">
        <ele>180.39999389648</ele>
        <time>2012-02-28T13:49:37.000Z</time>
      </trkpt>
      <trkpt lat="48.72578" lon="1.80044">
        <ele>180.39999389648</ele>
        <time>2012-02-28T13:49:38.000Z</time>
      </trkpt>
      <trkpt lat="48.72585" lon="1.80045">
        <ele>180.39999389648</ele>
        <time>2012-02-28T13:49:44.000Z</time>
      </trkpt>
      <trkpt lat="48.72594" lon="1.8005">
        <ele>180.19999694824</ele>
        <time>2012-02-28T13:49:51.000Z</time>
      </trkpt>
      <trkpt lat="48.72605" lon="1.80059">
        <ele>179.60000610352</ele>
        <time>2012-02-28T13:50:01.000Z</time>
      </trkpt>
      <trkpt lat="48.72611" lon="1.80064">
        <ele>179.39999389648</ele>
        <time>2012-02-28T13:50:07.000Z</time>
      </trkpt>
      <trkpt lat="48.72617" lon="1.80068">
        <ele>179.19999694824</ele>
        <time>2012-02-28T13:50:12.000Z</time>
      </trkpt>
      <trkpt lat="48.72631" lon="1.80076">
        <ele>179</ele>
        <time>2012-02-28T13:50:23.000Z</time>
      </trkpt>
      <trkpt lat="48.72642" lon="1.80084">
        <ele>178.60000610352</ele>
        <time>2012-02-28T13:50:30.000Z</time>
      </trkpt>
      <trkpt lat="48.7265" lon="1.8009">
        <ele>178.60000610352</ele>
        <time>2012-02-28T13:50:37.000Z</time>
      </trkpt>
      <trkpt lat="48.72661" lon="1.80101">
        <ele>178.39999389648</ele>
        <time>2012-02-28T13:50:47.000Z</time>
      </trkpt>
      <trkpt lat="48.7267" lon="1.80103">
        <ele>178.19999694824</ele>
        <time>2012-02-28T13:50:53.000Z</time>
      </trkpt>
      <trkpt lat="48.72679" lon="1.80106">
        <ele>177.80000305176</ele>
        <time>2012-02-28T13:51:00.000Z</time>
      </trkpt>
      <trkpt lat="48.72682" lon="1.80106">
        <ele>177.60000610352</ele>
        <time>2012-02-28T13:51:02.000Z</time>
      </trkpt>
      <trkpt lat="48.72691" lon="1.80099">
        <ele>177.60000610352</ele>
        <time>2012-02-28T13:51:09.000Z</time>
      </trkpt>
      <trkpt lat="48.72696" lon="1.80091">
        <ele>177.80000305176</ele>
        <time>2012-02-28T13:51:14.000Z</time>
      </trkpt>
      <trkpt lat="48.72701" lon="1.80079">
        <ele>177.80000305176</ele>
        <time>2012-02-28T13:51:20.000Z</time>
      </trkpt>
      <trkpt lat="48.72706" lon="1.80069">
        <ele>178</ele>
        <time>2012-02-28T13:51:26.000Z</time>
      </trkpt>
      <trkpt lat="48.72708" lon="1.80065">
        <ele>178</ele>
        <time>2012-02-28T13:51:28.000Z</time>
      </trkpt>
      <trkpt lat="48.7271" lon="1.80057">
        <ele>178</ele>
        <time>2012-02-28T13:51:33.000Z</time>
      </trkpt>
      <trkpt lat="48.72716" lon="1.80041">
        <ele>178</ele>
        <time>2012-02-28T13:51:41.000Z</time>
      </trkpt>
      <trkpt lat="48.72718" lon="1.80031">
        <ele>178.19999694824</ele>
        <time>2012-02-28T13:51:47.000Z</time>
      </trkpt>
      <trkpt lat="48.72722" lon="1.80021">
        <ele>178</ele>
        <time>2012-02-28T13:51:52.000Z</time>
      </trkpt>
      <trkpt lat="48.72724" lon="1.80014">
        <ele>178</ele>
        <time>2012-02-28T13:51:55.000Z</time>
      </trkpt>
      <trkpt lat="48.7273" lon="1.79998">
        <ele>177.80000305176</ele>
        <time>2012-02-28T13:52:03.000Z</time>
      </trkpt>
      <trkpt lat="48.72731" lon="1.79996">
        <ele>177.80000305176</ele>
        <time>2012-02-28T13:52:04.000Z</time>
      </trkpt>
      <trkpt lat="48.72735" lon="1.79985">
        <ele>177.80000305176</ele>
        <time>2012-02-28T13:52:09.000Z</time>
      </trkpt>
      <trkpt lat="48.72738" lon="1.79979">
        <ele>177.80000305176</ele>
        <time>2012-02-28T13:52:12.000Z</time>
      </trkpt>
      <trkpt lat="48.7274" lon="1.7997">
        <ele>178.19999694824</ele>
        <time>2012-02-28T13:52:17.000Z</time>
      </trkpt>
      <trkpt lat="48.72743" lon="1.79957">
        <ele>178.39999389648</ele>
        <time>2012-02-28T13:52:24.000Z</time>
      </trkpt>
      <trkpt lat="48.72746" lon="1.79949">
        <ele>178.60000610352</ele>
        <time>2012-02-28T13:52:30.000Z</time>
      </trkpt>
      <trkpt lat="48.72747" lon="1.79946">
        <ele>178.80000305176</ele>
        <time>2012-02-28T13:52:32.000Z</time>
      </trkpt>
      <trkpt lat="48.72749" lon="1.79942">
        <ele>178.80000305176</ele>
        <time>2012-02-28T13:52:34.000Z</time>
      </trkpt>
      <trkpt lat="48.72753" lon="1.79929">
        <ele>179.19999694824</ele>
        <time>2012-02-28T13:52:40.000Z</time>
      </trkpt>
      <trkpt lat="48.72754" lon="1.79928">
        <ele>179.19999694824</ele>
        <time>2012-02-28T13:52:43.000Z</time>
      </trkpt>
      <trkpt lat="48.72757" lon="1.79924">
        <ele>179</ele>
        <time>2012-02-28T13:52:47.000Z</time>
      </trkpt>
      <trkpt lat="48.72763" lon="1.79915">
        <ele>178.80000305176</ele>
        <time>2012-02-28T13:52:52.000Z</time>
      </trkpt>
      <trkpt lat="48.72766" lon="1.79907">
        <ele>178.39999389648</ele>
        <time>2012-02-28T13:52:56.000Z</time>
      </trkpt>
      <trkpt lat="48.72768" lon="1.79898">
        <ele>178</ele>
        <time>2012-02-28T13:53:00.000Z</time>
      </trkpt>
      <trkpt lat="48.72771" lon="1.79888">
        <ele>177.60000610352</ele>
        <time>2012-02-28T13:53:05.000Z</time>
      </trkpt>
      <trkpt lat="48.72772" lon="1.79886">
        <ele>177.39999389648</ele>
        <time>2012-02-28T13:53:06.000Z</time>
      </trkpt>
      <trkpt lat="48.72775" lon="1.79879">
        <ele>177</ele>
        <time>2012-02-28T13:53:10.000Z</time>
      </trkpt>
      <trkpt lat="48.72781" lon="1.79864">
        <ele>176.39999389648</ele>
        <time>2012-02-28T13:53:17.000Z</time>
      </trkpt>
      <trkpt lat="48.72785" lon="1.7985">
        <ele>176</ele>
        <time>2012-02-28T13:53:23.000Z</time>
      </trkpt>
      <trkpt lat="48.72788" lon="1.79844">
        <ele>175.80000305176</ele>
        <time>2012-02-28T13:53:27.000Z</time>
      </trkpt>
      <trkpt lat="48.72793" lon="1.7983">
        <ele>175.60000610352</ele>
        <time>2012-02-28T13:53:34.000Z</time>
      </trkpt>
      <trkpt lat="48.72794" lon="1.79828">
        <ele>175.60000610352</ele>
        <time>2012-02-28T13:53:35.000Z</time>
      </trkpt>
      <trkpt lat="48.72796" lon="1.79819">
        <ele>175.60000610352</ele>
        <time>2012-02-28T13:53:39.000Z</time>
      </trkpt>
      <trkpt lat="48.72799" lon="1.79813">
        <ele>175.60000610352</ele>
        <time>2012-02-28T13:53:44.000Z</time>
      </trkpt>
      <trkpt lat="48.72806" lon="1.798">
        <ele>175.80000305176</ele>
        <time>2012-02-28T13:53:51.000Z</time>
      </trkpt>
      <trkpt lat="48.72809" lon="1.79791">
        <ele>175.80000305176</ele>
        <time>2012-02-28T13:53:57.000Z</time>
      </trkpt>
      <trkpt lat="48.7281" lon="1.79781">
        <ele>176</ele>
        <time>2012-02-28T13:54:02.000Z</time>
      </trkpt>
      <trkpt lat="48.72815" lon="1.7977">
        <ele>176.19999694824</ele>
        <time>2012-02-28T13:54:08.000Z</time>
      </trkpt>
      <trkpt lat="48.72818" lon="1.79764">
        <ele>176.19999694824</ele>
        <time>2012-02-28T13:54:11.000Z</time>
      </trkpt>
      <trkpt lat="48.72823" lon="1.79758">
        <ele>176.19999694824</ele>
        <time>2012-02-28T13:54:15.000Z</time>
      </trkpt>
      <trkpt lat="48.72828" lon="1.79746">
        <ele>176.39999389648</ele>
        <time>2012-02-28T13:54:21.000Z</time>
      </trkpt>
      <trkpt lat="48.72834" lon="1.7973">
        <ele>176.19999694824</ele>
        <time>2012-02-28T13:54:29.000Z</time>
      </trkpt>
      <trkpt lat="48.7284" lon="1.7972">
        <ele>176.39999389648</ele>
        <time>2012-02-28T13:54:35.000Z</time>
      </trkpt>
      <trkpt lat="48.72847" lon="1.79707">
        <ele>176.60000610352</ele>
        <time>2012-02-28T13:54:43.000Z</time>
      </trkpt>
      <trkpt lat="48.72852" lon="1.79696">
        <ele>176.80000305176</ele>
        <time>2012-02-28T13:54:48.000Z</time>
      </trkpt>
      <trkpt lat="48.72855" lon="1.79689">
        <ele>176.80000305176</ele>
        <time>2012-02-28T13:54:52.000Z</time>
      </trkpt>
      <trkpt lat="48.72858" lon="1.79681">
        <ele>176.80000305176</ele>
        <time>2012-02-28T13:54:56.000Z</time>
      </trkpt>
      <trkpt lat="48.72862" lon="1.79668">
        <ele>177</ele>
        <time>2012-02-28T13:55:02.000Z</time>
      </trkpt>
      <trkpt lat="48.72865" lon="1.7966">
        <ele>177</ele>
        <time>2012-02-28T13:55:06.000Z</time>
      </trkpt>
      <trkpt lat="48.7287" lon="1.79648">
        <ele>177</ele>
        <time>2012-02-28T13:55:12.000Z</time>
      </trkpt>
      <trkpt lat="48.7287" lon="1.79646">
        <ele>177</ele>
        <time>2012-02-28T13:55:15.000Z</time>
      </trkpt>
      <trkpt lat="48.72871" lon="1.7964">
        <ele>177</ele>
        <time>2012-02-28T13:55:20.000Z</time>
      </trkpt>
      <trkpt lat="48.72872" lon="1.79638">
        <ele>177</ele>
        <time>2012-02-28T13:55:21.000Z</time>
      </trkpt>
      <trkpt lat="48.72874" lon="1.79632">
        <ele>177</ele>
        <time>2012-02-28T13:55:23.000Z</time>
      </trkpt>
      <trkpt lat="48.72874" lon="1.79628">
        <ele>177</ele>
        <time>2012-02-28T13:55:30.000Z</time>
      </trkpt>
      <trkpt lat="48.72874" lon="1.79621">
        <ele>177</ele>
        <time>2012-02-28T13:55:38.000Z</time>
      </trkpt>
      <trkpt lat="48.7288" lon="1.79611">
        <ele>177</ele>
        <time>2012-02-28T13:55:43.000Z</time>
      </trkpt>
      <trkpt lat="48.72883" lon="1.79602">
        <ele>177.19999694824</ele>
        <time>2012-02-28T13:55:48.000Z</time>
      </trkpt>
      <trkpt lat="48.72889" lon="1.79587">
        <ele>177.39999389648</ele>
        <time>2012-02-28T13:55:55.000Z</time>
      </trkpt>
      <trkpt lat="48.72896" lon="1.79573">
        <ele>177.60000610352</ele>
        <time>2012-02-28T13:56:03.000Z</time>
      </trkpt>
      <trkpt lat="48.729" lon="1.79558">
        <ele>177.80000305176</ele>
        <time>2012-02-28T13:56:11.000Z</time>
      </trkpt>
      <trkpt lat="48.72902" lon="1.79554">
        <ele>178</ele>
        <time>2012-02-28T13:56:16.000Z</time>
      </trkpt>
      <trkpt lat="48.72907" lon="1.79539">
        <ele>178.19999694824</ele>
        <time>2012-02-28T13:56:23.000Z</time>
      </trkpt>
      <trkpt lat="48.72912" lon="1.79523">
        <ele>178.60000610352</ele>
        <time>2012-02-28T13:56:31.000Z</time>
      </trkpt>
      <trkpt lat="48.72915" lon="1.79511">
        <ele>178.80000305176</ele>
        <time>2012-02-28T13:56:37.000Z</time>
      </trkpt>
      <trkpt lat="48.72918" lon="1.79504">
        <ele>178.80000305176</ele>
        <time>2012-02-28T13:56:41.000Z</time>
      </trkpt>
      <trkpt lat="48.7292" lon="1.79501">
        <ele>178.80000305176</ele>
        <time>2012-02-28T13:56:46.000Z</time>
      </trkpt>
      <trkpt lat="48.72924" lon="1.79489">
        <ele>178.80000305176</ele>
        <time>2012-02-28T13:56:52.000Z</time>
      </trkpt>
      <trkpt lat="48.72925" lon="1.79487">
        <ele>178.80000305176</ele>
        <time>2012-02-28T13:56:53.000Z</time>
      </trkpt>
      <trkpt lat="48.7293" lon="1.79471">
        <ele>178.80000305176</ele>
        <time>2012-02-28T13:57:01.000Z</time>
      </trkpt>
      <trkpt lat="48.72936" lon="1.79459">
        <ele>178.80000305176</ele>
        <time>2012-02-28T13:57:07.000Z</time>
      </trkpt>
      <trkpt lat="48.72941" lon="1.79447">
        <ele>178.60000610352</ele>
        <time>2012-02-28T13:57:13.000Z</time>
      </trkpt>
      <trkpt lat="48.72946" lon="1.79434">
        <ele>178.60000610352</ele>
        <time>2012-02-28T13:57:20.000Z</time>
      </trkpt>
      <trkpt lat="48.72949" lon="1.79424">
        <ele>178.60000610352</ele>
        <time>2012-02-28T13:57:25.000Z</time>
      </trkpt>
      <trkpt lat="48.72952" lon="1.79414">
        <ele>178.60000610352</ele>
        <time>2012-02-28T13:57:30.000Z</time>
      </trkpt>
      <trkpt lat="48.72955" lon="1.794">
        <ele>179</ele>
        <time>2012-02-28T13:57:37.000Z</time>
      </trkpt>
      <trkpt lat="48.72956" lon="1.79398">
        <ele>179</ele>
        <time>2012-02-28T13:57:38.000Z</time>
      </trkpt>
      <trkpt lat="48.7296" lon="1.79389">
        <ele>179</ele>
        <time>2012-02-28T13:57:44.000Z</time>
      </trkpt>
      <trkpt lat="48.72962" lon="1.79377">
        <ele>179.39999389648</ele>
        <time>2012-02-28T13:57:50.000Z</time>
      </trkpt>
      <trkpt lat="48.72962" lon="1.79367">
        <ele>179.80000305176</ele>
        <time>2012-02-28T13:57:55.000Z</time>
      </trkpt>
      <trkpt lat="48.7297" lon="1.79355">
        <ele>179.80000305176</ele>
        <time>2012-02-28T13:58:02.000Z</time>
      </trkpt>
      <trkpt lat="48.72973" lon="1.79345">
        <ele>180.19999694824</ele>
        <time>2012-02-28T13:58:07.000Z</time>
      </trkpt>
      <trkpt lat="48.72979" lon="1.79334">
        <ele>180.19999694824</ele>
        <time>2012-02-28T13:58:14.000Z</time>
      </trkpt>
      <trkpt lat="48.72985" lon="1.79317">
        <ele>180</ele>
        <time>2012-02-28T13:58:23.000Z</time>
      </trkpt>
      <trkpt lat="48.7299" lon="1.79306">
        <ele>179.60000610352</ele>
        <time>2012-02-28T13:58:28.000Z</time>
      </trkpt>
      <trkpt lat="48.72994" lon="1.79298">
        <ele>179.39999389648</ele>
        <time>2012-02-28T13:58:33.000Z</time>
      </trkpt>
      <trkpt lat="48.73003" lon="1.79284">
        <ele>179</ele>
        <time>2012-02-28T13:58:43.000Z</time>
      </trkpt>
      <trkpt lat="48.73012" lon="1.79267">
        <ele>178.80000305176</ele>
        <time>2012-02-28T13:58:53.000Z</time>
      </trkpt>
      <trkpt lat="48.73018" lon="1.79253">
        <ele>178.60000610352</ele>
        <time>2012-02-28T13:59:01.000Z</time>
      </trkpt>
      <trkpt lat="48.73022" lon="1.79239">
        <ele>178.39999389648</ele>
        <time>2012-02-28T13:59:08.000Z</time>
      </trkpt>
      <trkpt lat="48.73029" lon="1.79226">
        <ele>178.19999694824</ele>
        <time>2012-02-28T13:59:15.000Z</time>
      </trkpt>
      <trkpt lat="48.73037" lon="1.79206">
        <ele>178</ele>
        <time>2012-02-28T13:59:26.000Z</time>
      </trkpt>
      <trkpt lat="48.73044" lon="1.79186">
        <ele>178</ele>
        <time>2012-02-28T13:59:36.000Z</time>
      </trkpt>
      <trkpt lat="48.73053" lon="1.79173">
        <ele>178</ele>
        <time>2012-02-28T13:59:45.000Z</time>
      </trkpt>
      <trkpt lat="48.73061" lon="1.79155">
        <ele>178</ele>
        <time>2012-02-28T13:59:55.000Z</time>
      </trkpt>
      <trkpt lat="48.73072" lon="1.79129">
        <ele>178.19999694824</ele>
        <time>2012-02-28T14:00:08.000Z</time>
      </trkpt>
      <trkpt lat="48.73077" lon="1.79116">
        <ele>178</ele>
        <time>2012-02-28T14:00:15.000Z</time>
      </trkpt>
      <trkpt lat="48.73084" lon="1.79103">
        <ele>178</ele>
        <time>2012-02-28T14:00:23.000Z</time>
      </trkpt>
      <trkpt lat="48.73093" lon="1.7908">
        <ele>177.80000305176</ele>
        <time>2012-02-28T14:00:34.000Z</time>
      </trkpt>
      <trkpt lat="48.73098" lon="1.79067">
        <ele>177.80000305176</ele>
        <time>2012-02-28T14:00:40.000Z</time>
      </trkpt>
      <trkpt lat="48.73104" lon="1.79055">
        <ele>178</ele>
        <time>2012-02-28T14:00:47.000Z</time>
      </trkpt>
      <trkpt lat="48.7311" lon="1.79041">
        <ele>178.19999694824</ele>
        <time>2012-02-28T14:00:55.000Z</time>
      </trkpt>
      <trkpt lat="48.73115" lon="1.79033">
        <ele>178.39999389648</ele>
        <time>2012-02-28T14:01:00.000Z</time>
      </trkpt>
      <trkpt lat="48.73121" lon="1.79014">
        <ele>178.60000610352</ele>
        <time>2012-02-28T14:01:09.000Z</time>
      </trkpt>
      <trkpt lat="48.73124" lon="1.79008">
        <ele>178.80000305176</ele>
        <time>2012-02-28T14:01:15.000Z</time>
      </trkpt>
      <trkpt lat="48.73129" lon="1.78994">
        <ele>179.19999694824</ele>
        <time>2012-02-28T14:01:22.000Z</time>
      </trkpt>
      <trkpt lat="48.73134" lon="1.78983">
        <ele>179.39999389648</ele>
        <time>2012-02-28T14:01:28.000Z</time>
      </trkpt>
      <trkpt lat="48.7314" lon="1.78968">
        <ele>179.80000305176</ele>
        <time>2012-02-28T14:01:36.000Z</time>
      </trkpt>
      <trkpt lat="48.73143" lon="1.78961">
        <ele>180</ele>
        <time>2012-02-28T14:01:40.000Z</time>
      </trkpt>
      <trkpt lat="48.73149" lon="1.78946">
        <ele>180.60000610352</ele>
        <time>2012-02-28T14:01:48.000Z</time>
      </trkpt>
      <trkpt lat="48.73155" lon="1.78933">
        <ele>181</ele>
        <time>2012-02-28T14:01:55.000Z</time>
      </trkpt>
      <trkpt lat="48.7316" lon="1.78921">
        <ele>181.60000610352</ele>
        <time>2012-02-28T14:02:02.000Z</time>
      </trkpt>
      <trkpt lat="48.73169" lon="1.78909">
        <ele>181.80000305176</ele>
        <time>2012-02-28T14:02:11.000Z</time>
      </trkpt>
      <trkpt lat="48.73176" lon="1.78892">
        <ele>181.19999694824</ele>
        <time>2012-02-28T14:02:20.000Z</time>
      </trkpt>
      <trkpt lat="48.73179" lon="1.78886">
        <ele>181</ele>
        <time>2012-02-28T14:02:26.000Z</time>
      </trkpt>
      <trkpt lat="48.73179" lon="1.78886">
        <ele>181</ele>
        <time>2012-02-28T14:02:27.000Z</time>
      </trkpt>
      <trkpt lat="48.73183" lon="1.78879">
        <ele>180.80000305176</ele>
        <time>2012-02-28T14:02:33.000Z</time>
      </trkpt>
      <trkpt lat="48.73184" lon="1.78878">
        <ele>180.60000610352</ele>
        <time>2012-02-28T14:02:34.000Z</time>
      </trkpt>
      <trkpt lat="48.73192" lon="1.78864">
        <ele>180.19999694824</ele>
        <time>2012-02-28T14:02:41.000Z</time>
      </trkpt>
      <trkpt lat="48.73198" lon="1.7885">
        <ele>179.60000610352</ele>
        <time>2012-02-28T14:02:48.000Z</time>
      </trkpt>
      <trkpt lat="48.73204" lon="1.78838">
        <ele>179.19999694824</ele>
        <time>2012-02-28T14:02:55.000Z</time>
      </trkpt>
      <trkpt lat="48.73206" lon="1.78836">
        <ele>179.19999694824</ele>
        <time>2012-02-28T14:02:57.000Z</time>
      </trkpt>
      <trkpt lat="48.73209" lon="1.78832">
        <ele>179</ele>
        <time>2012-02-28T14:03:00.000Z</time>
      </trkpt>
      <trkpt lat="48.7321" lon="1.78831">
        <ele>179</ele>
        <time>2012-02-28T14:03:03.000Z</time>
      </trkpt>
      <trkpt lat="48.73215" lon="1.78837">
        <ele>178.80000305176</ele>
        <time>2012-02-28T14:03:13.000Z</time>
      </trkpt>
      <trkpt lat="48.73222" lon="1.7885">
        <ele>178.60000610352</ele>
        <time>2012-02-28T14:03:20.000Z</time>
      </trkpt>
      <trkpt lat="48.73228" lon="1.78862">
        <ele>178.39999389648</ele>
        <time>2012-02-28T14:03:27.000Z</time>
      </trkpt>
      <trkpt lat="48.73234" lon="1.78874">
        <ele>178.19999694824</ele>
        <time>2012-02-28T14:03:34.000Z</time>
      </trkpt>
      <trkpt lat="48.7324" lon="1.78883">
        <ele>178</ele>
        <time>2012-02-28T14:03:40.000Z</time>
      </trkpt>
      <trkpt lat="48.73247" lon="1.78894">
        <ele>177.80000305176</ele>
        <time>2012-02-28T14:03:47.000Z</time>
      </trkpt>
      <trkpt lat="48.73251" lon="1.78901">
        <ele>177.80000305176</ele>
        <time>2012-02-28T14:03:51.000Z</time>
      </trkpt>
      <trkpt lat="48.73257" lon="1.78912">
        <ele>177.39999389648</ele>
        <time>2012-02-28T14:03:58.000Z</time>
      </trkpt>
      <trkpt lat="48.73263" lon="1.78924">
        <ele>176.80000305176</ele>
        <time>2012-02-28T14:04:05.000Z</time>
      </trkpt>
      <trkpt lat="48.7327" lon="1.78937">
        <ele>175.80000305176</ele>
        <time>2012-02-28T14:04:12.000Z</time>
      </trkpt>
      <trkpt lat="48.73276" lon="1.78948">
        <ele>175.19999694824</ele>
        <time>2012-02-28T14:04:19.000Z</time>
      </trkpt>
      <trkpt lat="48.73281" lon="1.7896">
        <ele>174.60000610352</ele>
        <time>2012-02-28T14:04:26.000Z</time>
      </trkpt>
      <trkpt lat="48.73286" lon="1.7897">
        <ele>174.19999694824</ele>
        <time>2012-02-28T14:04:33.000Z</time>
      </trkpt>
      <trkpt lat="48.73295" lon="1.78988">
        <ele>173.60000610352</ele>
        <time>2012-02-28T14:04:43.000Z</time>
      </trkpt>
      <trkpt lat="48.73302" lon="1.79009">
        <ele>173.60000610352</ele>
        <time>2012-02-28T14:04:54.000Z</time>
      </trkpt>
      <trkpt lat="48.73308" lon="1.79025">
        <ele>173.80000305176</ele>
        <time>2012-02-28T14:05:03.000Z</time>
      </trkpt>
      <trkpt lat="48.73308" lon="1.79027">
        <ele>173.80000305176</ele>
        <time>2012-02-28T14:05:04.000Z</time>
      </trkpt>
      <trkpt lat="48.73313" lon="1.79034">
        <ele>174</ele>
        <time>2012-02-28T14:05:09.000Z</time>
      </trkpt>
      <trkpt lat="48.73316" lon="1.79043">
        <ele>174.39999389648</ele>
        <time>2012-02-28T14:05:16.000Z</time>
      </trkpt>
      <trkpt lat="48.7332" lon="1.79052">
        <ele>174.60000610352</ele>
        <time>2012-02-28T14:05:23.000Z</time>
      </trkpt>
      <trkpt lat="48.73323" lon="1.7906">
        <ele>175</ele>
        <time>2012-02-28T14:05:29.000Z</time>
      </trkpt>
      <trkpt lat="48.73324" lon="1.79064">
        <ele>175</ele>
        <time>2012-02-28T14:05:32.000Z</time>
      </trkpt>
      <trkpt lat="48.73328" lon="1.79073">
        <ele>175.39999389648</ele>
        <time>2012-02-28T14:05:38.000Z</time>
      </trkpt>
      <trkpt lat="48.7333" lon="1.7908">
        <ele>175.80000305176</ele>
        <time>2012-02-28T14:05:42.000Z</time>
      </trkpt>
      <trkpt lat="48.73331" lon="1.79085">
        <ele>176</ele>
        <time>2012-02-28T14:05:47.000Z</time>
      </trkpt>
      <trkpt lat="48.73335" lon="1.79096">
        <ele>176.80000305176</ele>
        <time>2012-02-28T14:06:01.000Z</time>
      </trkpt>
      <trkpt lat="48.73337" lon="1.79101">
        <ele>177.19999694824</ele>
        <time>2012-02-28T14:06:03.000Z</time>
      </trkpt>
      <trkpt lat="48.73339" lon="1.79107">
        <ele>177.60000610352</ele>
        <time>2012-02-28T14:06:07.000Z</time>
      </trkpt>
      <trkpt lat="48.7334" lon="1.79115">
        <ele>178</ele>
        <time>2012-02-28T14:06:11.000Z</time>
      </trkpt>
      <trkpt lat="48.73345" lon="1.79128">
        <ele>179</ele>
        <time>2012-02-28T14:06:19.000Z</time>
      </trkpt>
      <trkpt lat="48.73349" lon="1.79141">
        <ele>179.60000610352</ele>
        <time>2012-02-28T14:06:26.000Z</time>
      </trkpt>
      <trkpt lat="48.73352" lon="1.79158">
        <ele>180.60000610352</ele>
        <time>2012-02-28T14:06:35.000Z</time>
      </trkpt>
      <trkpt lat="48.73355" lon="1.79165">
        <ele>180.80000305176</ele>
        <time>2012-02-28T14:06:40.000Z</time>
      </trkpt>
      <trkpt lat="48.7336" lon="1.79179">
        <ele>181.60000610352</ele>
        <time>2012-02-28T14:06:49.000Z</time>
      </trkpt>
      <trkpt lat="48.73365" lon="1.7919">
        <ele>182.39999389648</ele>
        <time>2012-02-28T14:06:56.000Z</time>
      </trkpt>
      <trkpt lat="48.73368" lon="1.79199">
        <ele>182.80000305176</ele>
        <time>2012-02-28T14:07:01.000Z</time>
      </trkpt>
      <trkpt lat="48.73375" lon="1.79213">
        <ele>183.39999389648</ele>
        <time>2012-02-28T14:07:11.000Z</time>
      </trkpt>
      <trkpt lat="48.7338" lon="1.79226">
        <ele>184.19999694824</ele>
        <time>2012-02-28T14:07:20.000Z</time>
      </trkpt>
      <trkpt lat="48.7338" lon="1.79229">
        <ele>184.39999389648</ele>
        <time>2012-02-28T14:07:22.000Z</time>
      </trkpt>
      <trkpt lat="48.73382" lon="1.79239">
        <ele>184.80000305176</ele>
        <time>2012-02-28T14:07:29.000Z</time>
      </trkpt>
      <trkpt lat="48.73382" lon="1.79241">
        <ele>185</ele>
        <time>2012-02-28T14:07:30.000Z</time>
      </trkpt>
      <trkpt lat="48.73385" lon="1.79244">
        <ele>185</ele>
        <time>2012-02-28T14:07:32.000Z</time>
      </trkpt>
      <trkpt lat="48.73389" lon="1.7925">
        <ele>185.39999389648</ele>
        <time>2012-02-28T14:07:37.000Z</time>
      </trkpt>
      <trkpt lat="48.7339" lon="1.79256">
        <ele>185.60000610352</ele>
        <time>2012-02-28T14:07:40.000Z</time>
      </trkpt>
      <trkpt lat="48.73397" lon="1.79266">
        <ele>185.80000305176</ele>
        <time>2012-02-28T14:07:48.000Z</time>
      </trkpt>
      <trkpt lat="48.734" lon="1.79277">
        <ele>186.19999694824</ele>
        <time>2012-02-28T14:07:54.000Z</time>
      </trkpt>
      <trkpt lat="48.73407" lon="1.79284">
        <ele>186.60000610352</ele>
        <time>2012-02-28T14:08:01.000Z</time>
      </trkpt>
      <trkpt lat="48.73413" lon="1.79294">
        <ele>187</ele>
        <time>2012-02-28T14:08:08.000Z</time>
      </trkpt>
      <trkpt lat="48.73419" lon="1.79303">
        <ele>187.60000610352</ele>
        <time>2012-02-28T14:08:14.000Z</time>
      </trkpt>
      <trkpt lat="48.73421" lon="1.79305">
        <ele>187.60000610352</ele>
        <time>2012-02-28T14:08:16.000Z</time>
      </trkpt>
      <trkpt lat="48.73429" lon="1.79317">
        <ele>188.19999694824</ele>
        <time>2012-02-28T14:08:26.000Z</time>
      </trkpt>
      <trkpt lat="48.7343" lon="1.79318">
        <ele>188.39999389648</ele>
        <time>2012-02-28T14:08:27.000Z</time>
      </trkpt>
      <trkpt lat="48.73437" lon="1.79328">
        <ele>188.80000305176</ele>
        <time>2012-02-28T14:08:34.000Z</time>
      </trkpt>
      <trkpt lat="48.73446" lon="1.79336">
        <ele>189.19999694824</ele>
        <time>2012-02-28T14:08:42.000Z</time>
      </trkpt>
      <trkpt lat="48.73455" lon="1.79341">
        <ele>189.39999389648</ele>
        <time>2012-02-28T14:08:50.000Z</time>
      </trkpt>
      <trkpt lat="48.73461" lon="1.79345">
        <ele>189.39999389648</ele>
        <time>2012-02-28T14:08:56.000Z</time>
      </trkpt>
      <trkpt lat="48.73468" lon="1.79349">
        <ele>189.60000610352</ele>
        <time>2012-02-28T14:09:02.000Z</time>
      </trkpt>
      <trkpt lat="48.73479" lon="1.79357">
        <ele>190</ele>
        <time>2012-02-28T14:09:12.000Z</time>
      </trkpt>
      <trkpt lat="48.73487" lon="1.79365">
        <ele>190.39999389648</ele>
        <time>2012-02-28T14:09:21.000Z</time>
      </trkpt>
      <trkpt lat="48.73496" lon="1.79371">
        <ele>190.80000305176</ele>
        <time>2012-02-28T14:09:29.000Z</time>
      </trkpt>
      <trkpt lat="48.73503" lon="1.79377">
        <ele>191.19999694824</ele>
        <time>2012-02-28T14:09:36.000Z</time>
      </trkpt>
      <trkpt lat="48.73504" lon="1.79378">
        <ele>191.19999694824</ele>
        <time>2012-02-28T14:09:38.000Z</time>
      </trkpt>
      <trkpt lat="48.73508" lon="1.79381">
        <ele>191.39999389648</ele>
        <time>2012-02-28T14:09:45.000Z</time>
      </trkpt>
      <trkpt lat="48.73515" lon="1.79386">
        <ele>191.60000610352</ele>
        <time>2012-02-28T14:09:52.000Z</time>
      </trkpt>
      <trkpt lat="48.73517" lon="1.79388">
        <ele>191.60000610352</ele>
        <time>2012-02-28T14:09:54.000Z</time>
      </trkpt>
      <trkpt lat="48.73523" lon="1.79395">
        <ele>192</ele>
        <time>2012-02-28T14:10:03.000Z</time>
      </trkpt>
      <trkpt lat="48.73528" lon="1.79397">
        <ele>192</ele>
        <time>2012-02-28T14:10:08.000Z</time>
      </trkpt>
      <trkpt lat="48.73536" lon="1.79403">
        <ele>192.19999694824</ele>
        <time>2012-02-28T14:10:16.000Z</time>
      </trkpt>
      <trkpt lat="48.73539" lon="1.79409">
        <ele>192.19999694824</ele>
        <time>2012-02-28T14:10:22.000Z</time>
      </trkpt>
      <trkpt lat="48.7354" lon="1.79409">
        <ele>192.19999694824</ele>
        <time>2012-02-28T14:10:23.000Z</time>
      </trkpt>
      <trkpt lat="48.73554" lon="1.79424">
        <ele>192.19999694824</ele>
        <time>2012-02-28T14:11:30.000Z</time>
      </trkpt>
      <trkpt lat="48.73558" lon="1.79431">
        <ele>192.19999694824</ele>
        <time>2012-02-28T14:11:34.000Z</time>
      </trkpt>
      <trkpt lat="48.73562" lon="1.79436">
        <ele>192</ele>
        <time>2012-02-28T14:11:38.000Z</time>
      </trkpt>
      <trkpt lat="48.73566" lon="1.79444">
        <ele>192</ele>
        <time>2012-02-28T14:11:44.000Z</time>
      </trkpt>
      <trkpt lat="48.73571" lon="1.79452">
        <ele>191.80000305176</ele>
        <time>2012-02-28T14:11:50.000Z</time>
      </trkpt>
      <trkpt lat="48.73578" lon="1.79461">
        <ele>191.60000610352</ele>
        <time>2012-02-28T14:11:57.000Z</time>
      </trkpt>
      <trkpt lat="48.7358" lon="1.79464">
        <ele>191.39999389648</ele>
        <time>2012-02-28T14:11:59.000Z</time>
      </trkpt>
      <trkpt lat="48.73586" lon="1.79473">
        <ele>191.19999694824</ele>
        <time>2012-02-28T14:12:06.000Z</time>
      </trkpt>
      <trkpt lat="48.73592" lon="1.79482">
        <ele>191.19999694824</ele>
        <time>2012-02-28T14:12:13.000Z</time>
      </trkpt>
      <trkpt lat="48.736" lon="1.79492">
        <ele>190.80000305176</ele>
        <time>2012-02-28T14:12:20.000Z</time>
      </trkpt>
      <trkpt lat="48.73607" lon="1.795">
        <ele>190.80000305176</ele>
        <time>2012-02-28T14:12:26.000Z</time>
      </trkpt>
      <trkpt lat="48.7361" lon="1.79505">
        <ele>190.60000610352</ele>
        <time>2012-02-28T14:12:31.000Z</time>
      </trkpt>
      <trkpt lat="48.7361" lon="1.79505">
        <ele>190.60000610352</ele>
        <time>2012-02-28T14:12:32.000Z</time>
      </trkpt>
      <trkpt lat="48.73615" lon="1.79511">
        <ele>190.60000610352</ele>
        <time>2012-02-28T14:12:41.000Z</time>
      </trkpt>
      <trkpt lat="48.73624" lon="1.79521">
        <ele>190.60000610352</ele>
        <time>2012-02-28T14:12:48.000Z</time>
      </trkpt>
      <trkpt lat="48.73633" lon="1.79534">
        <ele>190.39999389648</ele>
        <time>2012-02-28T14:12:57.000Z</time>
      </trkpt>
      <trkpt lat="48.73638" lon="1.79544">
        <ele>190.39999389648</ele>
        <time>2012-02-28T14:13:04.000Z</time>
      </trkpt>
      <trkpt lat="48.73644" lon="1.79553">
        <ele>190.19999694824</ele>
        <time>2012-02-28T14:13:12.000Z</time>
      </trkpt>
      <trkpt lat="48.73646" lon="1.79556">
        <ele>190.19999694824</ele>
        <time>2012-02-28T14:13:16.000Z</time>
      </trkpt>
      <trkpt lat="48.73652" lon="1.79563">
        <ele>190.19999694824</ele>
        <time>2012-02-28T14:13:22.000Z</time>
      </trkpt>
      <trkpt lat="48.73653" lon="1.79564">
        <ele>190.19999694824</ele>
        <time>2012-02-28T14:13:23.000Z</time>
      </trkpt>
      <trkpt lat="48.7366" lon="1.79572">
        <ele>190</ele>
        <time>2012-02-28T14:13:29.000Z</time>
      </trkpt>
      <trkpt lat="48.73667" lon="1.79581">
        <ele>190</ele>
        <time>2012-02-28T14:13:36.000Z</time>
      </trkpt>
      <trkpt lat="48.73676" lon="1.79592">
        <ele>190.39999389648</ele>
        <time>2012-02-28T14:13:45.000Z</time>
      </trkpt>
      <trkpt lat="48.73684" lon="1.79602">
        <ele>190.60000610352</ele>
        <time>2012-02-28T14:13:53.000Z</time>
      </trkpt>
      <trkpt lat="48.73692" lon="1.79612">
        <ele>190.80000305176</ele>
        <time>2012-02-28T14:14:01.000Z</time>
      </trkpt>
      <trkpt lat="48.73701" lon="1.79624">
        <ele>191</ele>
        <time>2012-02-28T14:14:09.000Z</time>
      </trkpt>
      <trkpt lat="48.7371" lon="1.79638">
        <ele>191.19999694824</ele>
        <time>2012-02-28T14:14:20.000Z</time>
      </trkpt>
      <trkpt lat="48.73721" lon="1.79653">
        <ele>191.39999389648</ele>
        <time>2012-02-28T14:14:31.000Z</time>
      </trkpt>
      <trkpt lat="48.7373" lon="1.79665">
        <ele>191.60000610352</ele>
        <time>2012-02-28T14:14:40.000Z</time>
      </trkpt>
      <trkpt lat="48.7374" lon="1.79676">
        <ele>191.60000610352</ele>
        <time>2012-02-28T14:14:49.000Z</time>
      </trkpt>
      <trkpt lat="48.73747" lon="1.79684">
        <ele>191.80000305176</ele>
        <time>2012-02-28T14:14:58.000Z</time>
      </trkpt>
      <trkpt lat="48.73752" lon="1.79691">
        <ele>191.80000305176</ele>
        <time>2012-02-28T14:15:05.000Z</time>
      </trkpt>
      <trkpt lat="48.7376" lon="1.79699">
        <ele>192</ele>
        <time>2012-02-28T14:15:12.000Z</time>
      </trkpt>
      <trkpt lat="48.73768" lon="1.79707">
        <ele>192.19999694824</ele>
        <time>2012-02-28T14:15:19.000Z</time>
      </trkpt>
      <trkpt lat="48.73774" lon="1.79715">
        <ele>192.39999389648</ele>
        <time>2012-02-28T14:15:25.000Z</time>
      </trkpt>
      <trkpt lat="48.73781" lon="1.79724">
        <ele>192.60000610352</ele>
        <time>2012-02-28T14:15:32.000Z</time>
      </trkpt>
      <trkpt lat="48.73788" lon="1.79734">
        <ele>192.60000610352</ele>
        <time>2012-02-28T14:15:39.000Z</time>
      </trkpt>
      <trkpt lat="48.73793" lon="1.79739">
        <ele>192.80000305176</ele>
        <time>2012-02-28T14:15:43.000Z</time>
      </trkpt>
      <trkpt lat="48.73797" lon="1.79744">
        <ele>192.80000305176</ele>
        <time>2012-02-28T14:15:48.000Z</time>
      </trkpt>
      <trkpt lat="48.73805" lon="1.79757">
        <ele>192.80000305176</ele>
        <time>2012-02-28T14:15:57.000Z</time>
      </trkpt>
      <trkpt lat="48.7381" lon="1.79765">
        <ele>192.60000610352</ele>
        <time>2012-02-28T14:16:03.000Z</time>
      </trkpt>
      <trkpt lat="48.73817" lon="1.79773">
        <ele>192.60000610352</ele>
        <time>2012-02-28T14:16:10.000Z</time>
      </trkpt>
      <trkpt lat="48.73818" lon="1.79775">
        <ele>192.60000610352</ele>
        <time>2012-02-28T14:16:11.000Z</time>
      </trkpt>
      <trkpt lat="48.73829" lon="1.79792">
        <ele>192.39999389648</ele>
        <time>2012-02-28T14:16:22.000Z</time>
      </trkpt>
      <trkpt lat="48.73837" lon="1.79801">
        <ele>192.19999694824</ele>
        <time>2012-02-28T14:16:30.000Z</time>
      </trkpt>
      <trkpt lat="48.73839" lon="1.79804">
        <ele>192.19999694824</ele>
        <time>2012-02-28T14:16:32.000Z</time>
      </trkpt>
      <trkpt lat="48.73847" lon="1.79811">
        <ele>192.19999694824</ele>
        <time>2012-02-28T14:16:39.000Z</time>
      </trkpt>
      <trkpt lat="48.73856" lon="1.79822">
        <ele>192</ele>
        <time>2012-02-28T14:16:45.000Z</time>
      </trkpt>
      <trkpt lat="48.73864" lon="1.79832">
        <ele>191.80000305176</ele>
        <time>2012-02-28T14:16:52.000Z</time>
      </trkpt>
      <trkpt lat="48.73871" lon="1.79841">
        <ele>191.80000305176</ele>
        <time>2012-02-28T14:16:58.000Z</time>
      </trkpt>
      <trkpt lat="48.73875" lon="1.79851">
        <ele>191.80000305176</ele>
        <time>2012-02-28T14:17:05.000Z</time>
      </trkpt>
      <trkpt lat="48.7388" lon="1.7986">
        <ele>191.80000305176</ele>
        <time>2012-02-28T14:17:11.000Z</time>
      </trkpt>
      <trkpt lat="48.73885" lon="1.79865">
        <ele>191.80000305176</ele>
        <time>2012-02-28T14:17:15.000Z</time>
      </trkpt>
      <trkpt lat="48.73892" lon="1.79877">
        <ele>191.80000305176</ele>
        <time>2012-02-28T14:17:25.000Z</time>
      </trkpt>
      <trkpt lat="48.73901" lon="1.79888">
        <ele>192</ele>
        <time>2012-02-28T14:17:33.000Z</time>
      </trkpt>
      <trkpt lat="48.73907" lon="1.79897">
        <ele>192</ele>
        <time>2012-02-28T14:17:40.000Z</time>
      </trkpt>
      <trkpt lat="48.73908" lon="1.79899">
        <ele>192</ele>
        <time>2012-02-28T14:17:41.000Z</time>
      </trkpt>
      <trkpt lat="48.73914" lon="1.79906">
        <ele>192</ele>
        <time>2012-02-28T14:17:47.000Z</time>
      </trkpt>
      <trkpt lat="48.73917" lon="1.7991">
        <ele>192</ele>
        <time>2012-02-28T14:17:50.000Z</time>
      </trkpt>
      <trkpt lat="48.73917" lon="1.79914">
        <ele>192</ele>
        <time>2012-02-28T14:17:54.000Z</time>
      </trkpt>
      <trkpt lat="48.73922" lon="1.79919">
        <ele>192.19999694824</ele>
        <time>2012-02-28T14:17:58.000Z</time>
      </trkpt>
      <trkpt lat="48.73927" lon="1.79924">
        <ele>192.19999694824</ele>
        <time>2012-02-28T14:18:02.000Z</time>
      </trkpt>
      <trkpt lat="48.73937" lon="1.79933">
        <ele>192.39999389648</ele>
        <time>2012-02-28T14:18:09.000Z</time>
      </trkpt>
      <trkpt lat="48.73937" lon="1.79934">
        <ele>192.39999389648</ele>
        <time>2012-02-28T14:18:10.000Z</time>
      </trkpt>
      <trkpt lat="48.73944" lon="1.79946">
        <ele>192.60000610352</ele>
        <time>2012-02-28T14:18:18.000Z</time>
      </trkpt>
      <trkpt lat="48.73947" lon="1.79951">
        <ele>192.60000610352</ele>
        <time>2012-02-28T14:18:21.000Z</time>
      </trkpt>
      <trkpt lat="48.73951" lon="1.79956">
        <ele>192.60000610352</ele>
        <time>2012-02-28T14:18:25.000Z</time>
      </trkpt>
      <trkpt lat="48.73956" lon="1.79963">
        <ele>192.60000610352</ele>
        <time>2012-02-28T14:18:32.000Z</time>
      </trkpt>
      <trkpt lat="48.7396" lon="1.79968">
        <ele>192.60000610352</ele>
        <time>2012-02-28T14:18:40.000Z</time>
      </trkpt>
      <trkpt lat="48.73968" lon="1.79979">
        <ele>192.60000610352</ele>
        <time>2012-02-28T14:18:47.000Z</time>
      </trkpt>
      <trkpt lat="48.73975" lon="1.79992">
        <ele>192.60000610352</ele>
        <time>2012-02-28T14:18:55.000Z</time>
      </trkpt>
      <trkpt lat="48.73981" lon="1.80001">
        <ele>192.60000610352</ele>
        <time>2012-02-28T14:19:01.000Z</time>
      </trkpt>
      <trkpt lat="48.7399" lon="1.80011">
        <ele>192.39999389648</ele>
        <time>2012-02-28T14:19:08.000Z</time>
      </trkpt>
      <trkpt lat="48.73996" lon="1.8002">
        <ele>192.19999694824</ele>
        <time>2012-02-28T14:19:15.000Z</time>
      </trkpt>
      <trkpt lat="48.74005" lon="1.8003">
        <ele>192</ele>
        <time>2012-02-28T14:19:24.000Z</time>
      </trkpt>
      <trkpt lat="48.74011" lon="1.80034">
        <ele>192.19999694824</ele>
        <time>2012-02-28T14:19:30.000Z</time>
      </trkpt>
      <trkpt lat="48.74017" lon="1.80039">
        <ele>192</ele>
        <time>2012-02-28T14:19:36.000Z</time>
      </trkpt>
      <trkpt lat="48.74025" lon="1.80057">
        <ele>191.80000305176</ele>
        <time>2012-02-28T14:19:45.000Z</time>
      </trkpt>
      <trkpt lat="48.74032" lon="1.80065">
        <ele>191.80000305176</ele>
        <time>2012-02-28T14:19:52.000Z</time>
      </trkpt>
      <trkpt lat="48.74041" lon="1.80068">
        <ele>192</ele>
        <time>2012-02-28T14:19:59.000Z</time>
      </trkpt>
      <trkpt lat="48.74042" lon="1.80068">
        <ele>192</ele>
        <time>2012-02-28T14:20:00.000Z</time>
      </trkpt>
      <trkpt lat="48.74052" lon="1.80065">
        <ele>192.39999389648</ele>
        <time>2012-02-28T14:20:08.000Z</time>
      </trkpt>
      <trkpt lat="48.74063" lon="1.80071">
        <ele>192.60000610352</ele>
        <time>2012-02-28T14:20:17.000Z</time>
      </trkpt>
      <trkpt lat="48.74068" lon="1.80077">
        <ele>192.60000610352</ele>
        <time>2012-02-28T14:20:21.000Z</time>
      </trkpt>
      <trkpt lat="48.74074" lon="1.80086">
        <ele>192.60000610352</ele>
        <time>2012-02-28T14:20:28.000Z</time>
      </trkpt>
      <trkpt lat="48.74081" lon="1.80093">
        <ele>192.60000610352</ele>
        <time>2012-02-28T14:20:34.000Z</time>
      </trkpt>
      <trkpt lat="48.74083" lon="1.80096">
        <ele>192.60000610352</ele>
        <time>2012-02-28T14:20:36.000Z</time>
      </trkpt>
      <trkpt lat="48.7409" lon="1.80102">
        <ele>192.80000305176</ele>
        <time>2012-02-28T14:20:43.000Z</time>
      </trkpt>
      <trkpt lat="48.74092" lon="1.80107">
        <ele>192.60000610352</ele>
        <time>2012-02-28T14:20:47.000Z</time>
      </trkpt>
      <trkpt lat="48.74096" lon="1.80114">
        <ele>192.60000610352</ele>
        <time>2012-02-28T14:20:53.000Z</time>
      </trkpt>
      <trkpt lat="48.74101" lon="1.80127">
        <ele>192.39999389648</ele>
        <time>2012-02-28T14:21:00.000Z</time>
      </trkpt>
      <trkpt lat="48.74109" lon="1.80137">
        <ele>192.60000610352</ele>
        <time>2012-02-28T14:21:06.000Z</time>
      </trkpt>
      <trkpt lat="48.74115" lon="1.80143">
        <ele>192.60000610352</ele>
        <time>2012-02-28T14:21:11.000Z</time>
      </trkpt>
      <trkpt lat="48.74118" lon="1.80146">
        <ele>192.60000610352</ele>
        <time>2012-02-28T14:21:14.000Z</time>
      </trkpt>
      <trkpt lat="48.74125" lon="1.80155">
        <ele>192.80000305176</ele>
        <time>2012-02-28T14:21:21.000Z</time>
      </trkpt>
      <trkpt lat="48.74131" lon="1.80162">
        <ele>192.80000305176</ele>
        <time>2012-02-28T14:21:27.000Z</time>
      </trkpt>
      <trkpt lat="48.74136" lon="1.80167">
        <ele>192.80000305176</ele>
        <time>2012-02-28T14:21:31.000Z</time>
      </trkpt>
      <trkpt lat="48.74147" lon="1.80174">
        <ele>193.19999694824</ele>
        <time>2012-02-28T14:21:39.000Z</time>
      </trkpt>
      <trkpt lat="48.74154" lon="1.80183">
        <ele>193.39999389648</ele>
        <time>2012-02-28T14:21:46.000Z</time>
      </trkpt>
      <trkpt lat="48.74159" lon="1.80189">
        <ele>193.60000610352</ele>
        <time>2012-02-28T14:21:51.000Z</time>
      </trkpt>
      <trkpt lat="48.74166" lon="1.80197">
        <ele>194</ele>
        <time>2012-02-28T14:21:58.000Z</time>
      </trkpt>
      <trkpt lat="48.74175" lon="1.80204">
        <ele>194</ele>
        <time>2012-02-28T14:22:04.000Z</time>
      </trkpt>
      <trkpt lat="48.74176" lon="1.80205">
        <ele>194</ele>
        <time>2012-02-28T14:22:05.000Z</time>
      </trkpt>
      <trkpt lat="48.74179" lon="1.80208">
        <ele>194</ele>
        <time>2012-02-28T14:22:07.000Z</time>
      </trkpt>
      <trkpt lat="48.74187" lon="1.80217">
        <ele>194</ele>
        <time>2012-02-28T14:22:14.000Z</time>
      </trkpt>
      <trkpt lat="48.74193" lon="1.8022">
        <ele>194</ele>
        <time>2012-02-28T14:22:19.000Z</time>
      </trkpt>
      <trkpt lat="48.74203" lon="1.80225">
        <ele>194</ele>
        <time>2012-02-28T14:22:26.000Z</time>
      </trkpt>
      <trkpt lat="48.74205" lon="1.80227">
        <ele>194</ele>
        <time>2012-02-28T14:22:28.000Z</time>
      </trkpt>
      <trkpt lat="48.74206" lon="1.80228">
        <ele>194</ele>
        <time>2012-02-28T14:22:33.000Z</time>
      </trkpt>
      <trkpt lat="48.74214" lon="1.80235">
        <ele>194</ele>
        <time>2012-02-28T14:22:43.000Z</time>
      </trkpt>
      <trkpt lat="48.7422" lon="1.80243">
        <ele>194</ele>
        <time>2012-02-28T14:22:47.000Z</time>
      </trkpt>
      <trkpt lat="48.74229" lon="1.80252">
        <ele>194</ele>
        <time>2012-02-28T14:22:54.000Z</time>
      </trkpt>
      <trkpt lat="48.74231" lon="1.80253">
        <ele>193.80000305176</ele>
        <time>2012-02-28T14:22:56.000Z</time>
      </trkpt>
      <trkpt lat="48.74236" lon="1.80261">
        <ele>193.60000610352</ele>
        <time>2012-02-28T14:23:02.000Z</time>
      </trkpt>
      <trkpt lat="48.74242" lon="1.80267">
        <ele>193.60000610352</ele>
        <time>2012-02-28T14:23:07.000Z</time>
      </trkpt>
      <trkpt lat="48.74253" lon="1.80276">
        <ele>193.39999389648</ele>
        <time>2012-02-28T14:23:16.000Z</time>
      </trkpt>
      <trkpt lat="48.74263" lon="1.80285">
        <ele>193</ele>
        <time>2012-02-28T14:23:26.000Z</time>
      </trkpt>
      <trkpt lat="48.74269" lon="1.80292">
        <ele>192.80000305176</ele>
        <time>2012-02-28T14:23:31.000Z</time>
      </trkpt>
      <trkpt lat="48.74271" lon="1.80295">
        <ele>192.80000305176</ele>
        <time>2012-02-28T14:23:33.000Z</time>
      </trkpt>
      <trkpt lat="48.74277" lon="1.80303">
        <ele>192.60000610352</ele>
        <time>2012-02-28T14:23:39.000Z</time>
      </trkpt>
      <trkpt lat="48.74283" lon="1.8031">
        <ele>192.60000610352</ele>
        <time>2012-02-28T14:23:44.000Z</time>
      </trkpt>
      <trkpt lat="48.74289" lon="1.80316">
        <ele>192.60000610352</ele>
        <time>2012-02-28T14:23:49.000Z</time>
      </trkpt>
      <trkpt lat="48.74299" lon="1.80325">
        <ele>192.60000610352</ele>
        <time>2012-02-28T14:23:56.000Z</time>
      </trkpt>
      <trkpt lat="48.74307" lon="1.80333">
        <ele>192.60000610352</ele>
        <time>2012-02-28T14:24:02.000Z</time>
      </trkpt>
      <trkpt lat="48.74316" lon="1.80339">
        <ele>192.80000305176</ele>
        <time>2012-02-28T14:24:08.000Z</time>
      </trkpt>
      <trkpt lat="48.74318" lon="1.80342">
        <ele>192.80000305176</ele>
        <time>2012-02-28T14:24:10.000Z</time>
      </trkpt>
      <trkpt lat="48.74322" lon="1.80343">
        <ele>192.80000305176</ele>
        <time>2012-02-28T14:24:14.000Z</time>
      </trkpt>
      <trkpt lat="48.74326" lon="1.80344">
        <ele>192.80000305176</ele>
        <time>2012-02-28T14:24:17.000Z</time>
      </trkpt>
      <trkpt lat="48.74334" lon="1.80348">
        <ele>193</ele>
        <time>2012-02-28T14:24:23.000Z</time>
      </trkpt>
      <trkpt lat="48.7434" lon="1.80353">
        <ele>193</ele>
        <time>2012-02-28T14:24:28.000Z</time>
      </trkpt>
      <trkpt lat="48.74348" lon="1.8036">
        <ele>192.80000305176</ele>
        <time>2012-02-28T14:24:34.000Z</time>
      </trkpt>
      <trkpt lat="48.74358" lon="1.80366">
        <ele>192.80000305176</ele>
        <time>2012-02-28T14:24:41.000Z</time>
      </trkpt>
      <trkpt lat="48.74365" lon="1.80374">
        <ele>192.80000305176</ele>
        <time>2012-02-28T14:24:49.000Z</time>
      </trkpt>
      <trkpt lat="48.74373" lon="1.80385">
        <ele>192.80000305176</ele>
        <time>2012-02-28T14:24:57.000Z</time>
      </trkpt>
      <trkpt lat="48.74376" lon="1.80391">
        <ele>192.80000305176</ele>
        <time>2012-02-28T14:25:02.000Z</time>
      </trkpt>
      <trkpt lat="48.74378" lon="1.80394">
        <ele>192.80000305176</ele>
        <time>2012-02-28T14:25:04.000Z</time>
      </trkpt>
      <trkpt lat="48.74384" lon="1.80403">
        <ele>193</ele>
        <time>2012-02-28T14:25:10.000Z</time>
      </trkpt>
      <trkpt lat="48.7439" lon="1.80411">
        <ele>193</ele>
        <time>2012-02-28T14:25:15.000Z</time>
      </trkpt>
      <trkpt lat="48.74394" lon="1.80417">
        <ele>193</ele>
        <time>2012-02-28T14:25:19.000Z</time>
      </trkpt>
      <trkpt lat="48.74401" lon="1.8043">
        <ele>193</ele>
        <time>2012-02-28T14:25:26.000Z</time>
      </trkpt>
      <trkpt lat="48.74408" lon="1.80448">
        <ele>192.80000305176</ele>
        <time>2012-02-28T14:25:35.000Z</time>
      </trkpt>
      <trkpt lat="48.74416" lon="1.80458">
        <ele>193</ele>
        <time>2012-02-28T14:25:41.000Z</time>
      </trkpt>
      <trkpt lat="48.7442" lon="1.80465">
        <ele>193</ele>
        <time>2012-02-28T14:25:47.000Z</time>
      </trkpt>
      <trkpt lat="48.74424" lon="1.80469">
        <ele>193</ele>
        <time>2012-02-28T14:25:54.000Z</time>
      </trkpt>
      <trkpt lat="48.7443" lon="1.80476">
        <ele>193.19999694824</ele>
        <time>2012-02-28T14:26:01.000Z</time>
      </trkpt>
      <trkpt lat="48.74438" lon="1.80484">
        <ele>193.19999694824</ele>
        <time>2012-02-28T14:26:09.000Z</time>
      </trkpt>
      <trkpt lat="48.74442" lon="1.80495">
        <ele>193.39999389648</ele>
        <time>2012-02-28T14:26:16.000Z</time>
      </trkpt>
      <trkpt lat="48.74444" lon="1.80507">
        <ele>193.19999694824</ele>
        <time>2012-02-28T14:26:22.000Z</time>
      </trkpt>
      <trkpt lat="48.74449" lon="1.80521">
        <ele>193</ele>
        <time>2012-02-28T14:26:29.000Z</time>
      </trkpt>
      <trkpt lat="48.74456" lon="1.80537">
        <ele>192.80000305176</ele>
        <time>2012-02-28T14:26:37.000Z</time>
      </trkpt>
      <trkpt lat="48.74459" lon="1.80542">
        <ele>192.80000305176</ele>
        <time>2012-02-28T14:26:39.000Z</time>
      </trkpt>
      <trkpt lat="48.74464" lon="1.80552">
        <ele>192.60000610352</ele>
        <time>2012-02-28T14:26:44.000Z</time>
      </trkpt>
      <trkpt lat="48.7447" lon="1.80564">
        <ele>192.60000610352</ele>
        <time>2012-02-28T14:26:50.000Z</time>
      </trkpt>
      <trkpt lat="48.74473" lon="1.80571">
        <ele>192.60000610352</ele>
        <time>2012-02-28T14:26:56.000Z</time>
      </trkpt>
      <trkpt lat="48.74478" lon="1.80583">
        <ele>192.39999389648</ele>
        <time>2012-02-28T14:27:10.000Z</time>
      </trkpt>
      <trkpt lat="48.74484" lon="1.80593">
        <ele>192.39999389648</ele>
        <time>2012-02-28T14:27:16.000Z</time>
      </trkpt>
      <trkpt lat="48.7449" lon="1.80601">
        <ele>192.60000610352</ele>
        <time>2012-02-28T14:27:22.000Z</time>
      </trkpt>
      <trkpt lat="48.74493" lon="1.80611">
        <ele>192.39999389648</ele>
        <time>2012-02-28T14:27:28.000Z</time>
      </trkpt>
      <trkpt lat="48.74493" lon="1.80615">
        <ele>192.39999389648</ele>
        <time>2012-02-28T14:27:30.000Z</time>
      </trkpt>
      <trkpt lat="48.74492" lon="1.80621">
        <ele>192.19999694824</ele>
        <time>2012-02-28T14:27:35.000Z</time>
      </trkpt>
      <trkpt lat="48.74492" lon="1.80637">
        <ele>192</ele>
        <time>2012-02-28T14:27:42.000Z</time>
      </trkpt>
      <trkpt lat="48.74492" lon="1.80639">
        <ele>192</ele>
        <time>2012-02-28T14:27:43.000Z</time>
      </trkpt>
      <trkpt lat="48.74494" lon="1.80653">
        <ele>192</ele>
        <time>2012-02-28T14:27:50.000Z</time>
      </trkpt>
      <trkpt lat="48.74496" lon="1.8066">
        <ele>192</ele>
        <time>2012-02-28T14:27:54.000Z</time>
      </trkpt>
      <trkpt lat="48.74497" lon="1.80666">
        <ele>191.80000305176</ele>
        <time>2012-02-28T14:28:00.000Z</time>
      </trkpt>
      <trkpt lat="48.74497" lon="1.80666">
        <ele>191.80000305176</ele>
        <time>2012-02-28T14:28:01.000Z</time>
      </trkpt>
      <trkpt lat="48.74499" lon="1.80675">
        <ele>192</ele>
        <time>2012-02-28T14:28:16.000Z</time>
      </trkpt>
      <trkpt lat="48.74502" lon="1.80685">
        <ele>192</ele>
        <time>2012-02-28T14:28:21.000Z</time>
      </trkpt>
      <trkpt lat="48.74505" lon="1.80687">
        <ele>191.80000305176</ele>
        <time>2012-02-28T14:28:23.000Z</time>
      </trkpt>
      <trkpt lat="48.7451" lon="1.80694">
        <ele>191.80000305176</ele>
        <time>2012-02-28T14:28:28.000Z</time>
      </trkpt>
      <trkpt lat="48.74517" lon="1.80706">
        <ele>191.60000610352</ele>
        <time>2012-02-28T14:28:37.000Z</time>
      </trkpt>
      <trkpt lat="48.7452" lon="1.80708">
        <ele>191.60000610352</ele>
        <time>2012-02-28T14:28:39.000Z</time>
      </trkpt>
      <trkpt lat="48.74524" lon="1.8071">
        <ele>191.39999389648</ele>
        <time>2012-02-28T14:28:43.000Z</time>
      </trkpt>
      <trkpt lat="48.74532" lon="1.80717">
        <ele>191.39999389648</ele>
        <time>2012-02-28T14:28:51.000Z</time>
      </trkpt>
      <trkpt lat="48.74538" lon="1.80724">
        <ele>191.19999694824</ele>
        <time>2012-02-28T14:28:57.000Z</time>
      </trkpt>
      <trkpt lat="48.74545" lon="1.80734">
        <ele>191.19999694824</ele>
        <time>2012-02-28T14:29:04.000Z</time>
      </trkpt>
      <trkpt lat="48.74554" lon="1.80744">
        <ele>191.19999694824</ele>
        <time>2012-02-28T14:29:12.000Z</time>
      </trkpt>
      <trkpt lat="48.74563" lon="1.80754">
        <ele>191.39999389648</ele>
        <time>2012-02-28T14:29:20.000Z</time>
      </trkpt>
      <trkpt lat="48.74568" lon="1.80763">
        <ele>191.60000610352</ele>
        <time>2012-02-28T14:29:27.000Z</time>
      </trkpt>
      <trkpt lat="48.74574" lon="1.80771">
        <ele>191.80000305176</ele>
        <time>2012-02-28T14:29:32.000Z</time>
      </trkpt>
      <trkpt lat="48.74577" lon="1.80776">
        <ele>192</ele>
        <time>2012-02-28T14:29:35.000Z</time>
      </trkpt>
      <trkpt lat="48.74583" lon="1.80783">
        <ele>192.19999694824</ele>
        <time>2012-02-28T14:29:41.000Z</time>
      </trkpt>
      <trkpt lat="48.74591" lon="1.80792">
        <ele>192</ele>
        <time>2012-02-28T14:29:48.000Z</time>
      </trkpt>
      <trkpt lat="48.74596" lon="1.808">
        <ele>192</ele>
        <time>2012-02-28T14:29:54.000Z</time>
      </trkpt>
      <trkpt lat="48.74603" lon="1.8081">
        <ele>191.80000305176</ele>
        <time>2012-02-28T14:30:01.000Z</time>
      </trkpt>
      <trkpt lat="48.7461" lon="1.80819">
        <ele>191.60000610352</ele>
        <time>2012-02-28T14:30:08.000Z</time>
      </trkpt>
      <trkpt lat="48.74617" lon="1.80829">
        <ele>191.39999389648</ele>
        <time>2012-02-28T14:30:14.000Z</time>
      </trkpt>
      <trkpt lat="48.74624" lon="1.80836">
        <ele>191</ele>
        <time>2012-02-28T14:30:20.000Z</time>
      </trkpt>
      <trkpt lat="48.74629" lon="1.80842">
        <ele>190.80000305176</ele>
        <time>2012-02-28T14:30:24.000Z</time>
      </trkpt>
      <trkpt lat="48.74635" lon="1.8085">
        <ele>190.19999694824</ele>
        <time>2012-02-28T14:30:29.000Z</time>
      </trkpt>
      <trkpt lat="48.74639" lon="1.80856">
        <ele>190</ele>
        <time>2012-02-28T14:30:34.000Z</time>
      </trkpt>
      <trkpt lat="48.74646" lon="1.80866">
        <ele>189.39999389648</ele>
        <time>2012-02-28T14:30:42.000Z</time>
      </trkpt>
      <trkpt lat="48.74652" lon="1.80876">
        <ele>189</ele>
        <time>2012-02-28T14:30:49.000Z</time>
      </trkpt>
      <trkpt lat="48.74662" lon="1.80889">
        <ele>188.39999389648</ele>
        <time>2012-02-28T14:30:58.000Z</time>
      </trkpt>
      <trkpt lat="48.74668" lon="1.80898">
        <ele>188</ele>
        <time>2012-02-28T14:31:04.000Z</time>
      </trkpt>
      <trkpt lat="48.74677" lon="1.8091">
        <ele>187</ele>
        <time>2012-02-28T14:31:13.000Z</time>
      </trkpt>
      <trkpt lat="48.74683" lon="1.80924">
        <ele>186.19999694824</ele>
        <time>2012-02-28T14:31:21.000Z</time>
      </trkpt>
      <trkpt lat="48.74687" lon="1.80935">
        <ele>185.60000610352</ele>
        <time>2012-02-28T14:31:27.000Z</time>
      </trkpt>
      <trkpt lat="48.74694" lon="1.8095">
        <ele>184.80000305176</ele>
        <time>2012-02-28T14:31:36.000Z</time>
      </trkpt>
      <trkpt lat="48.74702" lon="1.80961">
        <ele>184.19999694824</ele>
        <time>2012-02-28T14:31:44.000Z</time>
      </trkpt>
      <trkpt lat="48.7471" lon="1.80975">
        <ele>183.60000610352</ele>
        <time>2012-02-28T14:31:52.000Z</time>
      </trkpt>
      <trkpt lat="48.74712" lon="1.80982">
        <ele>183.39999389648</ele>
        <time>2012-02-28T14:31:56.000Z</time>
      </trkpt>
      <trkpt lat="48.74715" lon="1.80995">
        <ele>183.19999694824</ele>
        <time>2012-02-28T14:32:04.000Z</time>
      </trkpt>
      <trkpt lat="48.74717" lon="1.81">
        <ele>183.19999694824</ele>
        <time>2012-02-28T14:32:07.000Z</time>
      </trkpt>
      <trkpt lat="48.74724" lon="1.81015">
        <ele>183.60000610352</ele>
        <time>2012-02-28T14:32:16.000Z</time>
      </trkpt>
      <trkpt lat="48.74726" lon="1.81018">
        <ele>183.60000610352</ele>
        <time>2012-02-28T14:32:18.000Z</time>
      </trkpt>
      <trkpt lat="48.74733" lon="1.81031">
        <ele>184</ele>
        <time>2012-02-28T14:32:28.000Z</time>
      </trkpt>
      <trkpt lat="48.74737" lon="1.81038">
        <ele>184.19999694824</ele>
        <time>2012-02-28T14:32:33.000Z</time>
      </trkpt>
      <trkpt lat="48.74742" lon="1.81049">
        <ele>184.60000610352</ele>
        <time>2012-02-28T14:32:41.000Z</time>
      </trkpt>
      <trkpt lat="48.74747" lon="1.81056">
        <ele>184.80000305176</ele>
        <time>2012-02-28T14:32:46.000Z</time>
      </trkpt>
      <trkpt lat="48.74748" lon="1.81058">
        <ele>184.80000305176</ele>
        <time>2012-02-28T14:32:47.000Z</time>
      </trkpt>
      <trkpt lat="48.7476" lon="1.81068">
        <ele>184.39999389648</ele>
        <time>2012-02-28T14:32:54.000Z</time>
      </trkpt>
      <trkpt lat="48.74762" lon="1.81071">
        <ele>184.39999389648</ele>
        <time>2012-02-28T14:32:56.000Z</time>
      </trkpt>
      <trkpt lat="48.74769" lon="1.81084">
        <ele>184.39999389648</ele>
        <time>2012-02-28T14:33:03.000Z</time>
      </trkpt>
      <trkpt lat="48.74777" lon="1.81098">
        <ele>184.19999694824</ele>
        <time>2012-02-28T14:33:12.000Z</time>
      </trkpt>
      <trkpt lat="48.74786" lon="1.81106">
        <ele>183.80000305176</ele>
        <time>2012-02-28T14:33:18.000Z</time>
      </trkpt>
      <trkpt lat="48.74793" lon="1.81113">
        <ele>183.19999694824</ele>
        <time>2012-02-28T14:33:25.000Z</time>
      </trkpt>
      <trkpt lat="48.74802" lon="1.81119">
        <ele>182.60000610352</ele>
        <time>2012-02-28T14:33:32.000Z</time>
      </trkpt>
      <trkpt lat="48.74811" lon="1.81128">
        <ele>182.19999694824</ele>
        <time>2012-02-28T14:33:39.000Z</time>
      </trkpt>
      <trkpt lat="48.74818" lon="1.81137">
        <ele>181.60000610352</ele>
        <time>2012-02-28T14:33:45.000Z</time>
      </trkpt>
      <trkpt lat="48.74829" lon="1.81149">
        <ele>181</ele>
        <time>2012-02-28T14:33:54.000Z</time>
      </trkpt>
      <trkpt lat="48.74835" lon="1.81156">
        <ele>180.60000610352</ele>
        <time>2012-02-28T14:33:59.000Z</time>
      </trkpt>
      <trkpt lat="48.74842" lon="1.81167">
        <ele>180.60000610352</ele>
        <time>2012-02-28T14:34:07.000Z</time>
      </trkpt>
      <trkpt lat="48.74845" lon="1.81171">
        <ele>180.60000610352</ele>
        <time>2012-02-28T14:34:10.000Z</time>
      </trkpt>
      <trkpt lat="48.74852" lon="1.81174">
        <ele>180.39999389648</ele>
        <time>2012-02-28T14:34:15.000Z</time>
      </trkpt>
      <trkpt lat="48.74859" lon="1.81179">
        <ele>180.39999389648</ele>
        <time>2012-02-28T14:34:21.000Z</time>
      </trkpt>
      <trkpt lat="48.74862" lon="1.81186">
        <ele>180.39999389648</ele>
        <time>2012-02-28T14:34:26.000Z</time>
      </trkpt>
      <trkpt lat="48.74862" lon="1.81187">
        <ele>180.39999389648</ele>
        <time>2012-02-28T14:34:27.000Z</time>
      </trkpt>
      <trkpt lat="48.74866" lon="1.81192">
        <ele>180.39999389648</ele>
        <time>2012-02-28T14:34:31.000Z</time>
      </trkpt>
      <trkpt lat="48.74871" lon="1.81196">
        <ele>180.19999694824</ele>
        <time>2012-02-28T14:34:35.000Z</time>
      </trkpt>
      <trkpt lat="48.74874" lon="1.81201">
        <ele>180.19999694824</ele>
        <time>2012-02-28T14:34:39.000Z</time>
      </trkpt>
      <trkpt lat="48.74876" lon="1.81204">
        <ele>180.19999694824</ele>
        <time>2012-02-28T14:34:44.000Z</time>
      </trkpt>
      <trkpt lat="48.74885" lon="1.81213">
        <ele>180</ele>
        <time>2012-02-28T14:35:07.000Z</time>
      </trkpt>
      <trkpt lat="48.7489" lon="1.81219">
        <ele>179.80000305176</ele>
        <time>2012-02-28T14:35:11.000Z</time>
      </trkpt>
      <trkpt lat="48.74892" lon="1.81222">
        <ele>179.80000305176</ele>
        <time>2012-02-28T14:35:14.000Z</time>
      </trkpt>
      <trkpt lat="48.74895" lon="1.8122">
        <ele>179.60000610352</ele>
        <time>2012-02-28T14:35:22.000Z</time>
      </trkpt>
      <trkpt lat="48.74904" lon="1.81224">
        <ele>179.19999694824</ele>
        <time>2012-02-28T14:35:35.000Z</time>
      </trkpt>
      <trkpt lat="48.74904" lon="1.81224">
        <ele>179.19999694824</ele>
        <time>2012-02-28T14:35:41.000Z</time>
      </trkpt>
      <trkpt lat="48.74902" lon="1.81226">
        <ele>179.39999389648</ele>
        <time>2012-02-28T14:35:47.000Z</time>
      </trkpt>
      <trkpt lat="48.74903" lon="1.81226">
        <ele>179.39999389648</ele>
        <time>2012-02-28T14:35:55.000Z</time>
      </trkpt>
      <trkpt lat="48.74909" lon="1.81228">
        <ele>179</ele>
        <time>2012-02-28T14:36:00.000Z</time>
      </trkpt>
      <trkpt lat="48.74909" lon="1.81228">
        <ele>179</ele>
        <time>2012-02-28T14:36:02.000Z</time>
      </trkpt>
      <trkpt lat="48.74965" lon="1.81276">
        <ele>178.39999389648</ele>
        <time>2012-02-28T14:37:49.000Z</time>
      </trkpt>
      <trkpt lat="48.74974" lon="1.81281">
        <ele>178.19999694824</ele>
        <time>2012-02-28T14:37:55.000Z</time>
      </trkpt>
      <trkpt lat="48.74981" lon="1.81285">
        <ele>178</ele>
        <time>2012-02-28T14:38:01.000Z</time>
      </trkpt>
      <trkpt lat="48.74991" lon="1.81293">
        <ele>177.80000305176</ele>
        <time>2012-02-28T14:38:08.000Z</time>
      </trkpt>
      <trkpt lat="48.74998" lon="1.81295">
        <ele>177.60000610352</ele>
        <time>2012-02-28T14:38:13.000Z</time>
      </trkpt>
      <trkpt lat="48.75003" lon="1.81299">
        <ele>177.39999389648</ele>
        <time>2012-02-28T14:38:18.000Z</time>
      </trkpt>
      <trkpt lat="48.75011" lon="1.81305">
        <ele>177</ele>
        <time>2012-02-28T14:38:24.000Z</time>
      </trkpt>
      <trkpt lat="48.75015" lon="1.81309">
        <ele>176.80000305176</ele>
        <time>2012-02-28T14:38:28.000Z</time>
      </trkpt>
      <trkpt lat="48.75023" lon="1.81312">
        <ele>176.60000610352</ele>
        <time>2012-02-28T14:38:35.000Z</time>
      </trkpt>
      <trkpt lat="48.75031" lon="1.81323">
        <ele>176</ele>
        <time>2012-02-28T14:38:42.000Z</time>
      </trkpt>
      <trkpt lat="48.75035" lon="1.81329">
        <ele>175.80000305176</ele>
        <time>2012-02-28T14:38:48.000Z</time>
      </trkpt>
      <trkpt lat="48.75042" lon="1.81338">
        <ele>175.19999694824</ele>
        <time>2012-02-28T14:38:55.000Z</time>
      </trkpt>
      <trkpt lat="48.75044" lon="1.81339">
        <ele>175</ele>
        <time>2012-02-28T14:38:56.000Z</time>
      </trkpt>
      <trkpt lat="48.75053" lon="1.81346">
        <ele>174</ele>
        <time>2012-02-28T14:39:04.000Z</time>
      </trkpt>
      <trkpt lat="48.75058" lon="1.81352">
        <ele>173.39999389648</ele>
        <time>2012-02-28T14:39:10.000Z</time>
      </trkpt>
      <trkpt lat="48.75064" lon="1.81357">
        <ele>172.80000305176</ele>
        <time>2012-02-28T14:39:15.000Z</time>
      </trkpt>
      <trkpt lat="48.75078" lon="1.81363">
        <ele>171.60000610352</ele>
        <time>2012-02-28T14:39:24.000Z</time>
      </trkpt>
      <trkpt lat="48.75085" lon="1.81366">
        <ele>171</ele>
        <time>2012-02-28T14:39:31.000Z</time>
      </trkpt>
      <trkpt lat="48.75093" lon="1.81369">
        <ele>170.19999694824</ele>
        <time>2012-02-28T14:39:37.000Z</time>
      </trkpt>
      <trkpt lat="48.75097" lon="1.81372">
        <ele>169.39999389648</ele>
        <time>2012-02-28T14:39:42.000Z</time>
      </trkpt>
      <trkpt lat="48.75101" lon="1.81373">
        <ele>169</ele>
        <time>2012-02-28T14:39:46.000Z</time>
      </trkpt>
      <trkpt lat="48.75104" lon="1.81374">
        <ele>168.80000305176</ele>
        <time>2012-02-28T14:39:48.000Z</time>
      </trkpt>
      <trkpt lat="48.7511" lon="1.8138">
        <ele>167.80000305176</ele>
        <time>2012-02-28T14:39:53.000Z</time>
      </trkpt>
      <trkpt lat="48.75113" lon="1.81381">
        <ele>167.39999389648</ele>
        <time>2012-02-28T14:39:56.000Z</time>
      </trkpt>
      <trkpt lat="48.75117" lon="1.81379">
        <ele>167.19999694824</ele>
        <time>2012-02-28T14:40:01.000Z</time>
      </trkpt>
      <trkpt lat="48.75125" lon="1.81382">
        <ele>166.39999389648</ele>
        <time>2012-02-28T14:40:08.000Z</time>
      </trkpt>
      <trkpt lat="48.75128" lon="1.81386">
        <ele>165.80000305176</ele>
        <time>2012-02-28T14:40:11.000Z</time>
      </trkpt>
      <trkpt lat="48.75135" lon="1.81393">
        <ele>164.80000305176</ele>
        <time>2012-02-28T14:40:17.000Z</time>
      </trkpt>
      <trkpt lat="48.75138" lon="1.81399">
        <ele>164.19999694824</ele>
        <time>2012-02-28T14:40:22.000Z</time>
      </trkpt>
      <trkpt lat="48.75142" lon="1.81407">
        <ele>163.39999389648</ele>
        <time>2012-02-28T14:40:28.000Z</time>
      </trkpt>
      <trkpt lat="48.75148" lon="1.81411">
        <ele>162.60000610352</ele>
        <time>2012-02-28T14:40:35.000Z</time>
      </trkpt>
      <trkpt lat="48.75152" lon="1.81414">
        <ele>162.19999694824</ele>
        <time>2012-02-28T14:40:40.000Z</time>
      </trkpt>
      <trkpt lat="48.75161" lon="1.81422">
        <ele>161</ele>
        <time>2012-02-28T14:40:48.000Z</time>
      </trkpt>
      <trkpt lat="48.75165" lon="1.81428">
        <ele>160.19999694824</ele>
        <time>2012-02-28T14:40:51.000Z</time>
      </trkpt>
      <trkpt lat="48.75166" lon="1.81433">
        <ele>159.60000610352</ele>
        <time>2012-02-28T14:40:54.000Z</time>
      </trkpt>
      <trkpt lat="48.75171" lon="1.81437">
        <ele>158.80000305176</ele>
        <time>2012-02-28T14:40:57.000Z</time>
      </trkpt>
      <trkpt lat="48.75174" lon="1.81444">
        <ele>158</ele>
        <time>2012-02-28T14:41:02.000Z</time>
      </trkpt>
      <trkpt lat="48.75174" lon="1.81447">
        <ele>157.80000305176</ele>
        <time>2012-02-28T14:41:07.000Z</time>
      </trkpt>
      <trkpt lat="48.75182" lon="1.81465">
        <ele>155.60000610352</ele>
        <time>2012-02-28T14:41:22.000Z</time>
      </trkpt>
      <trkpt lat="48.75189" lon="1.81475">
        <ele>154.39999389648</ele>
        <time>2012-02-28T14:41:28.000Z</time>
      </trkpt>
      <trkpt lat="48.75196" lon="1.81483">
        <ele>153.39999389648</ele>
        <time>2012-02-28T14:41:34.000Z</time>
      </trkpt>
      <trkpt lat="48.75198" lon="1.81486">
        <ele>153</ele>
        <time>2012-02-28T14:41:36.000Z</time>
      </trkpt>
      <trkpt lat="48.75204" lon="1.81498">
        <ele>151.80000305176</ele>
        <time>2012-02-28T14:41:44.000Z</time>
      </trkpt>
      <trkpt lat="48.75206" lon="1.81501">
        <ele>151.60000610352</ele>
        <time>2012-02-28T14:41:46.000Z</time>
      </trkpt>
      <trkpt lat="48.7521" lon="1.81512">
        <ele>150.80000305176</ele>
        <time>2012-02-28T14:41:53.000Z</time>
      </trkpt>
      <trkpt lat="48.75215" lon="1.8152">
        <ele>150.19999694824</ele>
        <time>2012-02-28T14:41:57.000Z</time>
      </trkpt>
      <trkpt lat="48.75217" lon="1.81524">
        <ele>149.80000305176</ele>
        <time>2012-02-28T14:41:59.000Z</time>
      </trkpt>
      <trkpt lat="48.75225" lon="1.81535">
        <ele>149</ele>
        <time>2012-02-28T14:42:06.000Z</time>
      </trkpt>
      <trkpt lat="48.75227" lon="1.81537">
        <ele>148.80000305176</ele>
        <time>2012-02-28T14:42:07.000Z</time>
      </trkpt>
      <trkpt lat="48.75232" lon="1.81542">
        <ele>148.39999389648</ele>
        <time>2012-02-28T14:42:11.000Z</time>
      </trkpt>
      <trkpt lat="48.75237" lon="1.81551">
        <ele>147.80000305176</ele>
        <time>2012-02-28T14:42:18.000Z</time>
      </trkpt>
      <trkpt lat="48.75244" lon="1.81558">
        <ele>147.19999694824</ele>
        <time>2012-02-28T14:42:24.000Z</time>
      </trkpt>
      <trkpt lat="48.75251" lon="1.81565">
        <ele>146.60000610352</ele>
        <time>2012-02-28T14:42:30.000Z</time>
      </trkpt>
      <trkpt lat="48.75251" lon="1.81566">
        <ele>146.60000610352</ele>
        <time>2012-02-28T14:42:33.000Z</time>
      </trkpt>
      <trkpt lat="48.75263" lon="1.81584">
        <ele>145.60000610352</ele>
        <time>2012-02-28T14:43:19.000Z</time>
      </trkpt>
      <trkpt lat="48.75266" lon="1.81589">
        <ele>145.19999694824</ele>
        <time>2012-02-28T14:43:24.000Z</time>
      </trkpt>
      <trkpt lat="48.75268" lon="1.81594">
        <ele>144.80000305176</ele>
        <time>2012-02-28T14:43:27.000Z</time>
      </trkpt>
      <trkpt lat="48.75272" lon="1.81601">
        <ele>144.39999389648</ele>
        <time>2012-02-28T14:43:33.000Z</time>
      </trkpt>
      <trkpt lat="48.75274" lon="1.81604">
        <ele>144.19999694824</ele>
        <time>2012-02-28T14:43:36.000Z</time>
      </trkpt>
      <trkpt lat="48.7528" lon="1.81616">
        <ele>143.39999389648</ele>
        <time>2012-02-28T14:43:44.000Z</time>
      </trkpt>
      <trkpt lat="48.75282" lon="1.81621">
        <ele>143.19999694824</ele>
        <time>2012-02-28T14:43:47.000Z</time>
      </trkpt>
      <trkpt lat="48.75287" lon="1.81629">
        <ele>142.80000305176</ele>
        <time>2012-02-28T14:43:52.000Z</time>
      </trkpt>
      <trkpt lat="48.75298" lon="1.81643">
        <ele>141.80000305176</ele>
        <time>2012-02-28T14:44:00.000Z</time>
      </trkpt>
      <trkpt lat="48.75307" lon="1.81654">
        <ele>141.19999694824</ele>
        <time>2012-02-28T14:44:07.000Z</time>
      </trkpt>
      <trkpt lat="48.75315" lon="1.8166">
        <ele>140.80000305176</ele>
        <time>2012-02-28T14:44:13.000Z</time>
      </trkpt>
      <trkpt lat="48.75324" lon="1.81671">
        <ele>140</ele>
        <time>2012-02-28T14:44:19.000Z</time>
      </trkpt>
      <trkpt lat="48.75329" lon="1.81678">
        <ele>139.19999694824</ele>
        <time>2012-02-28T14:44:25.000Z</time>
      </trkpt>
      <trkpt lat="48.75333" lon="1.81688">
        <ele>138.39999389648</ele>
        <time>2012-02-28T14:44:31.000Z</time>
      </trkpt>
      <trkpt lat="48.75334" lon="1.81691">
        <ele>138.19999694824</ele>
        <time>2012-02-28T14:44:33.000Z</time>
      </trkpt>
      <trkpt lat="48.7534" lon="1.81703">
        <ele>137.39999389648</ele>
        <time>2012-02-28T14:44:41.000Z</time>
      </trkpt>
      <trkpt lat="48.75345" lon="1.81712">
        <ele>137</ele>
        <time>2012-02-28T14:44:47.000Z</time>
      </trkpt>
      <trkpt lat="48.7535" lon="1.81724">
        <ele>136.19999694824</ele>
        <time>2012-02-28T14:44:54.000Z</time>
      </trkpt>
      <trkpt lat="48.75352" lon="1.81728">
        <ele>136</ele>
        <time>2012-02-28T14:44:59.000Z</time>
      </trkpt>
      <trkpt lat="48.75356" lon="1.81732">
        <ele>135.80000305176</ele>
        <time>2012-02-28T14:45:06.000Z</time>
      </trkpt>
      <trkpt lat="48.7536" lon="1.81739">
        <ele>135.60000610352</ele>
        <time>2012-02-28T14:45:11.000Z</time>
      </trkpt>
      <trkpt lat="48.75363" lon="1.81741">
        <ele>135.60000610352</ele>
        <time>2012-02-28T14:45:13.000Z</time>
      </trkpt>
      <trkpt lat="48.75365" lon="1.81741">
        <ele>135.60000610352</ele>
        <time>2012-02-28T14:45:16.000Z</time>
      </trkpt>
      <trkpt lat="48.7537" lon="1.81743">
        <ele>135.60000610352</ele>
        <time>2012-02-28T14:45:23.000Z</time>
      </trkpt>
      <trkpt lat="48.7537" lon="1.81743">
        <ele>135.80000305176</ele>
        <time>2012-02-28T14:45:24.000Z</time>
      </trkpt>
      <trkpt lat="48.75376" lon="1.81748">
        <ele>135.60000610352</ele>
        <time>2012-02-28T14:45:34.000Z</time>
      </trkpt>
      <trkpt lat="48.75379" lon="1.81753">
        <ele>135.39999389648</ele>
        <time>2012-02-28T14:45:37.000Z</time>
      </trkpt>
      <trkpt lat="48.75383" lon="1.81759">
        <ele>135.19999694824</ele>
        <time>2012-02-28T14:45:42.000Z</time>
      </trkpt>
      <trkpt lat="48.75387" lon="1.81768">
        <ele>134.80000305176</ele>
        <time>2012-02-28T14:45:48.000Z</time>
      </trkpt>
      <trkpt lat="48.75392" lon="1.81773">
        <ele>134.60000610352</ele>
        <time>2012-02-28T14:45:53.000Z</time>
      </trkpt>
      <trkpt lat="48.75399" lon="1.81782">
        <ele>134.19999694824</ele>
        <time>2012-02-28T14:46:00.000Z</time>
      </trkpt>
      <trkpt lat="48.75399" lon="1.81784">
        <ele>134.19999694824</ele>
        <time>2012-02-28T14:46:01.000Z</time>
      </trkpt>
      <trkpt lat="48.75402" lon="1.81788">
        <ele>134</ele>
        <time>2012-02-28T14:46:04.000Z</time>
      </trkpt>
      <trkpt lat="48.75408" lon="1.81799">
        <ele>133.39999389648</ele>
        <time>2012-02-28T14:46:10.000Z</time>
      </trkpt>
      <trkpt lat="48.75414" lon="1.81806">
        <ele>133</ele>
        <time>2012-02-28T14:46:15.000Z</time>
      </trkpt>
      <trkpt lat="48.7542" lon="1.81812">
        <ele>133.39999389648</ele>
        <time>2012-02-28T14:46:20.000Z</time>
      </trkpt>
      <trkpt lat="48.75423" lon="1.81812">
        <ele>133.80000305176</ele>
        <time>2012-02-28T14:46:23.000Z</time>
      </trkpt>
      <trkpt lat="48.75423" lon="1.81803">
        <ele>134.80000305176</ele>
        <time>2012-02-28T14:46:29.000Z</time>
      </trkpt>
      <trkpt lat="48.75423" lon="1.81788">
        <ele>135.80000305176</ele>
        <time>2012-02-28T14:46:37.000Z</time>
      </trkpt>
      <trkpt lat="48.75423" lon="1.81782">
        <ele>136.19999694824</ele>
        <time>2012-02-28T14:46:40.000Z</time>
      </trkpt>
      <trkpt lat="48.75423" lon="1.81766">
        <ele>137.39999389648</ele>
        <time>2012-02-28T14:46:48.000Z</time>
      </trkpt>
      <trkpt lat="48.75423" lon="1.81764">
        <ele>137.60000610352</ele>
        <time>2012-02-28T14:46:49.000Z</time>
      </trkpt>
      <trkpt lat="48.75423" lon="1.81749">
        <ele>138.60000610352</ele>
        <time>2012-02-28T14:46:57.000Z</time>
      </trkpt>
      <trkpt lat="48.75421" lon="1.81734">
        <ele>138.39999389648</ele>
        <time>2012-02-28T14:47:04.000Z</time>
      </trkpt>
      <trkpt lat="48.7542" lon="1.81724">
        <ele>138.60000610352</ele>
        <time>2012-02-28T14:47:09.000Z</time>
      </trkpt>
      <trkpt lat="48.75423" lon="1.81713">
        <ele>139.39999389648</ele>
        <time>2012-02-28T14:47:14.000Z</time>
      </trkpt>
      <trkpt lat="48.75421" lon="1.81706">
        <ele>139.19999694824</ele>
        <time>2012-02-28T14:47:23.000Z</time>
      </trkpt>
      <trkpt lat="48.75415" lon="1.81673">
        <ele>138.80000305176</ele>
        <time>2012-02-28T14:48:14.000Z</time>
      </trkpt>
      <trkpt lat="48.75413" lon="1.81659">
        <ele>139.19999694824</ele>
        <time>2012-02-28T14:48:19.000Z</time>
      </trkpt>
      <trkpt lat="48.75413" lon="1.81655">
        <ele>139.19999694824</ele>
        <time>2012-02-28T14:48:21.000Z</time>
      </trkpt>
      <trkpt lat="48.75414" lon="1.81642">
        <ele>139.39999389648</ele>
        <time>2012-02-28T14:48:27.000Z</time>
      </trkpt>
      <trkpt lat="48.75417" lon="1.8163">
        <ele>139.60000610352</ele>
        <time>2012-02-28T14:48:33.000Z</time>
      </trkpt>
      <trkpt lat="48.75418" lon="1.81625">
        <ele>139.80000305176</ele>
        <time>2012-02-28T14:48:35.000Z</time>
      </trkpt>
      <trkpt lat="48.75419" lon="1.8162">
        <ele>140.19999694824</ele>
        <time>2012-02-28T14:48:38.000Z</time>
      </trkpt>
      <trkpt lat="48.75423" lon="1.81609">
        <ele>141.19999694824</ele>
        <time>2012-02-28T14:48:44.000Z</time>
      </trkpt>
      <trkpt lat="48.75425" lon="1.81602">
        <ele>141.60000610352</ele>
        <time>2012-02-28T14:48:49.000Z</time>
      </trkpt>
      <trkpt lat="48.75429" lon="1.81594">
        <ele>142.39999389648</ele>
        <time>2012-02-28T14:48:54.000Z</time>
      </trkpt>
      <trkpt lat="48.75432" lon="1.81587">
        <ele>143.19999694824</ele>
        <time>2012-02-28T14:48:58.000Z</time>
      </trkpt>
      <trkpt lat="48.75437" lon="1.81576">
        <ele>144.19999694824</ele>
        <time>2012-02-28T14:49:04.000Z</time>
      </trkpt>
      <trkpt lat="48.75438" lon="1.81571">
        <ele>144.39999389648</ele>
        <time>2012-02-28T14:49:06.000Z</time>
      </trkpt>
      <trkpt lat="48.75439" lon="1.81564">
        <ele>144.39999389648</ele>
        <time>2012-02-28T14:49:09.000Z</time>
      </trkpt>
      <trkpt lat="48.75441" lon="1.81556">
        <ele>144.80000305176</ele>
        <time>2012-02-28T14:49:13.000Z</time>
      </trkpt>
      <trkpt lat="48.75442" lon="1.81552">
        <ele>145</ele>
        <time>2012-02-28T14:49:15.000Z</time>
      </trkpt>
      <trkpt lat="48.75446" lon="1.81543">
        <ele>145.60000610352</ele>
        <time>2012-02-28T14:49:20.000Z</time>
      </trkpt>
      <trkpt lat="48.75449" lon="1.81534">
        <ele>146</ele>
        <time>2012-02-28T14:49:24.000Z</time>
      </trkpt>
      <trkpt lat="48.75454" lon="1.81517">
        <ele>146.39999389648</ele>
        <time>2012-02-28T14:49:32.000Z</time>
      </trkpt>
      <trkpt lat="48.75455" lon="1.81515">
        <ele>146.39999389648</ele>
        <time>2012-02-28T14:49:34.000Z</time>
      </trkpt>
      <trkpt lat="48.75456" lon="1.81502">
        <ele>146.39999389648</ele>
        <time>2012-02-28T14:49:40.000Z</time>
      </trkpt>
      <trkpt lat="48.75456" lon="1.81492">
        <ele>146.39999389648</ele>
        <time>2012-02-28T14:49:43.000Z</time>
      </trkpt>
      <trkpt lat="48.75461" lon="1.81479">
        <ele>147</ele>
        <time>2012-02-28T14:49:49.000Z</time>
      </trkpt>
      <trkpt lat="48.75464" lon="1.81462">
        <ele>147.39999389648</ele>
        <time>2012-02-28T14:49:57.000Z</time>
      </trkpt>
      <trkpt lat="48.75469" lon="1.81449">
        <ele>147.60000610352</ele>
        <time>2012-02-28T14:50:05.000Z</time>
      </trkpt>
      <trkpt lat="48.75476" lon="1.81436">
        <ele>147.80000305176</ele>
        <time>2012-02-28T14:50:12.000Z</time>
      </trkpt>
      <trkpt lat="48.75484" lon="1.81424">
        <ele>148</ele>
        <time>2012-02-28T14:50:20.000Z</time>
      </trkpt>
      <trkpt lat="48.75486" lon="1.81421">
        <ele>148</ele>
        <time>2012-02-28T14:50:22.000Z</time>
      </trkpt>
      <trkpt lat="48.75492" lon="1.81415">
        <ele>147.80000305176</ele>
        <time>2012-02-28T14:50:29.000Z</time>
      </trkpt>
      <trkpt lat="48.75492" lon="1.81414">
        <ele>147.80000305176</ele>
        <time>2012-02-28T14:50:30.000Z</time>
      </trkpt>
      <trkpt lat="48.75501" lon="1.81404">
        <ele>148</ele>
        <time>2012-02-28T14:50:37.000Z</time>
      </trkpt>
      <trkpt lat="48.75508" lon="1.81396">
        <ele>149.39999389648</ele>
        <time>2012-02-28T14:50:43.000Z</time>
      </trkpt>
      <trkpt lat="48.75512" lon="1.81392">
        <ele>150.19999694824</ele>
        <time>2012-02-28T14:50:46.000Z</time>
      </trkpt>
      <trkpt lat="48.7552" lon="1.81381">
        <ele>151.19999694824</ele>
        <time>2012-02-28T14:50:53.000Z</time>
      </trkpt>
      <trkpt lat="48.75527" lon="1.81368">
        <ele>151.60000610352</ele>
        <time>2012-02-28T14:51:01.000Z</time>
      </trkpt>
      <trkpt lat="48.75532" lon="1.81358">
        <ele>151.60000610352</ele>
        <time>2012-02-28T14:51:07.000Z</time>
      </trkpt>
      <trkpt lat="48.75538" lon="1.81342">
        <ele>151.19999694824</ele>
        <time>2012-02-28T14:51:15.000Z</time>
      </trkpt>
      <trkpt lat="48.75539" lon="1.81333">
        <ele>150.80000305176</ele>
        <time>2012-02-28T14:51:19.000Z</time>
      </trkpt>
      <trkpt lat="48.75543" lon="1.8132">
        <ele>151</ele>
        <time>2012-02-28T14:51:26.000Z</time>
      </trkpt>
      <trkpt lat="48.75548" lon="1.81309">
        <ele>151.19999694824</ele>
        <time>2012-02-28T14:51:33.000Z</time>
      </trkpt>
      <trkpt lat="48.75551" lon="1.81304">
        <ele>151.19999694824</ele>
        <time>2012-02-28T14:51:37.000Z</time>
      </trkpt>
      <trkpt lat="48.75559" lon="1.81295">
        <ele>151.19999694824</ele>
        <time>2012-02-28T14:51:44.000Z</time>
      </trkpt>
      <trkpt lat="48.75562" lon="1.81289">
        <ele>151</ele>
        <time>2012-02-28T14:51:48.000Z</time>
      </trkpt>
      <trkpt lat="48.75568" lon="1.8128">
        <ele>150.60000610352</ele>
        <time>2012-02-28T14:51:53.000Z</time>
      </trkpt>
      <trkpt lat="48.7557" lon="1.81277">
        <ele>150.39999389648</ele>
        <time>2012-02-28T14:51:55.000Z</time>
      </trkpt>
      <trkpt lat="48.75579" lon="1.81268">
        <ele>149.60000610352</ele>
        <time>2012-02-28T14:52:02.000Z</time>
      </trkpt>
      <trkpt lat="48.75585" lon="1.8126">
        <ele>149.19999694824</ele>
        <time>2012-02-28T14:52:07.000Z</time>
      </trkpt>
      <trkpt lat="48.75592" lon="1.8125">
        <ele>150.19999694824</ele>
        <time>2012-02-28T14:52:14.000Z</time>
      </trkpt>
      <trkpt lat="48.75597" lon="1.81244">
        <ele>151.60000610352</ele>
        <time>2012-02-28T14:52:19.000Z</time>
      </trkpt>
      <trkpt lat="48.75608" lon="1.81237">
        <ele>154.19999694824</ele>
        <time>2012-02-28T14:52:27.000Z</time>
      </trkpt>
      <trkpt lat="48.75614" lon="1.81229">
        <ele>155.60000610352</ele>
        <time>2012-02-28T14:52:33.000Z</time>
      </trkpt>
      <trkpt lat="48.75616" lon="1.81224">
        <ele>156.19999694824</ele>
        <time>2012-02-28T14:52:36.000Z</time>
      </trkpt>
      <trkpt lat="48.75617" lon="1.81211">
        <ele>156.39999389648</ele>
        <time>2012-02-28T14:52:42.000Z</time>
      </trkpt>
      <trkpt lat="48.7562" lon="1.81205">
        <ele>156.80000305176</ele>
        <time>2012-02-28T14:52:46.000Z</time>
      </trkpt>
      <trkpt lat="48.75621" lon="1.81202">
        <ele>157.19999694824</ele>
        <time>2012-02-28T14:52:49.000Z</time>
      </trkpt>
      <trkpt lat="48.75626" lon="1.81193">
        <ele>157.80000305176</ele>
        <time>2012-02-28T14:52:55.000Z</time>
      </trkpt>
      <trkpt lat="48.75627" lon="1.81192">
        <ele>158</ele>
        <time>2012-02-28T14:52:56.000Z</time>
      </trkpt>
      <trkpt lat="48.75631" lon="1.81185">
        <ele>158.19999694824</ele>
        <time>2012-02-28T14:53:00.000Z</time>
      </trkpt>
      <trkpt lat="48.75636" lon="1.81176">
        <ele>158.60000610352</ele>
        <time>2012-02-28T14:53:06.000Z</time>
      </trkpt>
      <trkpt lat="48.7564" lon="1.81169">
        <ele>158.80000305176</ele>
        <time>2012-02-28T14:53:10.000Z</time>
      </trkpt>
      <trkpt lat="48.75644" lon="1.81161">
        <ele>159</ele>
        <time>2012-02-28T14:53:14.000Z</time>
      </trkpt>
      <trkpt lat="48.75653" lon="1.81148">
        <ele>159.39999389648</ele>
        <time>2012-02-28T14:53:21.000Z</time>
      </trkpt>
      <trkpt lat="48.75656" lon="1.81136">
        <ele>159.39999389648</ele>
        <time>2012-02-28T14:53:26.000Z</time>
      </trkpt>
      <trkpt lat="48.7566" lon="1.81126">
        <ele>159.19999694824</ele>
        <time>2012-02-28T14:53:31.000Z</time>
      </trkpt>
      <trkpt lat="48.75663" lon="1.81119">
        <ele>159.19999694824</ele>
        <time>2012-02-28T14:53:35.000Z</time>
      </trkpt>
      <trkpt lat="48.7567" lon="1.81107">
        <ele>159.80000305176</ele>
        <time>2012-02-28T14:53:43.000Z</time>
      </trkpt>
      <trkpt lat="48.75674" lon="1.81095">
        <ele>160.39999389648</ele>
        <time>2012-02-28T14:53:49.000Z</time>
      </trkpt>
      <trkpt lat="48.75674" lon="1.81094">
        <ele>160.19999694824</ele>
        <time>2012-02-28T14:53:52.000Z</time>
      </trkpt>
      <trkpt lat="48.75679" lon="1.81084">
        <ele>161.19999694824</ele>
        <time>2012-02-28T14:54:02.000Z</time>
      </trkpt>
      <trkpt lat="48.7568" lon="1.81077">
        <ele>161.19999694824</ele>
        <time>2012-02-28T14:54:04.000Z</time>
      </trkpt>
      <trkpt lat="48.75683" lon="1.8106">
        <ele>161.19999694824</ele>
        <time>2012-02-28T14:54:11.000Z</time>
      </trkpt>
      <trkpt lat="48.75685" lon="1.81056">
        <ele>161.39999389648</ele>
        <time>2012-02-28T14:54:14.000Z</time>
      </trkpt>
      <trkpt lat="48.75689" lon="1.81043">
        <ele>161.80000305176</ele>
        <time>2012-02-28T14:54:20.000Z</time>
      </trkpt>
      <trkpt lat="48.75695" lon="1.81032">
        <ele>162.19999694824</ele>
        <time>2012-02-28T14:54:26.000Z</time>
      </trkpt>
      <trkpt lat="48.757" lon="1.8102">
        <ele>162.39999389648</ele>
        <time>2012-02-28T14:54:33.000Z</time>
      </trkpt>
      <trkpt lat="48.75706" lon="1.81005">
        <ele>162</ele>
        <time>2012-02-28T14:54:40.000Z</time>
      </trkpt>
      <trkpt lat="48.75711" lon="1.80998">
        <ele>162.39999389648</ele>
        <time>2012-02-28T14:54:46.000Z</time>
      </trkpt>
      <trkpt lat="48.75711" lon="1.80998">
        <ele>162.39999389648</ele>
        <time>2012-02-28T14:54:47.000Z</time>
      </trkpt>
      <trkpt lat="48.75712" lon="1.80992">
        <ele>162.19999694824</ele>
        <time>2012-02-28T14:54:54.000Z</time>
      </trkpt>
      <trkpt lat="48.75717" lon="1.80988">
        <ele>162.60000610352</ele>
        <time>2012-02-28T14:54:58.000Z</time>
      </trkpt>
      <trkpt lat="48.7572" lon="1.80982">
        <ele>162.80000305176</ele>
        <time>2012-02-28T14:55:02.000Z</time>
      </trkpt>
      <trkpt lat="48.75726" lon="1.8097">
        <ele>162.80000305176</ele>
        <time>2012-02-28T14:55:09.000Z</time>
      </trkpt>
      <trkpt lat="48.75728" lon="1.80971">
        <ele>163</ele>
        <time>2012-02-28T14:55:16.000Z</time>
      </trkpt>
      <trkpt lat="48.75726" lon="1.80971">
        <ele>162.80000305176</ele>
        <time>2012-02-28T14:55:20.000Z</time>
      </trkpt>
      <trkpt lat="48.7573" lon="1.80966">
        <ele>163</ele>
        <time>2012-02-28T14:55:27.000Z</time>
      </trkpt>
      <trkpt lat="48.75735" lon="1.80963">
        <ele>163.19999694824</ele>
        <time>2012-02-28T14:55:32.000Z</time>
      </trkpt>
      <trkpt lat="48.7574" lon="1.80949">
        <ele>162.80000305176</ele>
        <time>2012-02-28T14:55:39.000Z</time>
      </trkpt>
      <trkpt lat="48.75743" lon="1.80934">
        <ele>162</ele>
        <time>2012-02-28T14:55:46.000Z</time>
      </trkpt>
      <trkpt lat="48.75747" lon="1.80922">
        <ele>161.19999694824</ele>
        <time>2012-02-28T14:55:53.000Z</time>
      </trkpt>
      <trkpt lat="48.75754" lon="1.80915">
        <ele>161.80000305176</ele>
        <time>2012-02-28T14:55:59.000Z</time>
      </trkpt>
      <trkpt lat="48.75755" lon="1.80915">
        <ele>162</ele>
        <time>2012-02-28T14:56:00.000Z</time>
      </trkpt>
      <trkpt lat="48.75763" lon="1.80903">
        <ele>163.19999694824</ele>
        <time>2012-02-28T14:56:09.000Z</time>
      </trkpt>
      <trkpt lat="48.75764" lon="1.80901">
        <ele>163.39999389648</ele>
        <time>2012-02-28T14:56:10.000Z</time>
      </trkpt>
      <trkpt lat="48.75772" lon="1.80894">
        <ele>164.80000305176</ele>
        <time>2012-02-28T14:56:17.000Z</time>
      </trkpt>
      <trkpt lat="48.75777" lon="1.80888">
        <ele>165.60000610352</ele>
        <time>2012-02-28T14:56:22.000Z</time>
      </trkpt>
      <trkpt lat="48.7578" lon="1.80877">
        <ele>165.60000610352</ele>
        <time>2012-02-28T14:56:28.000Z</time>
      </trkpt>
      <trkpt lat="48.75779" lon="1.80874">
        <ele>165.39999389648</ele>
        <time>2012-02-28T14:56:29.000Z</time>
      </trkpt>
      <trkpt lat="48.75782" lon="1.80848">
        <ele>164.80000305176</ele>
        <time>2012-02-28T14:56:38.000Z</time>
      </trkpt>
      <trkpt lat="48.75787" lon="1.80832">
        <ele>164.80000305176</ele>
        <time>2012-02-28T14:56:46.000Z</time>
      </trkpt>
      <trkpt lat="48.7579" lon="1.80824">
        <ele>165</ele>
        <time>2012-02-28T14:56:50.000Z</time>
      </trkpt>
      <trkpt lat="48.75795" lon="1.80819">
        <ele>165.60000610352</ele>
        <time>2012-02-28T14:56:54.000Z</time>
      </trkpt>
      <trkpt lat="48.75798" lon="1.80811">
        <ele>166</ele>
        <time>2012-02-28T14:57:01.000Z</time>
      </trkpt>
      <trkpt lat="48.758" lon="1.80808">
        <ele>166</ele>
        <time>2012-02-28T14:57:03.000Z</time>
      </trkpt>
      <trkpt lat="48.75804" lon="1.80805">
        <ele>166.60000610352</ele>
        <time>2012-02-28T14:57:09.000Z</time>
      </trkpt>
      <trkpt lat="48.75809" lon="1.80793">
        <ele>166.80000305176</ele>
        <time>2012-02-28T14:57:15.000Z</time>
      </trkpt>
      <trkpt lat="48.75813" lon="1.80776">
        <ele>166.80000305176</ele>
        <time>2012-02-28T14:57:23.000Z</time>
      </trkpt>
      <trkpt lat="48.75817" lon="1.80764">
        <ele>166.80000305176</ele>
        <time>2012-02-28T14:57:29.000Z</time>
      </trkpt>
      <trkpt lat="48.7582" lon="1.80751">
        <ele>166.80000305176</ele>
        <time>2012-02-28T14:57:35.000Z</time>
      </trkpt>
      <trkpt lat="48.75823" lon="1.80738">
        <ele>166.80000305176</ele>
        <time>2012-02-28T14:57:41.000Z</time>
      </trkpt>
      <trkpt lat="48.75824" lon="1.80734">
        <ele>167</ele>
        <time>2012-02-28T14:57:43.000Z</time>
      </trkpt>
      <trkpt lat="48.75827" lon="1.80721">
        <ele>167.19999694824</ele>
        <time>2012-02-28T14:57:49.000Z</time>
      </trkpt>
      <trkpt lat="48.75832" lon="1.80711">
        <ele>167.39999389648</ele>
        <time>2012-02-28T14:57:54.000Z</time>
      </trkpt>
      <trkpt lat="48.75837" lon="1.80698">
        <ele>168</ele>
        <time>2012-02-28T14:58:00.000Z</time>
      </trkpt>
      <trkpt lat="48.75843" lon="1.80688">
        <ele>169</ele>
        <time>2012-02-28T14:58:06.000Z</time>
      </trkpt>
      <trkpt lat="48.75847" lon="1.80682">
        <ele>169.80000305176</ele>
        <time>2012-02-28T14:58:11.000Z</time>
      </trkpt>
      <trkpt lat="48.7585" lon="1.80674">
        <ele>170.39999389648</ele>
        <time>2012-02-28T14:58:15.000Z</time>
      </trkpt>
      <trkpt lat="48.75846" lon="1.80667">
        <ele>169.39999389648</ele>
        <time>2012-02-28T14:58:21.000Z</time>
      </trkpt>
      <trkpt lat="48.75842" lon="1.80666">
        <ele>168.60000610352</ele>
        <time>2012-02-28T14:58:23.000Z</time>
      </trkpt>
      <trkpt lat="48.75829" lon="1.80654">
        <ele>166.60000610352</ele>
        <time>2012-02-28T14:58:33.000Z</time>
      </trkpt>
      <trkpt lat="48.75825" lon="1.80645">
        <ele>166.19999694824</ele>
        <time>2012-02-28T14:58:38.000Z</time>
      </trkpt>
      <trkpt lat="48.75824" lon="1.80636">
        <ele>166</ele>
        <time>2012-02-28T14:58:44.000Z</time>
      </trkpt>
      <trkpt lat="48.75823" lon="1.80632">
        <ele>166</ele>
        <time>2012-02-28T14:58:46.000Z</time>
      </trkpt>
      <trkpt lat="48.75824" lon="1.80609">
        <ele>165.80000305176</ele>
        <time>2012-02-28T14:58:56.000Z</time>
      </trkpt>
      <trkpt lat="48.75825" lon="1.80599">
        <ele>165.80000305176</ele>
        <time>2012-02-28T14:59:00.000Z</time>
      </trkpt>
      <trkpt lat="48.75823" lon="1.8059">
        <ele>165.60000610352</ele>
        <time>2012-02-28T14:59:07.000Z</time>
      </trkpt>
      <trkpt lat="48.75821" lon="1.80585">
        <ele>165.60000610352</ele>
        <time>2012-02-28T14:59:11.000Z</time>
      </trkpt>
      <trkpt lat="48.7582" lon="1.80581">
        <ele>165.39999389648</ele>
        <time>2012-02-28T14:59:13.000Z</time>
      </trkpt>
      <trkpt lat="48.75818" lon="1.80572">
        <ele>165.19999694824</ele>
        <time>2012-02-28T14:59:18.000Z</time>
      </trkpt>
      <trkpt lat="48.75819" lon="1.80569">
        <ele>165.19999694824</ele>
        <time>2012-02-28T14:59:22.000Z</time>
      </trkpt>
      <trkpt lat="48.7582" lon="1.80561">
        <ele>165</ele>
        <time>2012-02-28T14:59:28.000Z</time>
      </trkpt>
      <trkpt lat="48.75817" lon="1.80551">
        <ele>164.80000305176</ele>
        <time>2012-02-28T14:59:32.000Z</time>
      </trkpt>
      <trkpt lat="48.75817" lon="1.80548">
        <ele>164.60000610352</ele>
        <time>2012-02-28T14:59:33.000Z</time>
      </trkpt>
      <trkpt lat="48.75816" lon="1.80543">
        <ele>164.60000610352</ele>
        <time>2012-02-28T14:59:36.000Z</time>
      </trkpt>
      <trkpt lat="48.75814" lon="1.8054">
        <ele>164.39999389648</ele>
        <time>2012-02-28T14:59:41.000Z</time>
      </trkpt>
      <trkpt lat="48.7582" lon="1.80542">
        <ele>164.60000610352</ele>
        <time>2012-02-28T15:01:09.000Z</time>
      </trkpt>
      <trkpt lat="48.75824" lon="1.80533">
        <ele>164.60000610352</ele>
        <time>2012-02-28T15:01:14.000Z</time>
      </trkpt>
      <trkpt lat="48.75825" lon="1.80533">
        <ele>164.60000610352</ele>
        <time>2012-02-28T15:01:16.000Z</time>
      </trkpt>
      <trkpt lat="48.75826" lon="1.80527">
        <ele>164.39999389648</ele>
        <time>2012-02-28T15:01:20.000Z</time>
      </trkpt>
      <trkpt lat="48.7583" lon="1.80519">
        <ele>164.39999389648</ele>
        <time>2012-02-28T15:01:23.000Z</time>
      </trkpt>
      <trkpt lat="48.75837" lon="1.80498">
        <ele>164.80000305176</ele>
        <time>2012-02-28T15:01:33.000Z</time>
      </trkpt>
      <trkpt lat="48.75839" lon="1.80485">
        <ele>165.19999694824</ele>
        <time>2012-02-28T15:01:39.000Z</time>
      </trkpt>
      <trkpt lat="48.75838" lon="1.80479">
        <ele>165.19999694824</ele>
        <time>2012-02-28T15:01:43.000Z</time>
      </trkpt>
      <trkpt lat="48.75833" lon="1.80473">
        <ele>164.60000610352</ele>
        <time>2012-02-28T15:01:48.000Z</time>
      </trkpt>
      <trkpt lat="48.75823" lon="1.80464">
        <ele>164.60000610352</ele>
        <time>2012-02-28T15:01:55.000Z</time>
      </trkpt>
      <trkpt lat="48.75818" lon="1.80463">
        <ele>164.39999389648</ele>
        <time>2012-02-28T15:02:00.000Z</time>
      </trkpt>
      <trkpt lat="48.75813" lon="1.80464">
        <ele>164.19999694824</ele>
        <time>2012-02-28T15:02:03.000Z</time>
      </trkpt>
      <trkpt lat="48.75805" lon="1.80458">
        <ele>164.19999694824</ele>
        <time>2012-02-28T15:02:08.000Z</time>
      </trkpt>
      <trkpt lat="48.75805" lon="1.8045">
        <ele>164.39999389648</ele>
        <time>2012-02-28T15:02:12.000Z</time>
      </trkpt>
      <trkpt lat="48.75806" lon="1.80448">
        <ele>164.39999389648</ele>
        <time>2012-02-28T15:02:13.000Z</time>
      </trkpt>
      <trkpt lat="48.75806" lon="1.80431">
        <ele>164.80000305176</ele>
        <time>2012-02-28T15:02:21.000Z</time>
      </trkpt>
      <trkpt lat="48.75806" lon="1.80429">
        <ele>164.80000305176</ele>
        <time>2012-02-28T15:02:22.000Z</time>
      </trkpt>
      <trkpt lat="48.75807" lon="1.80423">
        <ele>165</ele>
        <time>2012-02-28T15:02:28.000Z</time>
      </trkpt>
      <trkpt lat="48.75809" lon="1.80425">
        <ele>165</ele>
        <time>2012-02-28T15:02:31.000Z</time>
      </trkpt>
      <trkpt lat="48.75814" lon="1.80427">
        <ele>165</ele>
        <time>2012-02-28T15:02:34.000Z</time>
      </trkpt>
      <trkpt lat="48.75823" lon="1.80425">
        <ele>165.39999389648</ele>
        <time>2012-02-28T15:02:39.000Z</time>
      </trkpt>
      <trkpt lat="48.75831" lon="1.80412">
        <ele>166.19999694824</ele>
        <time>2012-02-28T15:02:47.000Z</time>
      </trkpt>
      <trkpt lat="48.75834" lon="1.80398">
        <ele>167.39999389648</ele>
        <time>2012-02-28T15:02:54.000Z</time>
      </trkpt>
      <trkpt lat="48.75835" lon="1.80392">
        <ele>167.80000305176</ele>
        <time>2012-02-28T15:02:57.000Z</time>
      </trkpt>
      <trkpt lat="48.75837" lon="1.80383">
        <ele>168.60000610352</ele>
        <time>2012-02-28T15:03:02.000Z</time>
      </trkpt>
      <trkpt lat="48.75838" lon="1.80363">
        <ele>170</ele>
        <time>2012-02-28T15:03:11.000Z</time>
      </trkpt>
      <trkpt lat="48.75838" lon="1.80343">
        <ele>171.39999389648</ele>
        <time>2012-02-28T15:03:19.000Z</time>
      </trkpt>
      <trkpt lat="48.7584" lon="1.80331">
        <ele>172</ele>
        <time>2012-02-28T15:03:25.000Z</time>
      </trkpt>
      <trkpt lat="48.7584" lon="1.80319">
        <ele>172.60000610352</ele>
        <time>2012-02-28T15:03:31.000Z</time>
      </trkpt>
      <trkpt lat="48.75843" lon="1.80308">
        <ele>172.80000305176</ele>
        <time>2012-02-28T15:03:37.000Z</time>
      </trkpt>
      <trkpt lat="48.75845" lon="1.80292">
        <ele>173.39999389648</ele>
        <time>2012-02-28T15:03:44.000Z</time>
      </trkpt>
      <trkpt lat="48.75848" lon="1.80279">
        <ele>173.80000305176</ele>
        <time>2012-02-28T15:03:51.000Z</time>
      </trkpt>
      <trkpt lat="48.75848" lon="1.80272">
        <ele>174</ele>
        <time>2012-02-28T15:03:54.000Z</time>
      </trkpt>
      <trkpt lat="48.75853" lon="1.80255">
        <ele>174.60000610352</ele>
        <time>2012-02-28T15:04:03.000Z</time>
      </trkpt>
      <trkpt lat="48.75855" lon="1.80241">
        <ele>174.80000305176</ele>
        <time>2012-02-28T15:04:10.000Z</time>
      </trkpt>
      <trkpt lat="48.75856" lon="1.80221">
        <ele>174.80000305176</ele>
        <time>2012-02-28T15:04:19.000Z</time>
      </trkpt>
      <trkpt lat="48.75859" lon="1.80205">
        <ele>174.80000305176</ele>
        <time>2012-02-28T15:04:28.000Z</time>
      </trkpt>
      <trkpt lat="48.7586" lon="1.80193">
        <ele>174.80000305176</ele>
        <time>2012-02-28T15:04:34.000Z</time>
      </trkpt>
      <trkpt lat="48.75864" lon="1.80176">
        <ele>175</ele>
        <time>2012-02-28T15:04:43.000Z</time>
      </trkpt>
      <trkpt lat="48.75867" lon="1.80157">
        <ele>175.60000610352</ele>
        <time>2012-02-28T15:04:53.000Z</time>
      </trkpt>
      <trkpt lat="48.75869" lon="1.80139">
        <ele>176.19999694824</ele>
        <time>2012-02-28T15:05:02.000Z</time>
      </trkpt>
      <trkpt lat="48.75872" lon="1.80123">
        <ele>176.80000305176</ele>
        <time>2012-02-28T15:05:10.000Z</time>
      </trkpt>
      <trkpt lat="48.75874" lon="1.80106">
        <ele>177.39999389648</ele>
        <time>2012-02-28T15:05:18.000Z</time>
      </trkpt>
      <trkpt lat="48.75877" lon="1.8009">
        <ele>177.80000305176</ele>
        <time>2012-02-28T15:05:26.000Z</time>
      </trkpt>
      <trkpt lat="48.75877" lon="1.80083">
        <ele>178</ele>
        <time>2012-02-28T15:05:29.000Z</time>
      </trkpt>
      <trkpt lat="48.7588" lon="1.80069">
        <ele>178.39999389648</ele>
        <time>2012-02-28T15:05:36.000Z</time>
      </trkpt>
      <trkpt lat="48.75882" lon="1.80053">
        <ele>179</ele>
        <time>2012-02-28T15:05:44.000Z</time>
      </trkpt>
      <trkpt lat="48.75883" lon="1.80035">
        <ele>179.60000610352</ele>
        <time>2012-02-28T15:05:51.000Z</time>
      </trkpt>
      <trkpt lat="48.75886" lon="1.80018">
        <ele>180</ele>
        <time>2012-02-28T15:05:58.000Z</time>
      </trkpt>
      <trkpt lat="48.75886" lon="1.80007">
        <ele>180.39999389648</ele>
        <time>2012-02-28T15:06:02.000Z</time>
      </trkpt>
      <trkpt lat="48.75884" lon="1.79997">
        <ele>180.60000610352</ele>
        <time>2012-02-28T15:06:06.000Z</time>
      </trkpt>
      <trkpt lat="48.75885" lon="1.79984">
        <ele>180.80000305176</ele>
        <time>2012-02-28T15:06:12.000Z</time>
      </trkpt>
      <trkpt lat="48.75885" lon="1.7998">
        <ele>181</ele>
        <time>2012-02-28T15:06:17.000Z</time>
      </trkpt>
      <trkpt lat="48.75888" lon="1.79967">
        <ele>181.19999694824</ele>
        <time>2012-02-28T15:06:28.000Z</time>
      </trkpt>
      <trkpt lat="48.7589" lon="1.79949">
        <ele>181.60000610352</ele>
        <time>2012-02-28T15:06:35.000Z</time>
      </trkpt>
      <trkpt lat="48.7589" lon="1.79937">
        <ele>181.80000305176</ele>
        <time>2012-02-28T15:06:40.000Z</time>
      </trkpt>
      <trkpt lat="48.75893" lon="1.79922">
        <ele>182</ele>
        <time>2012-02-28T15:06:47.000Z</time>
      </trkpt>
      <trkpt lat="48.75895" lon="1.79914">
        <ele>182.19999694824</ele>
        <time>2012-02-28T15:06:51.000Z</time>
      </trkpt>
      <trkpt lat="48.75899" lon="1.799">
        <ele>182.39999389648</ele>
        <time>2012-02-28T15:06:58.000Z</time>
      </trkpt>
      <trkpt lat="48.75899" lon="1.79895">
        <ele>182.39999389648</ele>
        <time>2012-02-28T15:07:02.000Z</time>
      </trkpt>
      <trkpt lat="48.75902" lon="1.79883">
        <ele>182.60000610352</ele>
        <time>2012-02-28T15:07:08.000Z</time>
      </trkpt>
      <trkpt lat="48.75906" lon="1.79869">
        <ele>182.60000610352</ele>
        <time>2012-02-28T15:07:15.000Z</time>
      </trkpt>
      <trkpt lat="48.75907" lon="1.79864">
        <ele>182.80000305176</ele>
        <time>2012-02-28T15:07:17.000Z</time>
      </trkpt>
      <trkpt lat="48.75908" lon="1.79851">
        <ele>182.80000305176</ele>
        <time>2012-02-28T15:07:24.000Z</time>
      </trkpt>
      <trkpt lat="48.75909" lon="1.79838">
        <ele>182.80000305176</ele>
        <time>2012-02-28T15:07:30.000Z</time>
      </trkpt>
      <trkpt lat="48.75908" lon="1.79829">
        <ele>183</ele>
        <time>2012-02-28T15:07:34.000Z</time>
      </trkpt>
      <trkpt lat="48.75908" lon="1.79815">
        <ele>183.19999694824</ele>
        <time>2012-02-28T15:07:40.000Z</time>
      </trkpt>
      <trkpt lat="48.75908" lon="1.79803">
        <ele>183.60000610352</ele>
        <time>2012-02-28T15:07:45.000Z</time>
      </trkpt>
      <trkpt lat="48.75913" lon="1.79797">
        <ele>183.80000305176</ele>
        <time>2012-02-28T15:07:50.000Z</time>
      </trkpt>
      <trkpt lat="48.75916" lon="1.79781">
        <ele>184.19999694824</ele>
        <time>2012-02-28T15:07:57.000Z</time>
      </trkpt>
      <trkpt lat="48.75916" lon="1.79776">
        <ele>184.39999389648</ele>
        <time>2012-02-28T15:07:59.000Z</time>
      </trkpt>
      <trkpt lat="48.75917" lon="1.79765">
        <ele>184.60000610352</ele>
        <time>2012-02-28T15:08:05.000Z</time>
      </trkpt>
      <trkpt lat="48.75916" lon="1.79751">
        <ele>185</ele>
        <time>2012-02-28T15:08:11.000Z</time>
      </trkpt>
      <trkpt lat="48.7592" lon="1.79735">
        <ele>185.19999694824</ele>
        <time>2012-02-28T15:08:18.000Z</time>
      </trkpt>
      <trkpt lat="48.75923" lon="1.79717">
        <ele>185.60000610352</ele>
        <time>2012-02-28T15:08:26.000Z</time>
      </trkpt>
      <trkpt lat="48.75927" lon="1.797">
        <ele>185.80000305176</ele>
        <time>2012-02-28T15:08:34.000Z</time>
      </trkpt>
      <trkpt lat="48.75929" lon="1.79683">
        <ele>186.19999694824</ele>
        <time>2012-02-28T15:08:41.000Z</time>
      </trkpt>
      <trkpt lat="48.7593" lon="1.79668">
        <ele>186.39999389648</ele>
        <time>2012-02-28T15:08:47.000Z</time>
      </trkpt>
      <trkpt lat="48.75929" lon="1.7965">
        <ele>186.39999389648</ele>
        <time>2012-02-28T15:08:54.000Z</time>
      </trkpt>
      <trkpt lat="48.75932" lon="1.79639">
        <ele>186.60000610352</ele>
        <time>2012-02-28T15:08:59.000Z</time>
      </trkpt>
      <trkpt lat="48.75935" lon="1.79626">
        <ele>186.60000610352</ele>
        <time>2012-02-28T15:09:06.000Z</time>
      </trkpt>
      <trkpt lat="48.75938" lon="1.7962">
        <ele>186.80000305176</ele>
        <time>2012-02-28T15:09:10.000Z</time>
      </trkpt>
      <trkpt lat="48.75938" lon="1.7961">
        <ele>186.80000305176</ele>
        <time>2012-02-28T15:09:15.000Z</time>
      </trkpt>
      <trkpt lat="48.7594" lon="1.79585">
        <ele>186.80000305176</ele>
        <time>2012-02-28T15:09:25.000Z</time>
      </trkpt>
      <trkpt lat="48.75941" lon="1.79581">
        <ele>186.80000305176</ele>
        <time>2012-02-28T15:09:27.000Z</time>
      </trkpt>
      <trkpt lat="48.75942" lon="1.79572">
        <ele>187</ele>
        <time>2012-02-28T15:09:31.000Z</time>
      </trkpt>
      <trkpt lat="48.75943" lon="1.79568">
        <ele>187</ele>
        <time>2012-02-28T15:09:33.000Z</time>
      </trkpt>
      <trkpt lat="48.75946" lon="1.79554">
        <ele>187.19999694824</ele>
        <time>2012-02-28T15:09:40.000Z</time>
      </trkpt>
      <trkpt lat="48.75946" lon="1.79546">
        <ele>187.39999389648</ele>
        <time>2012-02-28T15:09:44.000Z</time>
      </trkpt>
      <trkpt lat="48.75947" lon="1.79527">
        <ele>187.60000610352</ele>
        <time>2012-02-28T15:09:51.000Z</time>
      </trkpt>
      <trkpt lat="48.75948" lon="1.79518">
        <ele>187.60000610352</ele>
        <time>2012-02-28T15:09:54.000Z</time>
      </trkpt>
      <trkpt lat="48.75948" lon="1.79501">
        <ele>187.80000305176</ele>
        <time>2012-02-28T15:10:02.000Z</time>
      </trkpt>
      <trkpt lat="48.75949" lon="1.79481">
        <ele>188</ele>
        <time>2012-02-28T15:10:11.000Z</time>
      </trkpt>
      <trkpt lat="48.75948" lon="1.79466">
        <ele>188.19999694824</ele>
        <time>2012-02-28T15:10:18.000Z</time>
      </trkpt>
      <trkpt lat="48.75949" lon="1.79452">
        <ele>188.39999389648</ele>
        <time>2012-02-28T15:10:24.000Z</time>
      </trkpt>
      <trkpt lat="48.75946" lon="1.79434">
        <ele>188.60000610352</ele>
        <time>2012-02-28T15:10:32.000Z</time>
      </trkpt>
      <trkpt lat="48.75945" lon="1.7942">
        <ele>188.60000610352</ele>
        <time>2012-02-28T15:10:38.000Z</time>
      </trkpt>
      <trkpt lat="48.75944" lon="1.79418">
        <ele>188.60000610352</ele>
        <time>2012-02-28T15:10:41.000Z</time>
      </trkpt>
      <trkpt lat="48.75943" lon="1.79412">
        <ele>188.60000610352</ele>
        <time>2012-02-28T15:10:45.000Z</time>
      </trkpt>
      <trkpt lat="48.75943" lon="1.79393">
        <ele>188.60000610352</ele>
        <time>2012-02-28T15:10:49.000Z</time>
      </trkpt>
      <trkpt lat="48.75939" lon="1.79358">
        <ele>188.39999389648</ele>
        <time>2012-02-28T15:10:56.000Z</time>
      </trkpt>
      <trkpt lat="48.75936" lon="1.79335">
        <ele>188.19999694824</ele>
        <time>2012-02-28T15:11:00.000Z</time>
      </trkpt>
      <trkpt lat="48.75934" lon="1.79299">
        <ele>188.80000305176</ele>
        <time>2012-02-28T15:11:07.000Z</time>
      </trkpt>
      <trkpt lat="48.7593" lon="1.7927">
        <ele>189</ele>
        <time>2012-02-28T15:11:13.000Z</time>
      </trkpt>
      <trkpt lat="48.7593" lon="1.79241">
        <ele>189.60000610352</ele>
        <time>2012-02-28T15:11:19.000Z</time>
      </trkpt>
      <trkpt lat="48.7593" lon="1.79207">
        <ele>190.19999694824</ele>
        <time>2012-02-28T15:11:26.000Z</time>
      </trkpt>
      <trkpt lat="48.75926" lon="1.79171">
        <ele>191</ele>
        <time>2012-02-28T15:11:32.000Z</time>
      </trkpt>
      <trkpt lat="48.75928" lon="1.7913">
        <ele>191.19999694824</ele>
        <time>2012-02-28T15:11:40.000Z</time>
      </trkpt>
      <trkpt lat="48.75927" lon="1.791">
        <ele>191.19999694824</ele>
        <time>2012-02-28T15:11:46.000Z</time>
      </trkpt>
      <trkpt lat="48.75925" lon="1.79073">
        <ele>191.19999694824</ele>
        <time>2012-02-28T15:11:51.000Z</time>
      </trkpt>
      <trkpt lat="48.7592" lon="1.79037">
        <ele>191.19999694824</ele>
        <time>2012-02-28T15:11:57.000Z</time>
      </trkpt>
      <trkpt lat="48.75918" lon="1.79009">
        <ele>191</ele>
        <time>2012-02-28T15:12:02.000Z</time>
      </trkpt>
      <trkpt lat="48.75919" lon="1.78984">
        <ele>191.39999389648</ele>
        <time>2012-02-28T15:12:07.000Z</time>
      </trkpt>
      <trkpt lat="48.75916" lon="1.78949">
        <ele>192.19999694824</ele>
        <time>2012-02-28T15:12:13.000Z</time>
      </trkpt>
      <trkpt lat="48.75915" lon="1.78918">
        <ele>193</ele>
        <time>2012-02-28T15:12:19.000Z</time>
      </trkpt>
      <trkpt lat="48.75914" lon="1.78888">
        <ele>193.19999694824</ele>
        <time>2012-02-28T15:12:24.000Z</time>
      </trkpt>
      <trkpt lat="48.75912" lon="1.78853">
        <ele>193.60000610352</ele>
        <time>2012-02-28T15:12:30.000Z</time>
      </trkpt>
      <trkpt lat="48.75912" lon="1.78841">
        <ele>193.80000305176</ele>
        <time>2012-02-28T15:12:32.000Z</time>
      </trkpt>
      <trkpt lat="48.75914" lon="1.78818">
        <ele>194</ele>
        <time>2012-02-28T15:12:36.000Z</time>
      </trkpt>
      <trkpt lat="48.75912" lon="1.78782">
        <ele>194</ele>
        <time>2012-02-28T15:12:42.000Z</time>
      </trkpt>
      <trkpt lat="48.75907" lon="1.78751">
        <ele>194</ele>
        <time>2012-02-28T15:12:48.000Z</time>
      </trkpt>
      <trkpt lat="48.75908" lon="1.78733">
        <ele>193.39999389648</ele>
        <time>2012-02-28T15:12:53.000Z</time>
      </trkpt>
      <trkpt lat="48.7591" lon="1.78733">
        <ele>193.39999389648</ele>
        <time>2012-02-28T15:12:58.000Z</time>
      </trkpt>
      <trkpt lat="48.75912" lon="1.78731">
        <ele>193.39999389648</ele>
        <time>2012-02-28T15:13:02.000Z</time>
      </trkpt>
      <trkpt lat="48.75908" lon="1.78715">
        <ele>192.80000305176</ele>
        <time>2012-02-28T15:20:02.000Z</time>
      </trkpt>
      <trkpt lat="48.75907" lon="1.78712">
        <ele>192.60000610352</ele>
        <time>2012-02-28T15:20:07.000Z</time>
      </trkpt>
      <trkpt lat="48.75908" lon="1.78712">
        <ele>192.60000610352</ele>
        <time>2012-02-28T15:20:09.000Z</time>
      </trkpt>
      <trkpt lat="48.75914" lon="1.78697">
        <ele>192.19999694824</ele>
        <time>2012-02-28T15:21:49.000Z</time>
      </trkpt>
      <trkpt lat="48.75912" lon="1.78678">
        <ele>191.39999389648</ele>
        <time>2012-02-28T15:21:56.000Z</time>
      </trkpt>
      <trkpt lat="48.75911" lon="1.78671">
        <ele>191.19999694824</ele>
        <time>2012-02-28T15:21:59.000Z</time>
      </trkpt>
      <trkpt lat="48.75911" lon="1.78655">
        <ele>191.39999389648</ele>
        <time>2012-02-28T15:22:07.000Z</time>
      </trkpt>
      <trkpt lat="48.75909" lon="1.7864">
        <ele>191.60000610352</ele>
        <time>2012-02-28T15:22:14.000Z</time>
      </trkpt>
      <trkpt lat="48.75907" lon="1.78631">
        <ele>191.80000305176</ele>
        <time>2012-02-28T15:22:19.000Z</time>
      </trkpt>
      <trkpt lat="48.75907" lon="1.78624">
        <ele>192</ele>
        <time>2012-02-28T15:22:23.000Z</time>
      </trkpt>
      <trkpt lat="48.75907" lon="1.78606">
        <ele>192.39999389648</ele>
        <time>2012-02-28T15:22:31.000Z</time>
      </trkpt>
      <trkpt lat="48.75905" lon="1.78589">
        <ele>192.80000305176</ele>
        <time>2012-02-28T15:22:39.000Z</time>
      </trkpt>
      <trkpt lat="48.75904" lon="1.78577">
        <ele>193</ele>
        <time>2012-02-28T15:22:44.000Z</time>
      </trkpt>
      <trkpt lat="48.75904" lon="1.78569">
        <ele>193.19999694824</ele>
        <time>2012-02-28T15:22:49.000Z</time>
      </trkpt>
      <trkpt lat="48.75905" lon="1.78564">
        <ele>193.39999389648</ele>
        <time>2012-02-28T15:22:52.000Z</time>
      </trkpt>
      <trkpt lat="48.75906" lon="1.78557">
        <ele>193.60000610352</ele>
        <time>2012-02-28T15:22:56.000Z</time>
      </trkpt>
      <trkpt lat="48.75906" lon="1.78545">
        <ele>193.80000305176</ele>
        <time>2012-02-28T15:23:01.000Z</time>
      </trkpt>
      <trkpt lat="48.75904" lon="1.78526">
        <ele>194.19999694824</ele>
        <time>2012-02-28T15:23:10.000Z</time>
      </trkpt>
      <trkpt lat="48.75903" lon="1.78519">
        <ele>194.39999389648</ele>
        <time>2012-02-28T15:23:17.000Z</time>
      </trkpt>
      <trkpt lat="48.75897" lon="1.78491">
        <ele>194.80000305176</ele>
        <time>2012-02-28T15:23:27.000Z</time>
      </trkpt>
      <trkpt lat="48.75896" lon="1.78488">
        <ele>194.80000305176</ele>
        <time>2012-02-28T15:23:31.000Z</time>
      </trkpt>
      <trkpt lat="48.75894" lon="1.78481">
        <ele>194.80000305176</ele>
        <time>2012-02-28T15:23:36.000Z</time>
      </trkpt>
      <trkpt lat="48.75898" lon="1.78468">
        <ele>194.80000305176</ele>
        <time>2012-02-28T15:23:41.000Z</time>
      </trkpt>
      <trkpt lat="48.75898" lon="1.78455">
        <ele>194.80000305176</ele>
        <time>2012-02-28T15:23:47.000Z</time>
      </trkpt>
      <trkpt lat="48.75898" lon="1.78445">
        <ele>195</ele>
        <time>2012-02-28T15:23:52.000Z</time>
      </trkpt>
      <trkpt lat="48.75898" lon="1.78433">
        <ele>195</ele>
        <time>2012-02-28T15:23:58.000Z</time>
      </trkpt>
      <trkpt lat="48.75896" lon="1.78412">
        <ele>195</ele>
        <time>2012-02-28T15:24:07.000Z</time>
      </trkpt>
      <trkpt lat="48.75895" lon="1.78399">
        <ele>195</ele>
        <time>2012-02-28T15:24:13.000Z</time>
      </trkpt>
      <trkpt lat="48.75893" lon="1.7839">
        <ele>195</ele>
        <time>2012-02-28T15:24:18.000Z</time>
      </trkpt>
      <trkpt lat="48.75894" lon="1.78379">
        <ele>195</ele>
        <time>2012-02-28T15:24:23.000Z</time>
      </trkpt>
      <trkpt lat="48.75894" lon="1.78365">
        <ele>195</ele>
        <time>2012-02-28T15:24:30.000Z</time>
      </trkpt>
      <trkpt lat="48.75897" lon="1.78354">
        <ele>195</ele>
        <time>2012-02-28T15:24:36.000Z</time>
      </trkpt>
      <trkpt lat="48.75897" lon="1.78348">
        <ele>195</ele>
        <time>2012-02-28T15:24:39.000Z</time>
      </trkpt>
      <trkpt lat="48.75893" lon="1.78341">
        <ele>195</ele>
        <time>2012-02-28T15:24:45.000Z</time>
      </trkpt>
      <trkpt lat="48.75893" lon="1.78338">
        <ele>195</ele>
        <time>2012-02-28T15:24:47.000Z</time>
      </trkpt>
      <trkpt lat="48.75892" lon="1.78324">
        <ele>195</ele>
        <time>2012-02-28T15:24:55.000Z</time>
      </trkpt>
      <trkpt lat="48.75892" lon="1.78319">
        <ele>195</ele>
        <time>2012-02-28T15:24:57.000Z</time>
      </trkpt>
      <trkpt lat="48.75891" lon="1.78309">
        <ele>195.19999694824</ele>
        <time>2012-02-28T15:25:01.000Z</time>
      </trkpt>
      <trkpt lat="48.75889" lon="1.78296">
        <ele>195.19999694824</ele>
        <time>2012-02-28T15:25:07.000Z</time>
      </trkpt>
      <trkpt lat="48.75889" lon="1.78291">
        <ele>195.19999694824</ele>
        <time>2012-02-28T15:25:09.000Z</time>
      </trkpt>
      <trkpt lat="48.75888" lon="1.78282">
        <ele>195.19999694824</ele>
        <time>2012-02-28T15:25:13.000Z</time>
      </trkpt>
      <trkpt lat="48.75887" lon="1.78267">
        <ele>195.19999694824</ele>
        <time>2012-02-28T15:25:19.000Z</time>
      </trkpt>
      <trkpt lat="48.75887" lon="1.78257">
        <ele>195.19999694824</ele>
        <time>2012-02-28T15:25:24.000Z</time>
      </trkpt>
      <trkpt lat="48.75886" lon="1.78248">
        <ele>195.19999694824</ele>
        <time>2012-02-28T15:25:28.000Z</time>
      </trkpt>
      <trkpt lat="48.75887" lon="1.78232">
        <ele>195.39999389648</ele>
        <time>2012-02-28T15:25:37.000Z</time>
      </trkpt>
      <trkpt lat="48.75887" lon="1.78229">
        <ele>195.39999389648</ele>
        <time>2012-02-28T15:25:38.000Z</time>
      </trkpt>
      <trkpt lat="48.75888" lon="1.78217">
        <ele>195.39999389648</ele>
        <time>2012-02-28T15:25:45.000Z</time>
      </trkpt>
      <trkpt lat="48.75888" lon="1.78209">
        <ele>195.39999389648</ele>
        <time>2012-02-28T15:25:51.000Z</time>
      </trkpt>
      <trkpt lat="48.75887" lon="1.78196">
        <ele>195.60000610352</ele>
        <time>2012-02-28T15:26:12.000Z</time>
      </trkpt>
      <trkpt lat="48.75888" lon="1.78188">
        <ele>195.60000610352</ele>
        <time>2012-02-28T15:26:17.000Z</time>
      </trkpt>
      <trkpt lat="48.75889" lon="1.78181">
        <ele>195.60000610352</ele>
        <time>2012-02-28T15:26:22.000Z</time>
      </trkpt>
      <trkpt lat="48.75887" lon="1.78165">
        <ele>195.60000610352</ele>
        <time>2012-02-28T15:26:28.000Z</time>
      </trkpt>
      <trkpt lat="48.75885" lon="1.78151">
        <ele>195.39999389648</ele>
        <time>2012-02-28T15:26:34.000Z</time>
      </trkpt>
      <trkpt lat="48.75883" lon="1.78139">
        <ele>195.39999389648</ele>
        <time>2012-02-28T15:26:39.000Z</time>
      </trkpt>
      <trkpt lat="48.75882" lon="1.78121">
        <ele>195.19999694824</ele>
        <time>2012-02-28T15:26:47.000Z</time>
      </trkpt>
      <trkpt lat="48.75881" lon="1.78107">
        <ele>195</ele>
        <time>2012-02-28T15:26:53.000Z</time>
      </trkpt>
      <trkpt lat="48.7588" lon="1.78094">
        <ele>195</ele>
        <time>2012-02-28T15:26:59.000Z</time>
      </trkpt>
      <trkpt lat="48.7588" lon="1.78089">
        <ele>195</ele>
        <time>2012-02-28T15:27:01.000Z</time>
      </trkpt>
      <trkpt lat="48.75876" lon="1.78073">
        <ele>195</ele>
        <time>2012-02-28T15:27:08.000Z</time>
      </trkpt>
      <trkpt lat="48.75875" lon="1.7807">
        <ele>195</ele>
        <time>2012-02-28T15:27:09.000Z</time>
      </trkpt>
      <trkpt lat="48.75875" lon="1.78061">
        <ele>195.19999694824</ele>
        <time>2012-02-28T15:27:14.000Z</time>
      </trkpt>
      <trkpt lat="48.75878" lon="1.78045">
        <ele>195.19999694824</ele>
        <time>2012-02-28T15:27:21.000Z</time>
      </trkpt>
      <trkpt lat="48.75878" lon="1.7804">
        <ele>195.19999694824</ele>
        <time>2012-02-28T15:27:23.000Z</time>
      </trkpt>
      <trkpt lat="48.75877" lon="1.7804">
        <ele>195.19999694824</ele>
        <time>2012-02-28T15:27:31.000Z</time>
      </trkpt>
      <trkpt lat="48.75875" lon="1.78039">
        <ele>195.19999694824</ele>
        <time>2012-02-28T15:27:38.000Z</time>
      </trkpt>
      <trkpt lat="48.75874" lon="1.78017">
        <ele>195.39999389648</ele>
        <time>2012-02-28T15:27:42.000Z</time>
      </trkpt>
      <trkpt lat="48.75873" lon="1.78003">
        <ele>195.39999389648</ele>
        <time>2012-02-28T15:27:47.000Z</time>
      </trkpt>
      <trkpt lat="48.75872" lon="1.77997">
        <ele>195.39999389648</ele>
        <time>2012-02-28T15:27:49.000Z</time>
      </trkpt>
      <trkpt lat="48.75872" lon="1.77986">
        <ele>195.39999389648</ele>
        <time>2012-02-28T15:27:53.000Z</time>
      </trkpt>
      <trkpt lat="48.75873" lon="1.77968">
        <ele>195.19999694824</ele>
        <time>2012-02-28T15:28:01.000Z</time>
      </trkpt>
      <trkpt lat="48.75872" lon="1.77953">
        <ele>195</ele>
        <time>2012-02-28T15:28:08.000Z</time>
      </trkpt>
      <trkpt lat="48.75872" lon="1.77945">
        <ele>194.80000305176</ele>
        <time>2012-02-28T15:28:11.000Z</time>
      </trkpt>
      <trkpt lat="48.75871" lon="1.77931">
        <ele>194.80000305176</ele>
        <time>2012-02-28T15:28:17.000Z</time>
      </trkpt>
      <trkpt lat="48.75871" lon="1.77927">
        <ele>194.60000610352</ele>
        <time>2012-02-28T15:28:19.000Z</time>
      </trkpt>
      <trkpt lat="48.75872" lon="1.7791">
        <ele>194.60000610352</ele>
        <time>2012-02-28T15:28:27.000Z</time>
      </trkpt>
      <trkpt lat="48.75872" lon="1.77901">
        <ele>194.60000610352</ele>
        <time>2012-02-28T15:28:31.000Z</time>
      </trkpt>
      <trkpt lat="48.75872" lon="1.77895">
        <ele>194.60000610352</ele>
        <time>2012-02-28T15:28:34.000Z</time>
      </trkpt>
      <trkpt lat="48.75873" lon="1.77883">
        <ele>194.80000305176</ele>
        <time>2012-02-28T15:28:40.000Z</time>
      </trkpt>
      <trkpt lat="48.75872" lon="1.77878">
        <ele>194.80000305176</ele>
        <time>2012-02-28T15:28:42.000Z</time>
      </trkpt>
      <trkpt lat="48.75871" lon="1.77864">
        <ele>194.80000305176</ele>
        <time>2012-02-28T15:28:49.000Z</time>
      </trkpt>
      <trkpt lat="48.75869" lon="1.77853">
        <ele>195</ele>
        <time>2012-02-28T15:28:54.000Z</time>
      </trkpt>
      <trkpt lat="48.75869" lon="1.77851">
        <ele>195</ele>
        <time>2012-02-28T15:28:55.000Z</time>
      </trkpt>
      <trkpt lat="48.75868" lon="1.77838">
        <ele>195.19999694824</ele>
        <time>2012-02-28T15:29:01.000Z</time>
      </trkpt>
      <trkpt lat="48.75867" lon="1.77824">
        <ele>195.19999694824</ele>
        <time>2012-02-28T15:29:07.000Z</time>
      </trkpt>
      <trkpt lat="48.75865" lon="1.77818">
        <ele>195</ele>
        <time>2012-02-28T15:29:09.000Z</time>
      </trkpt>
      <trkpt lat="48.75864" lon="1.77815">
        <ele>195</ele>
        <time>2012-02-28T15:29:13.000Z</time>
      </trkpt>
      <trkpt lat="48.75865" lon="1.77806">
        <ele>195</ele>
        <time>2012-02-28T15:29:21.000Z</time>
      </trkpt>
      <trkpt lat="48.75864" lon="1.77794">
        <ele>194.80000305176</ele>
        <time>2012-02-28T15:29:26.000Z</time>
      </trkpt>
      <trkpt lat="48.75861" lon="1.77779">
        <ele>194.60000610352</ele>
        <time>2012-02-28T15:29:33.000Z</time>
      </trkpt>
      <trkpt lat="48.75862" lon="1.7777">
        <ele>194.60000610352</ele>
        <time>2012-02-28T15:29:39.000Z</time>
      </trkpt>
      <trkpt lat="48.75862" lon="1.77766">
        <ele>194.60000610352</ele>
        <time>2012-02-28T15:29:41.000Z</time>
      </trkpt>
      <trkpt lat="48.75864" lon="1.77752">
        <ele>194.39999389648</ele>
        <time>2012-02-28T15:29:49.000Z</time>
      </trkpt>
      <trkpt lat="48.75863" lon="1.7774">
        <ele>194.19999694824</ele>
        <time>2012-02-28T15:29:55.000Z</time>
      </trkpt>
      <trkpt lat="48.75863" lon="1.77732">
        <ele>194</ele>
        <time>2012-02-28T15:30:00.000Z</time>
      </trkpt>
      <trkpt lat="48.75862" lon="1.77716">
        <ele>193.60000610352</ele>
        <time>2012-02-28T15:30:09.000Z</time>
      </trkpt>
      <trkpt lat="48.75859" lon="1.7771">
        <ele>193.39999389648</ele>
        <time>2012-02-28T15:30:17.000Z</time>
      </trkpt>
      <trkpt lat="48.75858" lon="1.77709">
        <ele>193.39999389648</ele>
        <time>2012-02-28T15:30:20.000Z</time>
      </trkpt>
      <trkpt lat="48.7586" lon="1.77702">
        <ele>193.19999694824</ele>
        <time>2012-02-28T15:30:35.000Z</time>
      </trkpt>
      <trkpt lat="48.75859" lon="1.77692">
        <ele>193</ele>
        <time>2012-02-28T15:30:39.000Z</time>
      </trkpt>
      <trkpt lat="48.75858" lon="1.77679">
        <ele>192.60000610352</ele>
        <time>2012-02-28T15:30:46.000Z</time>
      </trkpt>
      <trkpt lat="48.75857" lon="1.77671">
        <ele>192.39999389648</ele>
        <time>2012-02-28T15:30:50.000Z</time>
      </trkpt>
      <trkpt lat="48.75856" lon="1.7765">
        <ele>192.39999389648</ele>
        <time>2012-02-28T15:31:00.000Z</time>
      </trkpt>
      <trkpt lat="48.75854" lon="1.77635">
        <ele>192.39999389648</ele>
        <time>2012-02-28T15:31:06.000Z</time>
      </trkpt>
      <trkpt lat="48.7585" lon="1.77615">
        <ele>192.39999389648</ele>
        <time>2012-02-28T15:31:14.000Z</time>
      </trkpt>
      <trkpt lat="48.75848" lon="1.77596">
        <ele>192.39999389648</ele>
        <time>2012-02-28T15:31:22.000Z</time>
      </trkpt>
      <trkpt lat="48.75847" lon="1.77589">
        <ele>192.39999389648</ele>
        <time>2012-02-28T15:31:25.000Z</time>
      </trkpt>
      <trkpt lat="48.75845" lon="1.77584">
        <ele>192.19999694824</ele>
        <time>2012-02-28T15:31:28.000Z</time>
      </trkpt>
      <trkpt lat="48.75848" lon="1.77574">
        <ele>192.19999694824</ele>
        <time>2012-02-28T15:31:34.000Z</time>
      </trkpt>
      <trkpt lat="48.75848" lon="1.77564">
        <ele>192</ele>
        <time>2012-02-28T15:31:39.000Z</time>
      </trkpt>
      <trkpt lat="48.75845" lon="1.77552">
        <ele>191.80000305176</ele>
        <time>2012-02-28T15:31:44.000Z</time>
      </trkpt>
      <trkpt lat="48.75845" lon="1.77542">
        <ele>191.60000610352</ele>
        <time>2012-02-28T15:31:52.000Z</time>
      </trkpt>
      <trkpt lat="48.75845" lon="1.77535">
        <ele>191.39999389648</ele>
        <time>2012-02-28T15:31:59.000Z</time>
      </trkpt>
      <trkpt lat="48.75844" lon="1.77521">
        <ele>191.19999694824</ele>
        <time>2012-02-28T15:32:05.000Z</time>
      </trkpt>
      <trkpt lat="48.75841" lon="1.77506">
        <ele>191</ele>
        <time>2012-02-28T15:32:12.000Z</time>
      </trkpt>
      <trkpt lat="48.75837" lon="1.77491">
        <ele>190.80000305176</ele>
        <time>2012-02-28T15:32:18.000Z</time>
      </trkpt>
      <trkpt lat="48.75837" lon="1.77474">
        <ele>190.60000610352</ele>
        <time>2012-02-28T15:32:26.000Z</time>
      </trkpt>
      <trkpt lat="48.75836" lon="1.77462">
        <ele>190.60000610352</ele>
        <time>2012-02-28T15:32:32.000Z</time>
      </trkpt>
      <trkpt lat="48.75835" lon="1.77441">
        <ele>190.19999694824</ele>
        <time>2012-02-28T15:32:42.000Z</time>
      </trkpt>
      <trkpt lat="48.75834" lon="1.77425">
        <ele>190.19999694824</ele>
        <time>2012-02-28T15:32:49.000Z</time>
      </trkpt>
      <trkpt lat="48.75831" lon="1.77409">
        <ele>190</ele>
        <time>2012-02-28T15:32:56.000Z</time>
      </trkpt>
      <trkpt lat="48.75829" lon="1.77395">
        <ele>189.80000305176</ele>
        <time>2012-02-28T15:33:03.000Z</time>
      </trkpt>
      <trkpt lat="48.75829" lon="1.77394">
        <ele>189.80000305176</ele>
        <time>2012-02-28T15:33:05.000Z</time>
      </trkpt>
      <trkpt lat="48.75829" lon="1.77388">
        <ele>190</ele>
        <time>2012-02-28T15:33:11.000Z</time>
      </trkpt>
      <trkpt lat="48.75827" lon="1.77378">
        <ele>189.80000305176</ele>
        <time>2012-02-28T15:33:14.000Z</time>
      </trkpt>
      <trkpt lat="48.75824" lon="1.77366">
        <ele>189.80000305176</ele>
        <time>2012-02-28T15:33:20.000Z</time>
      </trkpt>
      <trkpt lat="48.75824" lon="1.77364">
        <ele>189.80000305176</ele>
        <time>2012-02-28T15:33:22.000Z</time>
      </trkpt>
      <trkpt lat="48.75824" lon="1.77354">
        <ele>189.80000305176</ele>
        <time>2012-02-28T15:33:27.000Z</time>
      </trkpt>
      <trkpt lat="48.75824" lon="1.77352">
        <ele>189.80000305176</ele>
        <time>2012-02-28T15:33:28.000Z</time>
      </trkpt>
      <trkpt lat="48.75823" lon="1.77339">
        <ele>189.80000305176</ele>
        <time>2012-02-28T15:33:34.000Z</time>
      </trkpt>
      <trkpt lat="48.75823" lon="1.77337">
        <ele>189.80000305176</ele>
        <time>2012-02-28T15:33:35.000Z</time>
      </trkpt>
      <trkpt lat="48.75824" lon="1.77324">
        <ele>190</ele>
        <time>2012-02-28T15:33:41.000Z</time>
      </trkpt>
      <trkpt lat="48.75822" lon="1.77305">
        <ele>190.19999694824</ele>
        <time>2012-02-28T15:33:49.000Z</time>
      </trkpt>
      <trkpt lat="48.7582" lon="1.77295">
        <ele>190.39999389648</ele>
        <time>2012-02-28T15:33:53.000Z</time>
      </trkpt>
      <trkpt lat="48.75821" lon="1.77289">
        <ele>190.39999389648</ele>
        <time>2012-02-28T15:33:57.000Z</time>
      </trkpt>
      <trkpt lat="48.75819" lon="1.77272">
        <ele>190.60000610352</ele>
        <time>2012-02-28T15:34:04.000Z</time>
      </trkpt>
      <trkpt lat="48.75816" lon="1.77259">
        <ele>190.60000610352</ele>
        <time>2012-02-28T15:34:09.000Z</time>
      </trkpt>
      <trkpt lat="48.75816" lon="1.77248">
        <ele>190.80000305176</ele>
        <time>2012-02-28T15:34:14.000Z</time>
      </trkpt>
      <trkpt lat="48.75815" lon="1.77233">
        <ele>190.80000305176</ele>
        <time>2012-02-28T15:34:20.000Z</time>
      </trkpt>
      <trkpt lat="48.75813" lon="1.77222">
        <ele>190.80000305176</ele>
        <time>2012-02-28T15:34:24.000Z</time>
      </trkpt>
      <trkpt lat="48.75812" lon="1.77216">
        <ele>190.80000305176</ele>
        <time>2012-02-28T15:34:27.000Z</time>
      </trkpt>
      <trkpt lat="48.7581" lon="1.77206">
        <ele>190.80000305176</ele>
        <time>2012-02-28T15:34:33.000Z</time>
      </trkpt>
      <trkpt lat="48.75808" lon="1.77197">
        <ele>190.60000610352</ele>
        <time>2012-02-28T15:34:46.000Z</time>
      </trkpt>
      <trkpt lat="48.75808" lon="1.77188">
        <ele>190.60000610352</ele>
        <time>2012-02-28T15:34:49.000Z</time>
      </trkpt>
      <trkpt lat="48.75806" lon="1.77167">
        <ele>190.60000610352</ele>
        <time>2012-02-28T15:34:58.000Z</time>
      </trkpt>
      <trkpt lat="48.75803" lon="1.77154">
        <ele>190.39999389648</ele>
        <time>2012-02-28T15:35:03.000Z</time>
      </trkpt>
      <trkpt lat="48.75801" lon="1.7714">
        <ele>190.19999694824</ele>
        <time>2012-02-28T15:35:10.000Z</time>
      </trkpt>
      <trkpt lat="48.75799" lon="1.7713">
        <ele>190</ele>
        <time>2012-02-28T15:35:16.000Z</time>
      </trkpt>
      <trkpt lat="48.75798" lon="1.77123">
        <ele>190</ele>
        <time>2012-02-28T15:35:23.000Z</time>
      </trkpt>
      <trkpt lat="48.75795" lon="1.77111">
        <ele>189.80000305176</ele>
        <time>2012-02-28T15:35:28.000Z</time>
      </trkpt>
      <trkpt lat="48.75791" lon="1.77088">
        <ele>189.39999389648</ele>
        <time>2012-02-28T15:35:37.000Z</time>
      </trkpt>
      <trkpt lat="48.75791" lon="1.77074">
        <ele>189.39999389648</ele>
        <time>2012-02-28T15:35:44.000Z</time>
      </trkpt>
      <trkpt lat="48.75791" lon="1.77065">
        <ele>189.39999389648</ele>
        <time>2012-02-28T15:35:48.000Z</time>
      </trkpt>
      <trkpt lat="48.75792" lon="1.7705">
        <ele>189.39999389648</ele>
        <time>2012-02-28T15:35:55.000Z</time>
      </trkpt>
      <trkpt lat="48.75792" lon="1.77039">
        <ele>189.19999694824</ele>
        <time>2012-02-28T15:36:00.000Z</time>
      </trkpt>
      <trkpt lat="48.75788" lon="1.77016">
        <ele>188.80000305176</ele>
        <time>2012-02-28T15:36:09.000Z</time>
      </trkpt>
      <trkpt lat="48.75786" lon="1.76997">
        <ele>188.60000610352</ele>
        <time>2012-02-28T15:36:17.000Z</time>
      </trkpt>
      <trkpt lat="48.75785" lon="1.76981">
        <ele>188.39999389648</ele>
        <time>2012-02-28T15:36:24.000Z</time>
      </trkpt>
      <trkpt lat="48.75785" lon="1.76967">
        <ele>188.39999389648</ele>
        <time>2012-02-28T15:36:30.000Z</time>
      </trkpt>
      <trkpt lat="48.75783" lon="1.7695">
        <ele>188.19999694824</ele>
        <time>2012-02-28T15:36:38.000Z</time>
      </trkpt>
      <trkpt lat="48.75781" lon="1.76933">
        <ele>188</ele>
        <time>2012-02-28T15:36:45.000Z</time>
      </trkpt>
      <trkpt lat="48.75778" lon="1.76917">
        <ele>187.80000305176</ele>
        <time>2012-02-28T15:36:52.000Z</time>
      </trkpt>
      <trkpt lat="48.75778" lon="1.76904">
        <ele>188</ele>
        <time>2012-02-28T15:36:58.000Z</time>
      </trkpt>
      <trkpt lat="48.75778" lon="1.76882">
        <ele>188.39999389648</ele>
        <time>2012-02-28T15:37:08.000Z</time>
      </trkpt>
      <trkpt lat="48.75777" lon="1.76871">
        <ele>188.60000610352</ele>
        <time>2012-02-28T15:37:14.000Z</time>
      </trkpt>
      <trkpt lat="48.75777" lon="1.76868">
        <ele>188.60000610352</ele>
        <time>2012-02-28T15:37:18.000Z</time>
      </trkpt>
      <trkpt lat="48.75772" lon="1.76861">
        <ele>188.39999389648</ele>
        <time>2012-02-28T15:37:25.000Z</time>
      </trkpt>
      <trkpt lat="48.75764" lon="1.76852">
        <ele>188.19999694824</ele>
        <time>2012-02-28T15:37:31.000Z</time>
      </trkpt>
      <trkpt lat="48.7576" lon="1.76848">
        <ele>188.19999694824</ele>
        <time>2012-02-28T15:37:34.000Z</time>
      </trkpt>
      <trkpt lat="48.75759" lon="1.76844">
        <ele>188.19999694824</ele>
        <time>2012-02-28T15:37:39.000Z</time>
      </trkpt>
      <trkpt lat="48.75754" lon="1.76844">
        <ele>188</ele>
        <time>2012-02-28T15:37:54.000Z</time>
      </trkpt>
      <trkpt lat="48.75745" lon="1.76841">
        <ele>187.60000610352</ele>
        <time>2012-02-28T15:38:00.000Z</time>
      </trkpt>
      <trkpt lat="48.75738" lon="1.76839">
        <ele>187.39999389648</ele>
        <time>2012-02-28T15:38:05.000Z</time>
      </trkpt>
      <trkpt lat="48.75728" lon="1.76836">
        <ele>187.19999694824</ele>
        <time>2012-02-28T15:38:11.000Z</time>
      </trkpt>
      <trkpt lat="48.75718" lon="1.76837">
        <ele>186.80000305176</ele>
        <time>2012-02-28T15:38:18.000Z</time>
      </trkpt>
      <trkpt lat="48.75708" lon="1.76838">
        <ele>186.39999389648</ele>
        <time>2012-02-28T15:38:24.000Z</time>
      </trkpt>
      <trkpt lat="48.75698" lon="1.76835">
        <ele>186</ele>
        <time>2012-02-28T15:38:31.000Z</time>
      </trkpt>
      <trkpt lat="48.75686" lon="1.7683">
        <ele>185.80000305176</ele>
        <time>2012-02-28T15:38:39.000Z</time>
      </trkpt>
      <trkpt lat="48.75676" lon="1.76826">
        <ele>185.60000610352</ele>
        <time>2012-02-28T15:38:46.000Z</time>
      </trkpt>
      <trkpt lat="48.75664" lon="1.76823">
        <ele>185.39999389648</ele>
        <time>2012-02-28T15:38:54.000Z</time>
      </trkpt>
      <trkpt lat="48.75656" lon="1.76819">
        <ele>185.39999389648</ele>
        <time>2012-02-28T15:39:00.000Z</time>
      </trkpt>
      <trkpt lat="48.75642" lon="1.76815">
        <ele>185.60000610352</ele>
        <time>2012-02-28T15:39:09.000Z</time>
      </trkpt>
      <trkpt lat="48.75628" lon="1.76812">
        <ele>185.60000610352</ele>
        <time>2012-02-28T15:39:17.000Z</time>
      </trkpt>
      <trkpt lat="48.75617" lon="1.76808">
        <ele>185.80000305176</ele>
        <time>2012-02-28T15:39:24.000Z</time>
      </trkpt>
      <trkpt lat="48.75612" lon="1.76806">
        <ele>185.80000305176</ele>
        <time>2012-02-28T15:39:28.000Z</time>
      </trkpt>
      <trkpt lat="48.75606" lon="1.76801">
        <ele>185.80000305176</ele>
        <time>2012-02-28T15:39:33.000Z</time>
      </trkpt>
      <trkpt lat="48.75605" lon="1.768">
        <ele>186</ele>
        <time>2012-02-28T15:39:36.000Z</time>
      </trkpt>
      <trkpt lat="48.756" lon="1.76798">
        <ele>186</ele>
        <time>2012-02-28T15:39:42.000Z</time>
      </trkpt>
      <trkpt lat="48.75593" lon="1.76796">
        <ele>186</ele>
        <time>2012-02-28T15:39:46.000Z</time>
      </trkpt>
      <trkpt lat="48.75583" lon="1.76794">
        <ele>186</ele>
        <time>2012-02-28T15:39:53.000Z</time>
      </trkpt>
      <trkpt lat="48.75583" lon="1.76794">
        <ele>186</ele>
        <time>2012-02-28T15:39:55.000Z</time>
      </trkpt>
      <trkpt lat="48.75576" lon="1.76791">
        <ele>186</ele>
        <time>2012-02-28T15:40:03.000Z</time>
      </trkpt>
      <trkpt lat="48.75567" lon="1.76789">
        <ele>186</ele>
        <time>2012-02-28T15:40:08.000Z</time>
      </trkpt>
      <trkpt lat="48.75563" lon="1.76787">
        <ele>186</ele>
        <time>2012-02-28T15:40:11.000Z</time>
      </trkpt>
      <trkpt lat="48.75552" lon="1.76786">
        <ele>186</ele>
        <time>2012-02-28T15:40:18.000Z</time>
      </trkpt>
      <trkpt lat="48.7555" lon="1.76785">
        <ele>186</ele>
        <time>2012-02-28T15:40:20.000Z</time>
      </trkpt>
      <trkpt lat="48.75538" lon="1.76782">
        <ele>186.19999694824</ele>
        <time>2012-02-28T15:40:28.000Z</time>
      </trkpt>
      <trkpt lat="48.75527" lon="1.76781">
        <ele>186.19999694824</ele>
        <time>2012-02-28T15:40:35.000Z</time>
      </trkpt>
      <trkpt lat="48.75522" lon="1.76776">
        <ele>186.39999389648</ele>
        <time>2012-02-28T15:40:39.000Z</time>
      </trkpt>
      <trkpt lat="48.75519" lon="1.76773">
        <ele>186.60000610352</ele>
        <time>2012-02-28T15:40:45.000Z</time>
      </trkpt>
      <trkpt lat="48.75513" lon="1.76773">
        <ele>186.60000610352</ele>
        <time>2012-02-28T15:40:51.000Z</time>
      </trkpt>
      <trkpt lat="48.75508" lon="1.76772">
        <ele>186.60000610352</ele>
        <time>2012-02-28T15:40:56.000Z</time>
      </trkpt>
      <trkpt lat="48.75501" lon="1.7677">
        <ele>186.80000305176</ele>
        <time>2012-02-28T15:41:01.000Z</time>
      </trkpt>
      <trkpt lat="48.75489" lon="1.76766">
        <ele>187</ele>
        <time>2012-02-28T15:41:08.000Z</time>
      </trkpt>
      <trkpt lat="48.75471" lon="1.76761">
        <ele>187.39999389648</ele>
        <time>2012-02-28T15:41:19.000Z</time>
      </trkpt>
      <trkpt lat="48.75469" lon="1.7676">
        <ele>187.39999389648</ele>
        <time>2012-02-28T15:41:20.000Z</time>
      </trkpt>
      <trkpt lat="48.75458" lon="1.76756">
        <ele>187.80000305176</ele>
        <time>2012-02-28T15:41:28.000Z</time>
      </trkpt>
      <trkpt lat="48.75456" lon="1.76755">
        <ele>187.80000305176</ele>
        <time>2012-02-28T15:41:29.000Z</time>
      </trkpt>
      <trkpt lat="48.75444" lon="1.76754">
        <ele>187.80000305176</ele>
        <time>2012-02-28T15:41:37.000Z</time>
      </trkpt>
      <trkpt lat="48.75436" lon="1.76752">
        <ele>188</ele>
        <time>2012-02-28T15:41:42.000Z</time>
      </trkpt>
      <trkpt lat="48.75426" lon="1.76746">
        <ele>188.19999694824</ele>
        <time>2012-02-28T15:41:49.000Z</time>
      </trkpt>
      <trkpt lat="48.75426" lon="1.76746">
        <ele>188.19999694824</ele>
        <time>2012-02-28T15:41:51.000Z</time>
      </trkpt>
      <trkpt lat="48.75422" lon="1.76745">
        <ele>188.19999694824</ele>
        <time>2012-02-28T15:41:55.000Z</time>
      </trkpt>
      <trkpt lat="48.75412" lon="1.76743">
        <ele>188.19999694824</ele>
        <time>2012-02-28T15:42:00.000Z</time>
      </trkpt>
      <trkpt lat="48.75401" lon="1.7674">
        <ele>188</ele>
        <time>2012-02-28T15:42:07.000Z</time>
      </trkpt>
      <trkpt lat="48.754" lon="1.76738">
        <ele>188</ele>
        <time>2012-02-28T15:42:10.000Z</time>
      </trkpt>
      <trkpt lat="48.75388" lon="1.76737">
        <ele>187.80000305176</ele>
        <time>2012-02-28T15:42:26.000Z</time>
      </trkpt>
      <trkpt lat="48.75382" lon="1.76735">
        <ele>187.80000305176</ele>
        <time>2012-02-28T15:42:29.000Z</time>
      </trkpt>
      <trkpt lat="48.75368" lon="1.7673">
        <ele>187.60000610352</ele>
        <time>2012-02-28T15:42:39.000Z</time>
      </trkpt>
      <trkpt lat="48.75367" lon="1.7673">
        <ele>187.60000610352</ele>
        <time>2012-02-28T15:42:40.000Z</time>
      </trkpt>
      <trkpt lat="48.7536" lon="1.7673">
        <ele>187.39999389648</ele>
        <time>2012-02-28T15:42:47.000Z</time>
      </trkpt>
      <trkpt lat="48.75354" lon="1.76725">
        <ele>187.39999389648</ele>
        <time>2012-02-28T15:42:52.000Z</time>
      </trkpt>
      <trkpt lat="48.75339" lon="1.76724">
        <ele>187</ele>
        <time>2012-02-28T15:43:01.000Z</time>
      </trkpt>
      <trkpt lat="48.75329" lon="1.76722">
        <ele>186.80000305176</ele>
        <time>2012-02-28T15:43:08.000Z</time>
      </trkpt>
      <trkpt lat="48.75319" lon="1.76718">
        <ele>186.80000305176</ele>
        <time>2012-02-28T15:43:15.000Z</time>
      </trkpt>
      <trkpt lat="48.75314" lon="1.76717">
        <ele>186.60000610352</ele>
        <time>2012-02-28T15:43:18.000Z</time>
      </trkpt>
      <trkpt lat="48.75301" lon="1.76714">
        <ele>186.19999694824</ele>
        <time>2012-02-28T15:43:27.000Z</time>
      </trkpt>
      <trkpt lat="48.7529" lon="1.76709">
        <ele>186.19999694824</ele>
        <time>2012-02-28T15:43:34.000Z</time>
      </trkpt>
      <trkpt lat="48.75287" lon="1.76707">
        <ele>186.19999694824</ele>
        <time>2012-02-28T15:43:36.000Z</time>
      </trkpt>
      <trkpt lat="48.75276" lon="1.76706">
        <ele>185.80000305176</ele>
        <time>2012-02-28T15:43:43.000Z</time>
      </trkpt>
      <trkpt lat="48.75266" lon="1.76702">
        <ele>185.80000305176</ele>
        <time>2012-02-28T15:43:50.000Z</time>
      </trkpt>
      <trkpt lat="48.75264" lon="1.76701">
        <ele>185.80000305176</ele>
        <time>2012-02-28T15:43:55.000Z</time>
      </trkpt>
      <trkpt lat="48.75264" lon="1.76701">
        <ele>185.80000305176</ele>
        <time>2012-02-28T15:43:56.000Z</time>
      </trkpt>
      <trkpt lat="48.75258" lon="1.767">
        <ele>185.60000610352</ele>
        <time>2012-02-28T15:44:05.000Z</time>
      </trkpt>
      <trkpt lat="48.75253" lon="1.76702">
        <ele>185.39999389648</ele>
        <time>2012-02-28T15:44:10.000Z</time>
      </trkpt>
      <trkpt lat="48.75253" lon="1.76702">
        <ele>185.39999389648</ele>
        <time>2012-02-28T15:44:12.000Z</time>
      </trkpt>
      <trkpt lat="48.75226" lon="1.76696">
        <ele>186.80000305176</ele>
        <time>2012-02-28T15:44:51.000Z</time>
      </trkpt>
      <trkpt lat="48.7522" lon="1.76693">
        <ele>187.19999694824</ele>
        <time>2012-02-28T15:44:57.000Z</time>
      </trkpt>
      <trkpt lat="48.75216" lon="1.76691">
        <ele>187.39999389648</ele>
        <time>2012-02-28T15:45:06.000Z</time>
      </trkpt>
      <trkpt lat="48.75204" lon="1.76685">
        <ele>188.19999694824</ele>
        <time>2012-02-28T15:45:10.000Z</time>
      </trkpt>
      <trkpt lat="48.75195" lon="1.76682">
        <ele>188.80000305176</ele>
        <time>2012-02-28T15:45:16.000Z</time>
      </trkpt>
      <trkpt lat="48.75181" lon="1.76676">
        <ele>189.80000305176</ele>
        <time>2012-02-28T15:45:25.000Z</time>
      </trkpt>
      <trkpt lat="48.75179" lon="1.76675">
        <ele>190</ele>
        <time>2012-02-28T15:45:26.000Z</time>
      </trkpt>
      <trkpt lat="48.7517" lon="1.76672">
        <ele>190.60000610352</ele>
        <time>2012-02-28T15:45:32.000Z</time>
      </trkpt>
      <trkpt lat="48.75158" lon="1.76671">
        <ele>191.19999694824</ele>
        <time>2012-02-28T15:45:40.000Z</time>
      </trkpt>
      <trkpt lat="48.75149" lon="1.76672">
        <ele>191.39999389648</ele>
        <time>2012-02-28T15:45:46.000Z</time>
      </trkpt>
      <trkpt lat="48.75138" lon="1.76667">
        <ele>192</ele>
        <time>2012-02-28T15:45:53.000Z</time>
      </trkpt>
      <trkpt lat="48.75127" lon="1.7666">
        <ele>192.60000610352</ele>
        <time>2012-02-28T15:46:00.000Z</time>
      </trkpt>
      <trkpt lat="48.75116" lon="1.76655">
        <ele>193</ele>
        <time>2012-02-28T15:46:06.000Z</time>
      </trkpt>
      <trkpt lat="48.75106" lon="1.76652">
        <ele>193.39999389648</ele>
        <time>2012-02-28T15:46:11.000Z</time>
      </trkpt>
      <trkpt lat="48.75098" lon="1.76651">
        <ele>193.80000305176</ele>
        <time>2012-02-28T15:46:17.000Z</time>
      </trkpt>
      <trkpt lat="48.75087" lon="1.76649">
        <ele>194</ele>
        <time>2012-02-28T15:46:24.000Z</time>
      </trkpt>
      <trkpt lat="48.75082" lon="1.76649">
        <ele>194.19999694824</ele>
        <time>2012-02-28T15:46:28.000Z</time>
      </trkpt>
      <trkpt lat="48.75077" lon="1.76647">
        <ele>194.19999694824</ele>
        <time>2012-02-28T15:46:32.000Z</time>
      </trkpt>
      <trkpt lat="48.7507" lon="1.76641">
        <ele>194.19999694824</ele>
        <time>2012-02-28T15:46:39.000Z</time>
      </trkpt>
      <trkpt lat="48.75069" lon="1.7664">
        <ele>194.19999694824</ele>
        <time>2012-02-28T15:46:42.000Z</time>
      </trkpt>
      <trkpt lat="48.75065" lon="1.76638">
        <ele>194.19999694824</ele>
        <time>2012-02-28T15:46:53.000Z</time>
      </trkpt>
      <trkpt lat="48.75057" lon="1.76637">
        <ele>194.19999694824</ele>
        <time>2012-02-28T15:46:57.000Z</time>
      </trkpt>
      <trkpt lat="48.75045" lon="1.76635">
        <ele>194.19999694824</ele>
        <time>2012-02-28T15:47:04.000Z</time>
      </trkpt>
      <trkpt lat="48.75035" lon="1.76632">
        <ele>194.19999694824</ele>
        <time>2012-02-28T15:47:11.000Z</time>
      </trkpt>
      <trkpt lat="48.75025" lon="1.76628">
        <ele>194.19999694824</ele>
        <time>2012-02-28T15:47:17.000Z</time>
      </trkpt>
      <trkpt lat="48.75022" lon="1.76627">
        <ele>194.19999694824</ele>
        <time>2012-02-28T15:47:19.000Z</time>
      </trkpt>
      <trkpt lat="48.75007" lon="1.76622">
        <ele>194</ele>
        <time>2012-02-28T15:47:27.000Z</time>
      </trkpt>
      <trkpt lat="48.75001" lon="1.76619">
        <ele>194</ele>
        <time>2012-02-28T15:47:33.000Z</time>
      </trkpt>
      <trkpt lat="48.74993" lon="1.76618">
        <ele>194</ele>
        <time>2012-02-28T15:47:39.000Z</time>
      </trkpt>
      <trkpt lat="48.7498" lon="1.76615">
        <ele>194</ele>
        <time>2012-02-28T15:47:47.000Z</time>
      </trkpt>
      <trkpt lat="48.74968" lon="1.76611">
        <ele>193.80000305176</ele>
        <time>2012-02-28T15:47:54.000Z</time>
      </trkpt>
      <trkpt lat="48.74961" lon="1.76608">
        <ele>193.80000305176</ele>
        <time>2012-02-28T15:47:59.000Z</time>
      </trkpt>
      <trkpt lat="48.74954" lon="1.76606">
        <ele>193.80000305176</ele>
        <time>2012-02-28T15:48:04.000Z</time>
      </trkpt>
      <trkpt lat="48.74952" lon="1.76606">
        <ele>193.80000305176</ele>
        <time>2012-02-28T15:48:07.000Z</time>
      </trkpt>
      <trkpt lat="48.74942" lon="1.76604">
        <ele>193.80000305176</ele>
        <time>2012-02-28T15:48:14.000Z</time>
      </trkpt>
      <trkpt lat="48.74932" lon="1.76598">
        <ele>193.80000305176</ele>
        <time>2012-02-28T15:48:22.000Z</time>
      </trkpt>
      <trkpt lat="48.74923" lon="1.76596">
        <ele>193.80000305176</ele>
        <time>2012-02-28T15:48:27.000Z</time>
      </trkpt>
      <trkpt lat="48.74913" lon="1.76591">
        <ele>193.80000305176</ele>
        <time>2012-02-28T15:48:34.000Z</time>
      </trkpt>
      <trkpt lat="48.74904" lon="1.76589">
        <ele>193.80000305176</ele>
        <time>2012-02-28T15:48:39.000Z</time>
      </trkpt>
      <trkpt lat="48.74891" lon="1.76585">
        <ele>193.60000610352</ele>
        <time>2012-02-28T15:48:46.000Z</time>
      </trkpt>
      <trkpt lat="48.74887" lon="1.76585">
        <ele>193.60000610352</ele>
        <time>2012-02-28T15:48:48.000Z</time>
      </trkpt>
      <trkpt lat="48.7488" lon="1.76581">
        <ele>193.60000610352</ele>
        <time>2012-02-28T15:48:53.000Z</time>
      </trkpt>
      <trkpt lat="48.7487" lon="1.76577">
        <ele>193.39999389648</ele>
        <time>2012-02-28T15:49:00.000Z</time>
      </trkpt>
      <trkpt lat="48.74868" lon="1.76577">
        <ele>193.39999389648</ele>
        <time>2012-02-28T15:49:04.000Z</time>
      </trkpt>
      <trkpt lat="48.7486" lon="1.76578">
        <ele>193.39999389648</ele>
        <time>2012-02-28T15:49:18.000Z</time>
      </trkpt>
      <trkpt lat="48.7485" lon="1.76572">
        <ele>193.19999694824</ele>
        <time>2012-02-28T15:49:24.000Z</time>
      </trkpt>
      <trkpt lat="48.7484" lon="1.76569">
        <ele>193</ele>
        <time>2012-02-28T15:49:31.000Z</time>
      </trkpt>
      <trkpt lat="48.74833" lon="1.76567">
        <ele>193</ele>
        <time>2012-02-28T15:49:36.000Z</time>
      </trkpt>
      <trkpt lat="48.7482" lon="1.76563">
        <ele>192.60000610352</ele>
        <time>2012-02-28T15:49:44.000Z</time>
      </trkpt>
      <trkpt lat="48.74811" lon="1.76562">
        <ele>192.19999694824</ele>
        <time>2012-02-28T15:49:50.000Z</time>
      </trkpt>
      <trkpt lat="48.74809" lon="1.76563">
        <ele>192.19999694824</ele>
        <time>2012-02-28T15:49:53.000Z</time>
      </trkpt>
      <trkpt lat="48.74807" lon="1.76562">
        <ele>192</ele>
        <time>2012-02-28T15:49:56.000Z</time>
      </trkpt>
      <trkpt lat="48.74804" lon="1.76561">
        <ele>192</ele>
        <time>2012-02-28T15:49:57.000Z</time>
      </trkpt>
      <trkpt lat="48.74803" lon="1.76561">
        <ele>192</ele>
        <time>2012-02-28T15:49:58.000Z</time>
      </trkpt>
      <trkpt lat="48.74796" lon="1.76555">
        <ele>191.60000610352</ele>
        <time>2012-02-28T15:50:04.000Z</time>
      </trkpt>
      <trkpt lat="48.74778" lon="1.7655">
        <ele>191</ele>
        <time>2012-02-28T15:50:15.000Z</time>
      </trkpt>
      <trkpt lat="48.74763" lon="1.76546">
        <ele>190.39999389648</ele>
        <time>2012-02-28T15:50:25.000Z</time>
      </trkpt>
      <trkpt lat="48.74754" lon="1.76547">
        <ele>190.19999694824</ele>
        <time>2012-02-28T15:50:31.000Z</time>
      </trkpt>
      <trkpt lat="48.74738" lon="1.76542">
        <ele>190</ele>
        <time>2012-02-28T15:50:39.000Z</time>
      </trkpt>
      <trkpt lat="48.74727" lon="1.76535">
        <ele>190</ele>
        <time>2012-02-28T15:50:47.000Z</time>
      </trkpt>
      <trkpt lat="48.74718" lon="1.7653">
        <ele>189.80000305176</ele>
        <time>2012-02-28T15:50:53.000Z</time>
      </trkpt>
      <trkpt lat="48.74705" lon="1.76527">
        <ele>189.80000305176</ele>
        <time>2012-02-28T15:51:01.000Z</time>
      </trkpt>
      <trkpt lat="48.74698" lon="1.76524">
        <ele>189.80000305176</ele>
        <time>2012-02-28T15:51:07.000Z</time>
      </trkpt>
      <trkpt lat="48.74688" lon="1.7652">
        <ele>189.60000610352</ele>
        <time>2012-02-28T15:51:14.000Z</time>
      </trkpt>
      <trkpt lat="48.74673" lon="1.76515">
        <ele>189.39999389648</ele>
        <time>2012-02-28T15:51:23.000Z</time>
      </trkpt>
      <trkpt lat="48.74657" lon="1.7651">
        <ele>188.80000305176</ele>
        <time>2012-02-28T15:51:33.000Z</time>
      </trkpt>
      <trkpt lat="48.74639" lon="1.76505">
        <ele>187.80000305176</ele>
        <time>2012-02-28T15:51:45.000Z</time>
      </trkpt>
      <trkpt lat="48.74624" lon="1.765">
        <ele>187</ele>
        <time>2012-02-28T15:51:54.000Z</time>
      </trkpt>
      <trkpt lat="48.74622" lon="1.765">
        <ele>186.80000305176</ele>
        <time>2012-02-28T15:51:56.000Z</time>
      </trkpt>
      <trkpt lat="48.74618" lon="1.76502">
        <ele>186.80000305176</ele>
        <time>2012-02-28T15:52:02.000Z</time>
      </trkpt>
      <trkpt lat="48.74612" lon="1.76496">
        <ele>186.19999694824</ele>
        <time>2012-02-28T15:52:49.000Z</time>
      </trkpt>
      <trkpt lat="48.74604" lon="1.76495">
        <ele>185.60000610352</ele>
        <time>2012-02-28T15:52:54.000Z</time>
      </trkpt>
      <trkpt lat="48.74593" lon="1.76491">
        <ele>184.80000305176</ele>
        <time>2012-02-28T15:53:01.000Z</time>
      </trkpt>
      <trkpt lat="48.74583" lon="1.76486">
        <ele>183.80000305176</ele>
        <time>2012-02-28T15:53:08.000Z</time>
      </trkpt>
      <trkpt lat="48.74575" lon="1.76485">
        <ele>183</ele>
        <time>2012-02-28T15:53:13.000Z</time>
      </trkpt>
      <trkpt lat="48.74567" lon="1.76482">
        <ele>182</ele>
        <time>2012-02-28T15:53:18.000Z</time>
      </trkpt>
      <trkpt lat="48.74559" lon="1.76479">
        <ele>181</ele>
        <time>2012-02-28T15:53:23.000Z</time>
      </trkpt>
      <trkpt lat="48.74557" lon="1.76478">
        <ele>180.60000610352</ele>
        <time>2012-02-28T15:53:25.000Z</time>
      </trkpt>
      <trkpt lat="48.74546" lon="1.76477">
        <ele>179.39999389648</ele>
        <time>2012-02-28T15:53:32.000Z</time>
      </trkpt>
      <trkpt lat="48.74533" lon="1.76472">
        <ele>177.80000305176</ele>
        <time>2012-02-28T15:53:38.000Z</time>
      </trkpt>
      <trkpt lat="48.74524" lon="1.76468">
        <ele>176.60000610352</ele>
        <time>2012-02-28T15:53:44.000Z</time>
      </trkpt>
      <trkpt lat="48.74517" lon="1.76465">
        <ele>175.60000610352</ele>
        <time>2012-02-28T15:53:49.000Z</time>
      </trkpt>
      <trkpt lat="48.74515" lon="1.76464">
        <ele>175.39999389648</ele>
        <time>2012-02-28T15:53:53.000Z</time>
      </trkpt>
      <trkpt lat="48.74498" lon="1.7646">
        <ele>173.39999389648</ele>
        <time>2012-02-28T15:54:17.000Z</time>
      </trkpt>
      <trkpt lat="48.74491" lon="1.76458">
        <ele>172.60000610352</ele>
        <time>2012-02-28T15:54:21.000Z</time>
      </trkpt>
      <trkpt lat="48.7448" lon="1.76455">
        <ele>171.19999694824</ele>
        <time>2012-02-28T15:54:30.000Z</time>
      </trkpt>
      <trkpt lat="48.74469" lon="1.7645">
        <ele>169.80000305176</ele>
        <time>2012-02-28T15:54:38.000Z</time>
      </trkpt>
      <trkpt lat="48.74462" lon="1.76449">
        <ele>169</ele>
        <time>2012-02-28T15:54:43.000Z</time>
      </trkpt>
      <trkpt lat="48.74452" lon="1.76446">
        <ele>167.80000305176</ele>
        <time>2012-02-28T15:54:50.000Z</time>
      </trkpt>
      <trkpt lat="48.74444" lon="1.76444">
        <ele>166.80000305176</ele>
        <time>2012-02-28T15:54:56.000Z</time>
      </trkpt>
      <trkpt lat="48.74433" lon="1.76441">
        <ele>165.80000305176</ele>
        <time>2012-02-28T15:55:03.000Z</time>
      </trkpt>
      <trkpt lat="48.74427" lon="1.76438">
        <ele>165</ele>
        <time>2012-02-28T15:55:09.000Z</time>
      </trkpt>
      <trkpt lat="48.74417" lon="1.76436">
        <ele>164</ele>
        <time>2012-02-28T15:55:15.000Z</time>
      </trkpt>
      <trkpt lat="48.74405" lon="1.76431">
        <ele>163</ele>
        <time>2012-02-28T15:55:22.000Z</time>
      </trkpt>
      <trkpt lat="48.74395" lon="1.7643">
        <ele>162.19999694824</ele>
        <time>2012-02-28T15:55:28.000Z</time>
      </trkpt>
      <trkpt lat="48.74392" lon="1.76429">
        <ele>162</ele>
        <time>2012-02-28T15:55:30.000Z</time>
      </trkpt>
      <trkpt lat="48.74382" lon="1.76424">
        <ele>161.19999694824</ele>
        <time>2012-02-28T15:55:37.000Z</time>
      </trkpt>
      <trkpt lat="48.74373" lon="1.76421">
        <ele>160.39999389648</ele>
        <time>2012-02-28T15:55:43.000Z</time>
      </trkpt>
      <trkpt lat="48.7436" lon="1.76418">
        <ele>159.60000610352</ele>
        <time>2012-02-28T15:55:52.000Z</time>
      </trkpt>
      <trkpt lat="48.74346" lon="1.76413">
        <ele>158.60000610352</ele>
        <time>2012-02-28T15:56:02.000Z</time>
      </trkpt>
      <trkpt lat="48.74338" lon="1.7641">
        <ele>158</ele>
        <time>2012-02-28T15:56:09.000Z</time>
      </trkpt>
      <trkpt lat="48.74338" lon="1.7641">
        <ele>158</ele>
        <time>2012-02-28T15:56:10.000Z</time>
      </trkpt>
      <trkpt lat="48.74331" lon="1.76408">
        <ele>157.39999389648</ele>
        <time>2012-02-28T15:56:33.000Z</time>
      </trkpt>
      <trkpt lat="48.74322" lon="1.76407">
        <ele>157</ele>
        <time>2012-02-28T15:56:39.000Z</time>
      </trkpt>
      <trkpt lat="48.74319" lon="1.76406">
        <ele>156.80000305176</ele>
        <time>2012-02-28T15:56:41.000Z</time>
      </trkpt>
      <trkpt lat="48.74316" lon="1.76405">
        <ele>156.60000610352</ele>
        <time>2012-02-28T15:56:45.000Z</time>
      </trkpt>
      <trkpt lat="48.74314" lon="1.76404">
        <ele>156.39999389648</ele>
        <time>2012-02-28T15:56:47.000Z</time>
      </trkpt>
      <trkpt lat="48.74305" lon="1.76401">
        <ele>155.80000305176</ele>
        <time>2012-02-28T15:56:57.000Z</time>
      </trkpt>
      <trkpt lat="48.743" lon="1.764">
        <ele>155.60000610352</ele>
        <time>2012-02-28T15:57:02.000Z</time>
      </trkpt>
      <trkpt lat="48.74291" lon="1.76398">
        <ele>155.19999694824</ele>
        <time>2012-02-28T15:57:08.000Z</time>
      </trkpt>
      <trkpt lat="48.74287" lon="1.76397">
        <ele>155</ele>
        <time>2012-02-28T15:57:11.000Z</time>
      </trkpt>
      <trkpt lat="48.7428" lon="1.76395">
        <ele>154.60000610352</ele>
        <time>2012-02-28T15:57:15.000Z</time>
      </trkpt>
      <trkpt lat="48.74271" lon="1.76394">
        <ele>154.19999694824</ele>
        <time>2012-02-28T15:57:20.000Z</time>
      </trkpt>
      <trkpt lat="48.74269" lon="1.76394">
        <ele>154.19999694824</ele>
        <time>2012-02-28T15:57:21.000Z</time>
      </trkpt>
      <trkpt lat="48.7426" lon="1.7639">
        <ele>153.80000305176</ele>
        <time>2012-02-28T15:57:27.000Z</time>
      </trkpt>
      <trkpt lat="48.74257" lon="1.76392">
        <ele>153.60000610352</ele>
        <time>2012-02-28T15:57:29.000Z</time>
      </trkpt>
      <trkpt lat="48.74244" lon="1.76391">
        <ele>153.80000305176</ele>
        <time>2012-02-28T15:57:37.000Z</time>
      </trkpt>
      <trkpt lat="48.74241" lon="1.7639">
        <ele>154.19999694824</ele>
        <time>2012-02-28T15:57:39.000Z</time>
      </trkpt>
      <trkpt lat="48.74239" lon="1.76388">
        <ele>154.39999389648</ele>
        <time>2012-02-28T15:57:41.000Z</time>
      </trkpt>
      <trkpt lat="48.74229" lon="1.76385">
        <ele>155.39999389648</ele>
        <time>2012-02-28T15:57:48.000Z</time>
      </trkpt>
      <trkpt lat="48.7422" lon="1.76384">
        <ele>156.39999389648</ele>
        <time>2012-02-28T15:57:54.000Z</time>
      </trkpt>
      <trkpt lat="48.74214" lon="1.76382">
        <ele>157</ele>
        <time>2012-02-28T15:57:59.000Z</time>
      </trkpt>
      <trkpt lat="48.74205" lon="1.76377">
        <ele>158.39999389648</ele>
        <time>2012-02-28T15:58:06.000Z</time>
      </trkpt>
      <trkpt lat="48.74196" lon="1.76375">
        <ele>159.39999389648</ele>
        <time>2012-02-28T15:58:13.000Z</time>
      </trkpt>
      <trkpt lat="48.74192" lon="1.76374">
        <ele>159.80000305176</ele>
        <time>2012-02-28T15:58:16.000Z</time>
      </trkpt>
      <trkpt lat="48.74183" lon="1.76371">
        <ele>161</ele>
        <time>2012-02-28T15:58:22.000Z</time>
      </trkpt>
      <trkpt lat="48.74174" lon="1.76367">
        <ele>162.19999694824</ele>
        <time>2012-02-28T15:58:28.000Z</time>
      </trkpt>
      <trkpt lat="48.74173" lon="1.76367">
        <ele>162.39999389648</ele>
        <time>2012-02-28T15:58:32.000Z</time>
      </trkpt>
      <trkpt lat="48.74157" lon="1.76364">
        <ele>164.80000305176</ele>
        <time>2012-02-28T15:58:48.000Z</time>
      </trkpt>
      <trkpt lat="48.74155" lon="1.76362">
        <ele>165.19999694824</ele>
        <time>2012-02-28T15:58:49.000Z</time>
      </trkpt>
      <trkpt lat="48.74146" lon="1.7636">
        <ele>166.60000610352</ele>
        <time>2012-02-28T15:58:57.000Z</time>
      </trkpt>
      <trkpt lat="48.74137" lon="1.76359">
        <ele>167.80000305176</ele>
        <time>2012-02-28T15:59:04.000Z</time>
      </trkpt>
      <trkpt lat="48.74128" lon="1.76357">
        <ele>169.19999694824</ele>
        <time>2012-02-28T15:59:12.000Z</time>
      </trkpt>
      <trkpt lat="48.74118" lon="1.76358">
        <ele>170.39999389648</ele>
        <time>2012-02-28T15:59:19.000Z</time>
      </trkpt>
      <trkpt lat="48.74108" lon="1.76357">
        <ele>171.80000305176</ele>
        <time>2012-02-28T15:59:27.000Z</time>
      </trkpt>
      <trkpt lat="48.741" lon="1.76359">
        <ele>172.80000305176</ele>
        <time>2012-02-28T15:59:33.000Z</time>
      </trkpt>
      <trkpt lat="48.7409" lon="1.7636">
        <ele>174.19999694824</ele>
        <time>2012-02-28T15:59:40.000Z</time>
      </trkpt>
      <trkpt lat="48.7408" lon="1.76357">
        <ele>175.39999389648</ele>
        <time>2012-02-28T15:59:48.000Z</time>
      </trkpt>
      <trkpt lat="48.7407" lon="1.76355">
        <ele>176</ele>
        <time>2012-02-28T15:59:56.000Z</time>
      </trkpt>
      <trkpt lat="48.74062" lon="1.76355">
        <ele>176.60000610352</ele>
        <time>2012-02-28T16:00:03.000Z</time>
      </trkpt>
      <trkpt lat="48.74055" lon="1.76356">
        <ele>177</ele>
        <time>2012-02-28T16:00:08.000Z</time>
      </trkpt>
      <trkpt lat="48.74047" lon="1.76357">
        <ele>177.39999389648</ele>
        <time>2012-02-28T16:00:13.000Z</time>
      </trkpt>
      <trkpt lat="48.74033" lon="1.76361">
        <ele>178.19999694824</ele>
        <time>2012-02-28T16:00:22.000Z</time>
      </trkpt>
      <trkpt lat="48.74023" lon="1.76364">
        <ele>178.80000305176</ele>
        <time>2012-02-28T16:00:30.000Z</time>
      </trkpt>
      <trkpt lat="48.74011" lon="1.76364">
        <ele>179.60000610352</ele>
        <time>2012-02-28T16:00:38.000Z</time>
      </trkpt>
      <trkpt lat="48.7401" lon="1.76365">
        <ele>179.60000610352</ele>
        <time>2012-02-28T16:00:39.000Z</time>
      </trkpt>
      <trkpt lat="48.73997" lon="1.76372">
        <ele>180.19999694824</ele>
        <time>2012-02-28T16:00:48.000Z</time>
      </trkpt>
      <trkpt lat="48.73988" lon="1.76372">
        <ele>180.19999694824</ele>
        <time>2012-02-28T16:00:54.000Z</time>
      </trkpt>
      <trkpt lat="48.73976" lon="1.76374">
        <ele>180.39999389648</ele>
        <time>2012-02-28T16:01:02.000Z</time>
      </trkpt>
      <trkpt lat="48.73967" lon="1.76374">
        <ele>180.60000610352</ele>
        <time>2012-02-28T16:01:08.000Z</time>
      </trkpt>
      <trkpt lat="48.73956" lon="1.76375">
        <ele>180.80000305176</ele>
        <time>2012-02-28T16:01:15.000Z</time>
      </trkpt>
      <trkpt lat="48.73946" lon="1.76375">
        <ele>181</ele>
        <time>2012-02-28T16:01:23.000Z</time>
      </trkpt>
      <trkpt lat="48.73936" lon="1.76377">
        <ele>181.19999694824</ele>
        <time>2012-02-28T16:01:29.000Z</time>
      </trkpt>
      <trkpt lat="48.73924" lon="1.76379">
        <ele>181.39999389648</ele>
        <time>2012-02-28T16:01:37.000Z</time>
      </trkpt>
      <trkpt lat="48.73914" lon="1.76381">
        <ele>181.60000610352</ele>
        <time>2012-02-28T16:01:44.000Z</time>
      </trkpt>
      <trkpt lat="48.73904" lon="1.76383">
        <ele>181.80000305176</ele>
        <time>2012-02-28T16:01:51.000Z</time>
      </trkpt>
      <trkpt lat="48.73895" lon="1.76386">
        <ele>182</ele>
        <time>2012-02-28T16:01:58.000Z</time>
      </trkpt>
      <trkpt lat="48.73884" lon="1.76386">
        <ele>182.19999694824</ele>
        <time>2012-02-28T16:02:06.000Z</time>
      </trkpt>
      <trkpt lat="48.73874" lon="1.76389">
        <ele>182.60000610352</ele>
        <time>2012-02-28T16:02:14.000Z</time>
      </trkpt>
      <trkpt lat="48.73863" lon="1.76391">
        <ele>182.80000305176</ele>
        <time>2012-02-28T16:02:22.000Z</time>
      </trkpt>
      <trkpt lat="48.73853" lon="1.76391">
        <ele>183</ele>
        <time>2012-02-28T16:02:29.000Z</time>
      </trkpt>
      <trkpt lat="48.73843" lon="1.76392">
        <ele>183.19999694824</ele>
        <time>2012-02-28T16:02:36.000Z</time>
      </trkpt>
      <trkpt lat="48.73832" lon="1.76394">
        <ele>183.39999389648</ele>
        <time>2012-02-28T16:02:43.000Z</time>
      </trkpt>
      <trkpt lat="48.73824" lon="1.76394">
        <ele>183.80000305176</ele>
        <time>2012-02-28T16:02:49.000Z</time>
      </trkpt>
      <trkpt lat="48.73816" lon="1.76396">
        <ele>184</ele>
        <time>2012-02-28T16:02:55.000Z</time>
      </trkpt>
      <trkpt lat="48.73806" lon="1.764">
        <ele>184.39999389648</ele>
        <time>2012-02-28T16:03:02.000Z</time>
      </trkpt>
      <trkpt lat="48.73802" lon="1.764">
        <ele>184.60000610352</ele>
        <time>2012-02-28T16:03:05.000Z</time>
      </trkpt>
      <trkpt lat="48.73799" lon="1.76402">
        <ele>184.60000610352</ele>
        <time>2012-02-28T16:03:11.000Z</time>
      </trkpt>
      <trkpt lat="48.73803" lon="1.7638">
        <ele>184.39999389648</ele>
        <time>2012-02-28T16:03:30.000Z</time>
      </trkpt>
      <trkpt lat="48.73804" lon="1.76362">
        <ele>184</ele>
        <time>2012-02-28T16:03:37.000Z</time>
      </trkpt>
      <trkpt lat="48.73804" lon="1.76355">
        <ele>184</ele>
        <time>2012-02-28T16:03:41.000Z</time>
      </trkpt>
      <trkpt lat="48.73807" lon="1.76337">
        <ele>183.60000610352</ele>
        <time>2012-02-28T16:03:49.000Z</time>
      </trkpt>
      <trkpt lat="48.7381" lon="1.76323">
        <ele>183.60000610352</ele>
        <time>2012-02-28T16:03:55.000Z</time>
      </trkpt>
      <trkpt lat="48.73815" lon="1.76305">
        <ele>183.39999389648</ele>
        <time>2012-02-28T16:04:00.000Z</time>
      </trkpt>
      <trkpt lat="48.73817" lon="1.7629">
        <ele>183.60000610352</ele>
        <time>2012-02-28T16:04:03.000Z</time>
      </trkpt>
      <trkpt lat="48.73824" lon="1.76268">
        <ele>183.39999389648</ele>
        <time>2012-02-28T16:04:08.000Z</time>
      </trkpt>
      <trkpt lat="48.73826" lon="1.76254">
        <ele>183.39999389648</ele>
        <time>2012-02-28T16:04:12.000Z</time>
      </trkpt>
      <trkpt lat="48.73827" lon="1.76248">
        <ele>183.39999389648</ele>
        <time>2012-02-28T16:04:15.000Z</time>
      </trkpt>
      <trkpt lat="48.73833" lon="1.7623">
        <ele>183.39999389648</ele>
        <time>2012-02-28T16:04:23.000Z</time>
      </trkpt>
      <trkpt lat="48.73839" lon="1.76214">
        <ele>183.60000610352</ele>
        <time>2012-02-28T16:04:30.000Z</time>
      </trkpt>
      <trkpt lat="48.73843" lon="1.76199">
        <ele>183.80000305176</ele>
        <time>2012-02-28T16:04:36.000Z</time>
      </trkpt>
      <trkpt lat="48.73847" lon="1.7618">
        <ele>184</ele>
        <time>2012-02-28T16:04:44.000Z</time>
      </trkpt>
      <trkpt lat="48.73848" lon="1.7616">
        <ele>184.39999389648</ele>
        <time>2012-02-28T16:04:52.000Z</time>
      </trkpt>
      <trkpt lat="48.7385" lon="1.76139">
        <ele>185</ele>
        <time>2012-02-28T16:05:00.000Z</time>
      </trkpt>
      <trkpt lat="48.73855" lon="1.76122">
        <ele>185.19999694824</ele>
        <time>2012-02-28T16:05:08.000Z</time>
      </trkpt>
      <trkpt lat="48.73857" lon="1.76105">
        <ele>185.60000610352</ele>
        <time>2012-02-28T16:05:16.000Z</time>
      </trkpt>
      <trkpt lat="48.73859" lon="1.76092">
        <ele>185.80000305176</ele>
        <time>2012-02-28T16:05:22.000Z</time>
      </trkpt>
      <trkpt lat="48.73862" lon="1.76084">
        <ele>186</ele>
        <time>2012-02-28T16:05:26.000Z</time>
      </trkpt>
      <trkpt lat="48.73867" lon="1.76069">
        <ele>186</ele>
        <time>2012-02-28T16:05:34.000Z</time>
      </trkpt>
      <trkpt lat="48.7387" lon="1.76055">
        <ele>186</ele>
        <time>2012-02-28T16:05:41.000Z</time>
      </trkpt>
      <trkpt lat="48.73876" lon="1.76036">
        <ele>186</ele>
        <time>2012-02-28T16:05:50.000Z</time>
      </trkpt>
      <trkpt lat="48.73879" lon="1.7602">
        <ele>186.19999694824</ele>
        <time>2012-02-28T16:05:58.000Z</time>
      </trkpt>
      <trkpt lat="48.73881" lon="1.76002">
        <ele>186.19999694824</ele>
        <time>2012-02-28T16:06:06.000Z</time>
      </trkpt>
      <trkpt lat="48.73884" lon="1.75983">
        <ele>185.80000305176</ele>
        <time>2012-02-28T16:06:14.000Z</time>
      </trkpt>
      <trkpt lat="48.73885" lon="1.75964">
        <ele>185.39999389648</ele>
        <time>2012-02-28T16:06:22.000Z</time>
      </trkpt>
      <trkpt lat="48.73888" lon="1.75947">
        <ele>185</ele>
        <time>2012-02-28T16:06:30.000Z</time>
      </trkpt>
      <trkpt lat="48.73892" lon="1.75925">
        <ele>184.39999389648</ele>
        <time>2012-02-28T16:06:40.000Z</time>
      </trkpt>
      <trkpt lat="48.73893" lon="1.75923">
        <ele>184.39999389648</ele>
        <time>2012-02-28T16:06:43.000Z</time>
      </trkpt>
      <trkpt lat="48.73896" lon="1.7592">
        <ele>184.39999389648</ele>
        <time>2012-02-28T16:06:47.000Z</time>
      </trkpt>
      <trkpt lat="48.73899" lon="1.75911">
        <ele>184.19999694824</ele>
        <time>2012-02-28T16:06:50.000Z</time>
      </trkpt>
      <trkpt lat="48.73902" lon="1.75893">
        <ele>184</ele>
        <time>2012-02-28T16:06:58.000Z</time>
      </trkpt>
      <trkpt lat="48.73906" lon="1.75872">
        <ele>184</ele>
        <time>2012-02-28T16:07:07.000Z</time>
      </trkpt>
      <trkpt lat="48.73911" lon="1.75855">
        <ele>184</ele>
        <time>2012-02-28T16:07:15.000Z</time>
      </trkpt>
      <trkpt lat="48.73914" lon="1.75838">
        <ele>184</ele>
        <time>2012-02-28T16:07:23.000Z</time>
      </trkpt>
      <trkpt lat="48.7392" lon="1.7582">
        <ele>183.60000610352</ele>
        <time>2012-02-28T16:07:32.000Z</time>
      </trkpt>
      <trkpt lat="48.73924" lon="1.75807">
        <ele>183.19999694824</ele>
        <time>2012-02-28T16:07:39.000Z</time>
      </trkpt>
      <trkpt lat="48.73927" lon="1.75793">
        <ele>182.80000305176</ele>
        <time>2012-02-28T16:07:45.000Z</time>
      </trkpt>
      <trkpt lat="48.73927" lon="1.75787">
        <ele>182.60000610352</ele>
        <time>2012-02-28T16:07:48.000Z</time>
      </trkpt>
      <trkpt lat="48.7393" lon="1.7577">
        <ele>182</ele>
        <time>2012-02-28T16:07:55.000Z</time>
      </trkpt>
      <trkpt lat="48.73931" lon="1.75766">
        <ele>181.80000305176</ele>
        <time>2012-02-28T16:07:57.000Z</time>
      </trkpt>
      <trkpt lat="48.73934" lon="1.75745">
        <ele>181.39999389648</ele>
        <time>2012-02-28T16:08:06.000Z</time>
      </trkpt>
      <trkpt lat="48.73935" lon="1.75727">
        <ele>181.39999389648</ele>
        <time>2012-02-28T16:08:14.000Z</time>
      </trkpt>
      <trkpt lat="48.73939" lon="1.75706">
        <ele>181.39999389648</ele>
        <time>2012-02-28T16:08:24.000Z</time>
      </trkpt>
      <trkpt lat="48.73943" lon="1.7569">
        <ele>181.39999389648</ele>
        <time>2012-02-28T16:08:32.000Z</time>
      </trkpt>
      <trkpt lat="48.73944" lon="1.75676">
        <ele>181.39999389648</ele>
        <time>2012-02-28T16:08:38.000Z</time>
      </trkpt>
      <trkpt lat="48.73947" lon="1.75659">
        <ele>181.19999694824</ele>
        <time>2012-02-28T16:08:46.000Z</time>
      </trkpt>
      <trkpt lat="48.73946" lon="1.75647">
        <ele>181.39999389648</ele>
        <time>2012-02-28T16:08:52.000Z</time>
      </trkpt>
      <trkpt lat="48.73942" lon="1.75637">
        <ele>181.60000610352</ele>
        <time>2012-02-28T16:08:57.000Z</time>
      </trkpt>
      <trkpt lat="48.73941" lon="1.75635">
        <ele>181.60000610352</ele>
        <time>2012-02-28T16:08:58.000Z</time>
      </trkpt>
      <trkpt lat="48.73937" lon="1.7563">
        <ele>181.80000305176</ele>
        <time>2012-02-28T16:09:02.000Z</time>
      </trkpt>
      <trkpt lat="48.73927" lon="1.75624">
        <ele>182.39999389648</ele>
        <time>2012-02-28T16:09:10.000Z</time>
      </trkpt>
      <trkpt lat="48.73918" lon="1.75619">
        <ele>183</ele>
        <time>2012-02-28T16:09:17.000Z</time>
      </trkpt>
      <trkpt lat="48.73908" lon="1.75616">
        <ele>183.19999694824</ele>
        <time>2012-02-28T16:09:25.000Z</time>
      </trkpt>
      <trkpt lat="48.73894" lon="1.75613">
        <ele>183.19999694824</ele>
        <time>2012-02-28T16:09:34.000Z</time>
      </trkpt>
      <trkpt lat="48.73881" lon="1.75608">
        <ele>183.39999389648</ele>
        <time>2012-02-28T16:09:43.000Z</time>
      </trkpt>
      <trkpt lat="48.73866" lon="1.75603">
        <ele>183.60000610352</ele>
        <time>2012-02-28T16:09:53.000Z</time>
      </trkpt>
      <trkpt lat="48.73852" lon="1.75596">
        <ele>183.80000305176</ele>
        <time>2012-02-28T16:10:03.000Z</time>
      </trkpt>
      <trkpt lat="48.73843" lon="1.75592">
        <ele>183.80000305176</ele>
        <time>2012-02-28T16:10:10.000Z</time>
      </trkpt>
      <trkpt lat="48.73832" lon="1.75588">
        <ele>184</ele>
        <time>2012-02-28T16:10:17.000Z</time>
      </trkpt>
      <trkpt lat="48.73818" lon="1.75586">
        <ele>183.80000305176</ele>
        <time>2012-02-28T16:10:26.000Z</time>
      </trkpt>
      <trkpt lat="48.73807" lon="1.75584">
        <ele>183.60000610352</ele>
        <time>2012-02-28T16:10:33.000Z</time>
      </trkpt>
      <trkpt lat="48.73796" lon="1.75579">
        <ele>183.60000610352</ele>
        <time>2012-02-28T16:10:41.000Z</time>
      </trkpt>
      <trkpt lat="48.73784" lon="1.75576">
        <ele>183.39999389648</ele>
        <time>2012-02-28T16:10:49.000Z</time>
      </trkpt>
      <trkpt lat="48.7377" lon="1.75572">
        <ele>183.39999389648</ele>
        <time>2012-02-28T16:10:58.000Z</time>
      </trkpt>
      <trkpt lat="48.73758" lon="1.75569">
        <ele>183.19999694824</ele>
        <time>2012-02-28T16:11:06.000Z</time>
      </trkpt>
      <trkpt lat="48.73747" lon="1.75564">
        <ele>183.19999694824</ele>
        <time>2012-02-28T16:11:14.000Z</time>
      </trkpt>
      <trkpt lat="48.73738" lon="1.7556">
        <ele>183.39999389648</ele>
        <time>2012-02-28T16:11:21.000Z</time>
      </trkpt>
      <trkpt lat="48.73738" lon="1.7556">
        <ele>183.39999389648</ele>
        <time>2012-02-28T16:11:24.000Z</time>
      </trkpt>
      <trkpt lat="48.73732" lon="1.75558">
        <ele>183.60000610352</ele>
        <time>2012-02-28T16:11:37.000Z</time>
      </trkpt>
      <trkpt lat="48.73725" lon="1.75557">
        <ele>183.80000305176</ele>
        <time>2012-02-28T16:11:42.000Z</time>
      </trkpt>
      <trkpt lat="48.73718" lon="1.75551">
        <ele>184</ele>
        <time>2012-02-28T16:11:48.000Z</time>
      </trkpt>
      <trkpt lat="48.73717" lon="1.75551">
        <ele>184</ele>
        <time>2012-02-28T16:11:51.000Z</time>
      </trkpt>
      <trkpt lat="48.73711" lon="1.75548">
        <ele>184</ele>
        <time>2012-02-28T16:12:24.000Z</time>
      </trkpt>
      <trkpt lat="48.73704" lon="1.7555">
        <ele>184.19999694824</ele>
        <time>2012-02-28T16:12:28.000Z</time>
      </trkpt>
      <trkpt lat="48.73694" lon="1.75546">
        <ele>184.39999389648</ele>
        <time>2012-02-28T16:12:35.000Z</time>
      </trkpt>
      <trkpt lat="48.73693" lon="1.75545">
        <ele>184.39999389648</ele>
        <time>2012-02-28T16:12:36.000Z</time>
      </trkpt>
      <trkpt lat="48.73679" lon="1.75542">
        <ele>184.80000305176</ele>
        <time>2012-02-28T16:12:45.000Z</time>
      </trkpt>
      <trkpt lat="48.73666" lon="1.75539">
        <ele>185</ele>
        <time>2012-02-28T16:12:53.000Z</time>
      </trkpt>
      <trkpt lat="48.73659" lon="1.75537">
        <ele>185.19999694824</ele>
        <time>2012-02-28T16:12:59.000Z</time>
      </trkpt>
      <trkpt lat="48.73656" lon="1.75537">
        <ele>185.39999389648</ele>
        <time>2012-02-28T16:13:01.000Z</time>
      </trkpt>
      <trkpt lat="48.73653" lon="1.75536">
        <ele>185.39999389648</ele>
        <time>2012-02-28T16:13:03.000Z</time>
      </trkpt>
      <trkpt lat="48.73647" lon="1.75538">
        <ele>185.39999389648</ele>
        <time>2012-02-28T16:13:07.000Z</time>
      </trkpt>
      <trkpt lat="48.73633" lon="1.7554">
        <ele>185.80000305176</ele>
        <time>2012-02-28T16:13:16.000Z</time>
      </trkpt>
      <trkpt lat="48.73622" lon="1.75541">
        <ele>186</ele>
        <time>2012-02-28T16:13:23.000Z</time>
      </trkpt>
      <trkpt lat="48.73618" lon="1.75542">
        <ele>186.19999694824</ele>
        <time>2012-02-28T16:13:26.000Z</time>
      </trkpt>
      <trkpt lat="48.73609" lon="1.75546">
        <ele>186.60000610352</ele>
        <time>2012-02-28T16:13:32.000Z</time>
      </trkpt>
      <trkpt lat="48.73596" lon="1.75549">
        <ele>187.19999694824</ele>
        <time>2012-02-28T16:13:41.000Z</time>
      </trkpt>
      <trkpt lat="48.73587" lon="1.75551">
        <ele>187.60000610352</ele>
        <time>2012-02-28T16:13:47.000Z</time>
      </trkpt>
      <trkpt lat="48.73576" lon="1.75557">
        <ele>188</ele>
        <time>2012-02-28T16:13:55.000Z</time>
      </trkpt>
      <trkpt lat="48.73564" lon="1.75562">
        <ele>188</ele>
        <time>2012-02-28T16:14:04.000Z</time>
      </trkpt>
      <trkpt lat="48.73553" lon="1.75569">
        <ele>188.19999694824</ele>
        <time>2012-02-28T16:14:12.000Z</time>
      </trkpt>
      <trkpt lat="48.73547" lon="1.75572">
        <ele>188.19999694824</ele>
        <time>2012-02-28T16:14:17.000Z</time>
      </trkpt>
      <trkpt lat="48.73544" lon="1.75575">
        <ele>188.19999694824</ele>
        <time>2012-02-28T16:14:19.000Z</time>
      </trkpt>
      <trkpt lat="48.73536" lon="1.75581">
        <ele>188.19999694824</ele>
        <time>2012-02-28T16:14:25.000Z</time>
      </trkpt>
      <trkpt lat="48.73525" lon="1.7559">
        <ele>188</ele>
        <time>2012-02-28T16:14:33.000Z</time>
      </trkpt>
      <trkpt lat="48.73513" lon="1.75598">
        <ele>187.60000610352</ele>
        <time>2012-02-28T16:14:41.000Z</time>
      </trkpt>
      <trkpt lat="48.73504" lon="1.7561">
        <ele>187.39999389648</ele>
        <time>2012-02-28T16:14:48.000Z</time>
      </trkpt>
      <trkpt lat="48.73494" lon="1.75618">
        <ele>187.39999389648</ele>
        <time>2012-02-28T16:14:54.000Z</time>
      </trkpt>
      <trkpt lat="48.73484" lon="1.75624">
        <ele>187.19999694824</ele>
        <time>2012-02-28T16:15:02.000Z</time>
      </trkpt>
      <trkpt lat="48.73473" lon="1.75633">
        <ele>187.19999694824</ele>
        <time>2012-02-28T16:15:10.000Z</time>
      </trkpt>
      <trkpt lat="48.73458" lon="1.75646">
        <ele>187.19999694824</ele>
        <time>2012-02-28T16:15:20.000Z</time>
      </trkpt>
      <trkpt lat="48.73447" lon="1.75652">
        <ele>187.19999694824</ele>
        <time>2012-02-28T16:15:27.000Z</time>
      </trkpt>
      <trkpt lat="48.73437" lon="1.75658">
        <ele>187.19999694824</ele>
        <time>2012-02-28T16:15:34.000Z</time>
      </trkpt>
      <trkpt lat="48.73429" lon="1.75664">
        <ele>187.19999694824</ele>
        <time>2012-02-28T16:15:40.000Z</time>
      </trkpt>
      <trkpt lat="48.7342" lon="1.75671">
        <ele>187</ele>
        <time>2012-02-28T16:15:47.000Z</time>
      </trkpt>
      <trkpt lat="48.73405" lon="1.75679">
        <ele>186.80000305176</ele>
        <time>2012-02-28T16:15:58.000Z</time>
      </trkpt>
      <trkpt lat="48.73395" lon="1.75687">
        <ele>186.60000610352</ele>
        <time>2012-02-28T16:16:06.000Z</time>
      </trkpt>
      <trkpt lat="48.73386" lon="1.75693">
        <ele>186.39999389648</ele>
        <time>2012-02-28T16:16:13.000Z</time>
      </trkpt>
      <trkpt lat="48.73376" lon="1.75701">
        <ele>186.19999694824</ele>
        <time>2012-02-28T16:16:19.000Z</time>
      </trkpt>
      <trkpt lat="48.73363" lon="1.75714">
        <ele>185.80000305176</ele>
        <time>2012-02-28T16:16:26.000Z</time>
      </trkpt>
      <trkpt lat="48.73353" lon="1.7572">
        <ele>185.60000610352</ele>
        <time>2012-02-28T16:16:33.000Z</time>
      </trkpt>
      <trkpt lat="48.73341" lon="1.75725">
        <ele>185.39999389648</ele>
        <time>2012-02-28T16:16:41.000Z</time>
      </trkpt>
      <trkpt lat="48.7333" lon="1.75733">
        <ele>185.19999694824</ele>
        <time>2012-02-28T16:16:49.000Z</time>
      </trkpt>
      <trkpt lat="48.73322" lon="1.75738">
        <ele>185</ele>
        <time>2012-02-28T16:16:54.000Z</time>
      </trkpt>
      <trkpt lat="48.73313" lon="1.75746">
        <ele>184.80000305176</ele>
        <time>2012-02-28T16:17:01.000Z</time>
      </trkpt>
      <trkpt lat="48.73312" lon="1.75748">
        <ele>184.80000305176</ele>
        <time>2012-02-28T16:17:02.000Z</time>
      </trkpt>
      <trkpt lat="48.73303" lon="1.75755">
        <ele>184.60000610352</ele>
        <time>2012-02-28T16:17:09.000Z</time>
      </trkpt>
      <trkpt lat="48.73294" lon="1.75761">
        <ele>184.19999694824</ele>
        <time>2012-02-28T16:17:15.000Z</time>
      </trkpt>
      <trkpt lat="48.73285" lon="1.75769">
        <ele>184</ele>
        <time>2012-02-28T16:17:22.000Z</time>
      </trkpt>
      <trkpt lat="48.7328" lon="1.75773">
        <ele>183.80000305176</ele>
        <time>2012-02-28T16:17:26.000Z</time>
      </trkpt>
      <trkpt lat="48.73269" lon="1.75781">
        <ele>183.39999389648</ele>
        <time>2012-02-28T16:17:34.000Z</time>
      </trkpt>
      <trkpt lat="48.7326" lon="1.75788">
        <ele>183.19999694824</ele>
        <time>2012-02-28T16:17:40.000Z</time>
      </trkpt>
      <trkpt lat="48.73258" lon="1.75789">
        <ele>183.19999694824</ele>
        <time>2012-02-28T16:17:41.000Z</time>
      </trkpt>
      <trkpt lat="48.73249" lon="1.75797">
        <ele>182.80000305176</ele>
        <time>2012-02-28T16:17:48.000Z</time>
      </trkpt>
      <trkpt lat="48.73242" lon="1.75804">
        <ele>182.80000305176</ele>
        <time>2012-02-28T16:17:54.000Z</time>
      </trkpt>
      <trkpt lat="48.7323" lon="1.75812">
        <ele>182.60000610352</ele>
        <time>2012-02-28T16:18:03.000Z</time>
      </trkpt>
      <trkpt lat="48.7322" lon="1.75819">
        <ele>182.60000610352</ele>
        <time>2012-02-28T16:18:10.000Z</time>
      </trkpt>
      <trkpt lat="48.7321" lon="1.75828">
        <ele>182.60000610352</ele>
        <time>2012-02-28T16:18:17.000Z</time>
      </trkpt>
      <trkpt lat="48.73203" lon="1.75834">
        <ele>182.60000610352</ele>
        <time>2012-02-28T16:18:22.000Z</time>
      </trkpt>
      <trkpt lat="48.73194" lon="1.75839">
        <ele>182.80000305176</ele>
        <time>2012-02-28T16:18:29.000Z</time>
      </trkpt>
      <trkpt lat="48.73189" lon="1.75841">
        <ele>182.80000305176</ele>
        <time>2012-02-28T16:18:32.000Z</time>
      </trkpt>
      <trkpt lat="48.73179" lon="1.75851">
        <ele>183.19999694824</ele>
        <time>2012-02-28T16:18:41.000Z</time>
      </trkpt>
      <trkpt lat="48.73179" lon="1.75853">
        <ele>183.19999694824</ele>
        <time>2012-02-28T16:18:44.000Z</time>
      </trkpt>
      <trkpt lat="48.73172" lon="1.75856">
        <ele>183.39999389648</ele>
        <time>2012-02-28T16:18:56.000Z</time>
      </trkpt>
      <trkpt lat="48.73168" lon="1.7586">
        <ele>183.60000610352</ele>
        <time>2012-02-28T16:18:58.000Z</time>
      </trkpt>
      <trkpt lat="48.73161" lon="1.75865">
        <ele>183.60000610352</ele>
        <time>2012-02-28T16:19:03.000Z</time>
      </trkpt>
      <trkpt lat="48.73154" lon="1.75868">
        <ele>183.60000610352</ele>
        <time>2012-02-28T16:19:08.000Z</time>
      </trkpt>
      <trkpt lat="48.73146" lon="1.75873">
        <ele>183.39999389648</ele>
        <time>2012-02-28T16:19:14.000Z</time>
      </trkpt>
      <trkpt lat="48.73135" lon="1.7588">
        <ele>183.39999389648</ele>
        <time>2012-02-28T16:19:22.000Z</time>
      </trkpt>
      <trkpt lat="48.73126" lon="1.75886">
        <ele>183.19999694824</ele>
        <time>2012-02-28T16:19:29.000Z</time>
      </trkpt>
      <trkpt lat="48.73116" lon="1.75892">
        <ele>183.19999694824</ele>
        <time>2012-02-28T16:19:36.000Z</time>
      </trkpt>
      <trkpt lat="48.73103" lon="1.75901">
        <ele>183.19999694824</ele>
        <time>2012-02-28T16:19:44.000Z</time>
      </trkpt>
      <trkpt lat="48.73094" lon="1.7591">
        <ele>183</ele>
        <time>2012-02-28T16:19:49.000Z</time>
      </trkpt>
      <trkpt lat="48.73088" lon="1.75915">
        <ele>183</ele>
        <time>2012-02-28T16:19:54.000Z</time>
      </trkpt>
      <trkpt lat="48.73078" lon="1.75921">
        <ele>182.80000305176</ele>
        <time>2012-02-28T16:20:01.000Z</time>
      </trkpt>
      <trkpt lat="48.73076" lon="1.75922">
        <ele>182.80000305176</ele>
        <time>2012-02-28T16:20:02.000Z</time>
      </trkpt>
      <trkpt lat="48.73072" lon="1.7593">
        <ele>182.60000610352</ele>
        <time>2012-02-28T16:20:07.000Z</time>
      </trkpt>
      <trkpt lat="48.73062" lon="1.75934">
        <ele>182.39999389648</ele>
        <time>2012-02-28T16:20:13.000Z</time>
      </trkpt>
      <trkpt lat="48.73053" lon="1.7594">
        <ele>182</ele>
        <time>2012-02-28T16:20:19.000Z</time>
      </trkpt>
      <trkpt lat="48.73046" lon="1.75945">
        <ele>181.60000610352</ele>
        <time>2012-02-28T16:20:24.000Z</time>
      </trkpt>
      <trkpt lat="48.73038" lon="1.75954">
        <ele>181.19999694824</ele>
        <time>2012-02-28T16:20:30.000Z</time>
      </trkpt>
      <trkpt lat="48.73032" lon="1.75948">
        <ele>181</ele>
        <time>2012-02-28T16:20:35.000Z</time>
      </trkpt>
      <trkpt lat="48.73032" lon="1.75945">
        <ele>181.19999694824</ele>
        <time>2012-02-28T16:20:36.000Z</time>
      </trkpt>
      <trkpt lat="48.73032" lon="1.75927">
        <ele>181.60000610352</ele>
        <time>2012-02-28T16:20:42.000Z</time>
      </trkpt>
      <trkpt lat="48.7303" lon="1.75917">
        <ele>181.60000610352</ele>
        <time>2012-02-28T16:20:46.000Z</time>
      </trkpt>
      <trkpt lat="48.7303" lon="1.75901">
        <ele>181.80000305176</ele>
        <time>2012-02-28T16:20:53.000Z</time>
      </trkpt>
      <trkpt lat="48.73034" lon="1.75885">
        <ele>182</ele>
        <time>2012-02-28T16:21:01.000Z</time>
      </trkpt>
      <trkpt lat="48.73036" lon="1.75871">
        <ele>182</ele>
        <time>2012-02-28T16:21:08.000Z</time>
      </trkpt>
      <trkpt lat="48.73037" lon="1.75856">
        <ele>182</ele>
        <time>2012-02-28T16:21:15.000Z</time>
      </trkpt>
      <trkpt lat="48.73038" lon="1.75845">
        <ele>182</ele>
        <time>2012-02-28T16:21:20.000Z</time>
      </trkpt>
      <trkpt lat="48.73038" lon="1.75835">
        <ele>182</ele>
        <time>2012-02-28T16:21:24.000Z</time>
      </trkpt>
      <trkpt lat="48.7304" lon="1.75818">
        <ele>181.80000305176</ele>
        <time>2012-02-28T16:21:31.000Z</time>
      </trkpt>
      <trkpt lat="48.73039" lon="1.75813">
        <ele>181.80000305176</ele>
        <time>2012-02-28T16:21:33.000Z</time>
      </trkpt>
      <trkpt lat="48.73039" lon="1.75796">
        <ele>181.60000610352</ele>
        <time>2012-02-28T16:21:39.000Z</time>
      </trkpt>
      <trkpt lat="48.7304" lon="1.75779">
        <ele>181.39999389648</ele>
        <time>2012-02-28T16:21:45.000Z</time>
      </trkpt>
      <trkpt lat="48.73041" lon="1.75768">
        <ele>181.19999694824</ele>
        <time>2012-02-28T16:21:50.000Z</time>
      </trkpt>
      <trkpt lat="48.73043" lon="1.75754">
        <ele>181</ele>
        <time>2012-02-28T16:21:56.000Z</time>
      </trkpt>
      <trkpt lat="48.73045" lon="1.75741">
        <ele>181</ele>
        <time>2012-02-28T16:22:02.000Z</time>
      </trkpt>
      <trkpt lat="48.73045" lon="1.75733">
        <ele>181</ele>
        <time>2012-02-28T16:22:05.000Z</time>
      </trkpt>
      <trkpt lat="48.73046" lon="1.75722">
        <ele>181</ele>
        <time>2012-02-28T16:22:10.000Z</time>
      </trkpt>
      <trkpt lat="48.73048" lon="1.75707">
        <ele>181</ele>
        <time>2012-02-28T16:22:17.000Z</time>
      </trkpt>
      <trkpt lat="48.7305" lon="1.75689">
        <ele>181.19999694824</ele>
        <time>2012-02-28T16:22:25.000Z</time>
      </trkpt>
      <trkpt lat="48.7305" lon="1.75668">
        <ele>181.19999694824</ele>
        <time>2012-02-28T16:22:33.000Z</time>
      </trkpt>
      <trkpt lat="48.73051" lon="1.75653">
        <ele>181.39999389648</ele>
        <time>2012-02-28T16:22:39.000Z</time>
      </trkpt>
      <trkpt lat="48.73052" lon="1.75632">
        <ele>181.80000305176</ele>
        <time>2012-02-28T16:22:47.000Z</time>
      </trkpt>
      <trkpt lat="48.73054" lon="1.75613">
        <ele>182.19999694824</ele>
        <time>2012-02-28T16:22:54.000Z</time>
      </trkpt>
      <trkpt lat="48.73055" lon="1.756">
        <ele>182.39999389648</ele>
        <time>2012-02-28T16:23:00.000Z</time>
      </trkpt>
      <trkpt lat="48.73055" lon="1.75584">
        <ele>182.60000610352</ele>
        <time>2012-02-28T16:23:08.000Z</time>
      </trkpt>
      <trkpt lat="48.73055" lon="1.75571">
        <ele>182.60000610352</ele>
        <time>2012-02-28T16:23:14.000Z</time>
      </trkpt>
      <trkpt lat="48.73056" lon="1.75554">
        <ele>182.39999389648</ele>
        <time>2012-02-28T16:23:21.000Z</time>
      </trkpt>
      <trkpt lat="48.73058" lon="1.75538">
        <ele>182.39999389648</ele>
        <time>2012-02-28T16:23:28.000Z</time>
      </trkpt>
      <trkpt lat="48.73059" lon="1.75522">
        <ele>182.39999389648</ele>
        <time>2012-02-28T16:23:35.000Z</time>
      </trkpt>
      <trkpt lat="48.73059" lon="1.75509">
        <ele>182.19999694824</ele>
        <time>2012-02-28T16:23:41.000Z</time>
      </trkpt>
      <trkpt lat="48.73059" lon="1.75492">
        <ele>181.80000305176</ele>
        <time>2012-02-28T16:23:48.000Z</time>
      </trkpt>
      <trkpt lat="48.7306" lon="1.75478">
        <ele>181.19999694824</ele>
        <time>2012-02-28T16:23:54.000Z</time>
      </trkpt>
      <trkpt lat="48.73059" lon="1.75467">
        <ele>180.60000610352</ele>
        <time>2012-02-28T16:23:59.000Z</time>
      </trkpt>
      <trkpt lat="48.73059" lon="1.75464">
        <ele>180.39999389648</ele>
        <time>2012-02-28T16:24:00.000Z</time>
      </trkpt>
      <trkpt lat="48.73059" lon="1.75442">
        <ele>179.19999694824</ele>
        <time>2012-02-28T16:24:09.000Z</time>
      </trkpt>
      <trkpt lat="48.73058" lon="1.75433">
        <ele>178.80000305176</ele>
        <time>2012-02-28T16:24:13.000Z</time>
      </trkpt>
      <trkpt lat="48.73059" lon="1.75424">
        <ele>178.39999389648</ele>
        <time>2012-02-28T16:24:17.000Z</time>
      </trkpt>
      <trkpt lat="48.73058" lon="1.75408">
        <ele>177.39999389648</ele>
        <time>2012-02-28T16:24:25.000Z</time>
      </trkpt>
      <trkpt lat="48.73061" lon="1.75394">
        <ele>177</ele>
        <time>2012-02-28T16:24:31.000Z</time>
      </trkpt>
      <trkpt lat="48.7306" lon="1.75375">
        <ele>175.80000305176</ele>
        <time>2012-02-28T16:24:39.000Z</time>
      </trkpt>
      <trkpt lat="48.7306" lon="1.75358">
        <ele>174.80000305176</ele>
        <time>2012-02-28T16:24:46.000Z</time>
      </trkpt>
      <trkpt lat="48.73059" lon="1.75333">
        <ele>173.39999389648</ele>
        <time>2012-02-28T16:24:56.000Z</time>
      </trkpt>
      <trkpt lat="48.73059" lon="1.75321">
        <ele>172.60000610352</ele>
        <time>2012-02-28T16:25:01.000Z</time>
      </trkpt>
      <trkpt lat="48.7306" lon="1.75302">
        <ele>171.39999389648</ele>
        <time>2012-02-28T16:25:10.000Z</time>
      </trkpt>
      <trkpt lat="48.7306" lon="1.75285">
        <ele>170</ele>
        <time>2012-02-28T16:25:18.000Z</time>
      </trkpt>
      <trkpt lat="48.7306" lon="1.75264">
        <ele>168.60000610352</ele>
        <time>2012-02-28T16:25:27.000Z</time>
      </trkpt>
      <trkpt lat="48.7306" lon="1.75241">
        <ele>167</ele>
        <time>2012-02-28T16:25:37.000Z</time>
      </trkpt>
      <trkpt lat="48.73062" lon="1.75212">
        <ele>165.19999694824</ele>
        <time>2012-02-28T16:25:49.000Z</time>
      </trkpt>
      <trkpt lat="48.73067" lon="1.75194">
        <ele>164.60000610352</ele>
        <time>2012-02-28T16:25:57.000Z</time>
      </trkpt>
      <trkpt lat="48.7307" lon="1.75185">
        <ele>164.19999694824</ele>
        <time>2012-02-28T16:26:01.000Z</time>
      </trkpt>
      <trkpt lat="48.73069" lon="1.75168">
        <ele>162.80000305176</ele>
        <time>2012-02-28T16:26:09.000Z</time>
      </trkpt>
      <trkpt lat="48.73067" lon="1.7515">
        <ele>161.19999694824</ele>
        <time>2012-02-28T16:26:17.000Z</time>
      </trkpt>
      <trkpt lat="48.73065" lon="1.75135">
        <ele>159.80000305176</ele>
        <time>2012-02-28T16:26:24.000Z</time>
      </trkpt>
      <trkpt lat="48.73066" lon="1.75117">
        <ele>158.60000610352</ele>
        <time>2012-02-28T16:26:32.000Z</time>
      </trkpt>
      <trkpt lat="48.73065" lon="1.75105">
        <ele>157.60000610352</ele>
        <time>2012-02-28T16:26:38.000Z</time>
      </trkpt>
      <trkpt lat="48.73065" lon="1.75088">
        <ele>156.19999694824</ele>
        <time>2012-02-28T16:26:45.000Z</time>
      </trkpt>
      <trkpt lat="48.73064" lon="1.75069">
        <ele>155.19999694824</ele>
        <time>2012-02-28T16:26:53.000Z</time>
      </trkpt>
      <trkpt lat="48.73064" lon="1.75047">
        <ele>154.39999389648</ele>
        <time>2012-02-28T16:27:02.000Z</time>
      </trkpt>
      <trkpt lat="48.73063" lon="1.75034">
        <ele>153.80000305176</ele>
        <time>2012-02-28T16:27:08.000Z</time>
      </trkpt>
      <trkpt lat="48.73065" lon="1.75018">
        <ele>153.39999389648</ele>
        <time>2012-02-28T16:27:15.000Z</time>
      </trkpt>
      <trkpt lat="48.73065" lon="1.75012">
        <ele>153.19999694824</ele>
        <time>2012-02-28T16:27:18.000Z</time>
      </trkpt>
      <trkpt lat="48.73069" lon="1.74998">
        <ele>152.80000305176</ele>
        <time>2012-02-28T16:27:25.000Z</time>
      </trkpt>
      <trkpt lat="48.7307" lon="1.74979">
        <ele>152.39999389648</ele>
        <time>2012-02-28T16:27:32.000Z</time>
      </trkpt>
      <trkpt lat="48.73069" lon="1.7496">
        <ele>151.80000305176</ele>
        <time>2012-02-28T16:27:40.000Z</time>
      </trkpt>
      <trkpt lat="48.73065" lon="1.74949">
        <ele>151.19999694824</ele>
        <time>2012-02-28T16:27:46.000Z</time>
      </trkpt>
      <trkpt lat="48.73063" lon="1.74938">
        <ele>150.60000610352</ele>
        <time>2012-02-28T16:27:52.000Z</time>
      </trkpt>
      <trkpt lat="48.73062" lon="1.74925">
        <ele>150.19999694824</ele>
        <time>2012-02-28T16:27:58.000Z</time>
      </trkpt>
      <trkpt lat="48.73059" lon="1.74921">
        <ele>150</ele>
        <time>2012-02-28T16:28:01.000Z</time>
      </trkpt>
      <trkpt lat="48.73056" lon="1.74914">
        <ele>149.60000610352</ele>
        <time>2012-02-28T16:28:05.000Z</time>
      </trkpt>
      <trkpt lat="48.73055" lon="1.74911">
        <ele>149.39999389648</ele>
        <time>2012-02-28T16:28:07.000Z</time>
      </trkpt>
      <trkpt lat="48.73056" lon="1.74901">
        <ele>149.19999694824</ele>
        <time>2012-02-28T16:28:13.000Z</time>
      </trkpt>
      <trkpt lat="48.73056" lon="1.74894">
        <ele>149</ele>
        <time>2012-02-28T16:28:17.000Z</time>
      </trkpt>
      <trkpt lat="48.73056" lon="1.74885">
        <ele>148.80000305176</ele>
        <time>2012-02-28T16:28:21.000Z</time>
      </trkpt>
      <trkpt lat="48.73059" lon="1.74879">
        <ele>148.80000305176</ele>
        <time>2012-02-28T16:28:26.000Z</time>
      </trkpt>
      <trkpt lat="48.73061" lon="1.74859">
        <ele>148</ele>
        <time>2012-02-28T16:28:35.000Z</time>
      </trkpt>
      <trkpt lat="48.73059" lon="1.74846">
        <ele>147.60000610352</ele>
        <time>2012-02-28T16:28:41.000Z</time>
      </trkpt>
      <trkpt lat="48.73056" lon="1.74828">
        <ele>147.39999389648</ele>
        <time>2012-02-28T16:28:48.000Z</time>
      </trkpt>
      <trkpt lat="48.73052" lon="1.74804">
        <ele>147.39999389648</ele>
        <time>2012-02-28T16:28:58.000Z</time>
      </trkpt>
      <trkpt lat="48.7305" lon="1.74795">
        <ele>147.39999389648</ele>
        <time>2012-02-28T16:29:03.000Z</time>
      </trkpt>
      <trkpt lat="48.73047" lon="1.74783">
        <ele>147.39999389648</ele>
        <time>2012-02-28T16:29:09.000Z</time>
      </trkpt>
      <trkpt lat="48.73047" lon="1.74781">
        <ele>147.39999389648</ele>
        <time>2012-02-28T16:29:10.000Z</time>
      </trkpt>
      <trkpt lat="48.73044" lon="1.74766">
        <ele>147.39999389648</ele>
        <time>2012-02-28T16:29:17.000Z</time>
      </trkpt>
      <trkpt lat="48.73043" lon="1.74751">
        <ele>147.39999389648</ele>
        <time>2012-02-28T16:29:25.000Z</time>
      </trkpt>
      <trkpt lat="48.73042" lon="1.7474">
        <ele>147.39999389648</ele>
        <time>2012-02-28T16:29:30.000Z</time>
      </trkpt>
      <trkpt lat="48.7304" lon="1.74728">
        <ele>147.19999694824</ele>
        <time>2012-02-28T16:29:36.000Z</time>
      </trkpt>
      <trkpt lat="48.73038" lon="1.74714">
        <ele>147</ele>
        <time>2012-02-28T16:29:43.000Z</time>
      </trkpt>
      <trkpt lat="48.73035" lon="1.74699">
        <ele>146.80000305176</ele>
        <time>2012-02-28T16:29:51.000Z</time>
      </trkpt>
      <trkpt lat="48.7303" lon="1.74686">
        <ele>146.60000610352</ele>
        <time>2012-02-28T16:29:58.000Z</time>
      </trkpt>
      <trkpt lat="48.73026" lon="1.74676">
        <ele>146.60000610352</ele>
        <time>2012-02-28T16:30:03.000Z</time>
      </trkpt>
      <trkpt lat="48.73024" lon="1.74672">
        <ele>146.60000610352</ele>
        <time>2012-02-28T16:30:06.000Z</time>
      </trkpt>
      <trkpt lat="48.73017" lon="1.74659">
        <ele>146.39999389648</ele>
        <time>2012-02-28T16:30:13.000Z</time>
      </trkpt>
      <trkpt lat="48.73012" lon="1.74646">
        <ele>146</ele>
        <time>2012-02-28T16:30:19.000Z</time>
      </trkpt>
      <trkpt lat="48.73004" lon="1.74634">
        <ele>145.80000305176</ele>
        <time>2012-02-28T16:30:26.000Z</time>
      </trkpt>
      <trkpt lat="48.72998" lon="1.74623">
        <ele>145.39999389648</ele>
        <time>2012-02-28T16:30:33.000Z</time>
      </trkpt>
      <trkpt lat="48.72989" lon="1.74613">
        <ele>144.80000305176</ele>
        <time>2012-02-28T16:30:40.000Z</time>
      </trkpt>
      <trkpt lat="48.72979" lon="1.74602">
        <ele>144.19999694824</ele>
        <time>2012-02-28T16:30:49.000Z</time>
      </trkpt>
      <trkpt lat="48.72974" lon="1.74589">
        <ele>143.80000305176</ele>
        <time>2012-02-28T16:30:56.000Z</time>
      </trkpt>
      <trkpt lat="48.7297" lon="1.74574">
        <ele>143.60000610352</ele>
        <time>2012-02-28T16:31:03.000Z</time>
      </trkpt>
      <trkpt lat="48.72966" lon="1.74557">
        <ele>143.39999389648</ele>
        <time>2012-02-28T16:31:10.000Z</time>
      </trkpt>
      <trkpt lat="48.72963" lon="1.74544">
        <ele>143.19999694824</ele>
        <time>2012-02-28T16:31:16.000Z</time>
      </trkpt>
      <trkpt lat="48.72964" lon="1.74536">
        <ele>143.19999694824</ele>
        <time>2012-02-28T16:31:20.000Z</time>
      </trkpt>
      <trkpt lat="48.72974" lon="1.74525">
        <ele>143</ele>
        <time>2012-02-28T16:31:29.000Z</time>
      </trkpt>
      <trkpt lat="48.72982" lon="1.74515">
        <ele>142.60000610352</ele>
        <time>2012-02-28T16:31:36.000Z</time>
      </trkpt>
      <trkpt lat="48.72984" lon="1.74509">
        <ele>142.60000610352</ele>
        <time>2012-02-28T16:31:39.000Z</time>
      </trkpt>
      <trkpt lat="48.72991" lon="1.74498">
        <ele>142.19999694824</ele>
        <time>2012-02-28T16:31:47.000Z</time>
      </trkpt>
      <trkpt lat="48.72999" lon="1.74494">
        <ele>142</ele>
        <time>2012-02-28T16:31:53.000Z</time>
      </trkpt>
      <trkpt lat="48.73002" lon="1.74493">
        <ele>141.80000305176</ele>
        <time>2012-02-28T16:31:55.000Z</time>
      </trkpt>
      <trkpt lat="48.73013" lon="1.74486">
        <ele>141.60000610352</ele>
        <time>2012-02-28T16:32:03.000Z</time>
      </trkpt>
      <trkpt lat="48.73024" lon="1.74479">
        <ele>141.19999694824</ele>
        <time>2012-02-28T16:32:10.000Z</time>
      </trkpt>
      <trkpt lat="48.73027" lon="1.74477">
        <ele>141.19999694824</ele>
        <time>2012-02-28T16:32:12.000Z</time>
      </trkpt>
      <trkpt lat="48.73036" lon="1.74471">
        <ele>141</ele>
        <time>2012-02-28T16:32:19.000Z</time>
      </trkpt>
      <trkpt lat="48.73041" lon="1.74462">
        <ele>140.80000305176</ele>
        <time>2012-02-28T16:32:25.000Z</time>
      </trkpt>
      <trkpt lat="48.73042" lon="1.74459">
        <ele>140.80000305176</ele>
        <time>2012-02-28T16:32:26.000Z</time>
      </trkpt>
      <trkpt lat="48.7304" lon="1.7444">
        <ele>140.60000610352</ele>
        <time>2012-02-28T16:32:34.000Z</time>
      </trkpt>
      <trkpt lat="48.73036" lon="1.74425">
        <ele>140.60000610352</ele>
        <time>2012-02-28T16:32:41.000Z</time>
      </trkpt>
      <trkpt lat="48.73036" lon="1.74406">
        <ele>140.60000610352</ele>
        <time>2012-02-28T16:32:50.000Z</time>
      </trkpt>
      <trkpt lat="48.73035" lon="1.74391">
        <ele>140.80000305176</ele>
        <time>2012-02-28T16:32:57.000Z</time>
      </trkpt>
      <trkpt lat="48.73034" lon="1.74374">
        <ele>140.80000305176</ele>
        <time>2012-02-28T16:33:04.000Z</time>
      </trkpt>
      <trkpt lat="48.73034" lon="1.74361">
        <ele>141</ele>
        <time>2012-02-28T16:33:10.000Z</time>
      </trkpt>
      <trkpt lat="48.73032" lon="1.74345">
        <ele>141.19999694824</ele>
        <time>2012-02-28T16:33:17.000Z</time>
      </trkpt>
      <trkpt lat="48.73031" lon="1.74327">
        <ele>141.19999694824</ele>
        <time>2012-02-28T16:33:26.000Z</time>
      </trkpt>
      <trkpt lat="48.73031" lon="1.74324">
        <ele>141.19999694824</ele>
        <time>2012-02-28T16:33:28.000Z</time>
      </trkpt>
      <trkpt lat="48.7303" lon="1.7431">
        <ele>141.39999389648</ele>
        <time>2012-02-28T16:33:35.000Z</time>
      </trkpt>
      <trkpt lat="48.73028" lon="1.74298">
        <ele>141.39999389648</ele>
        <time>2012-02-28T16:33:40.000Z</time>
      </trkpt>
      <trkpt lat="48.73026" lon="1.74283">
        <ele>141.60000610352</ele>
        <time>2012-02-28T16:33:46.000Z</time>
      </trkpt>
      <trkpt lat="48.73024" lon="1.74269">
        <ele>141.60000610352</ele>
        <time>2012-02-28T16:33:52.000Z</time>
      </trkpt>
      <trkpt lat="48.73022" lon="1.74254">
        <ele>141.80000305176</ele>
        <time>2012-02-28T16:33:59.000Z</time>
      </trkpt>
      <trkpt lat="48.73019" lon="1.74238">
        <ele>141.60000610352</ele>
        <time>2012-02-28T16:34:06.000Z</time>
      </trkpt>
      <trkpt lat="48.73016" lon="1.74221">
        <ele>141.39999389648</ele>
        <time>2012-02-28T16:34:14.000Z</time>
      </trkpt>
      <trkpt lat="48.73015" lon="1.74214">
        <ele>141.39999389648</ele>
        <time>2012-02-28T16:34:17.000Z</time>
      </trkpt>
      <trkpt lat="48.73014" lon="1.74204">
        <ele>141.19999694824</ele>
        <time>2012-02-28T16:34:21.000Z</time>
      </trkpt>
      <trkpt lat="48.73012" lon="1.74187">
        <ele>141.19999694824</ele>
        <time>2012-02-28T16:34:28.000Z</time>
      </trkpt>
      <trkpt lat="48.73009" lon="1.7417">
        <ele>141</ele>
        <time>2012-02-28T16:34:36.000Z</time>
      </trkpt>
      <trkpt lat="48.73009" lon="1.74153">
        <ele>140.60000610352</ele>
        <time>2012-02-28T16:34:44.000Z</time>
      </trkpt>
      <trkpt lat="48.73008" lon="1.74139">
        <ele>140.19999694824</ele>
        <time>2012-02-28T16:34:50.000Z</time>
      </trkpt>
      <trkpt lat="48.73007" lon="1.74122">
        <ele>139.80000305176</ele>
        <time>2012-02-28T16:34:57.000Z</time>
      </trkpt>
      <trkpt lat="48.73005" lon="1.74103">
        <ele>139.39999389648</ele>
        <time>2012-02-28T16:35:05.000Z</time>
      </trkpt>
      <trkpt lat="48.73005" lon="1.74094">
        <ele>139.19999694824</ele>
        <time>2012-02-28T16:35:09.000Z</time>
      </trkpt>
      <trkpt lat="48.73003" lon="1.7408">
        <ele>139</ele>
        <time>2012-02-28T16:35:15.000Z</time>
      </trkpt>
      <trkpt lat="48.73001" lon="1.74066">
        <ele>138.80000305176</ele>
        <time>2012-02-28T16:35:21.000Z</time>
      </trkpt>
      <trkpt lat="48.73" lon="1.74051">
        <ele>138.60000610352</ele>
        <time>2012-02-28T16:35:27.000Z</time>
      </trkpt>
      <trkpt lat="48.73" lon="1.74035">
        <ele>138.39999389648</ele>
        <time>2012-02-28T16:35:34.000Z</time>
      </trkpt>
      <trkpt lat="48.72999" lon="1.7402">
        <ele>138.19999694824</ele>
        <time>2012-02-28T16:35:41.000Z</time>
      </trkpt>
      <trkpt lat="48.73" lon="1.74005">
        <ele>138</ele>
        <time>2012-02-28T16:35:48.000Z</time>
      </trkpt>
      <trkpt lat="48.72999" lon="1.73991">
        <ele>138</ele>
        <time>2012-02-28T16:35:55.000Z</time>
      </trkpt>
      <trkpt lat="48.72998" lon="1.73974">
        <ele>138</ele>
        <time>2012-02-28T16:36:02.000Z</time>
      </trkpt>
      <trkpt lat="48.72999" lon="1.73959">
        <ele>138</ele>
        <time>2012-02-28T16:36:08.000Z</time>
      </trkpt>
      <trkpt lat="48.72997" lon="1.73944">
        <ele>138</ele>
        <time>2012-02-28T16:36:14.000Z</time>
      </trkpt>
      <trkpt lat="48.72993" lon="1.73932">
        <ele>138</ele>
        <time>2012-02-28T16:36:20.000Z</time>
      </trkpt>
      <trkpt lat="48.72984" lon="1.73918">
        <ele>137.80000305176</ele>
        <time>2012-02-28T16:36:28.000Z</time>
      </trkpt>
      <trkpt lat="48.72975" lon="1.73908">
        <ele>137.39999389648</ele>
        <time>2012-02-28T16:36:36.000Z</time>
      </trkpt>
      <trkpt lat="48.72967" lon="1.73901">
        <ele>137.19999694824</ele>
        <time>2012-02-28T16:36:43.000Z</time>
      </trkpt>
      <trkpt lat="48.72958" lon="1.73893">
        <ele>137</ele>
        <time>2012-02-28T16:36:51.000Z</time>
      </trkpt>
      <trkpt lat="48.72948" lon="1.73883">
        <ele>136.60000610352</ele>
        <time>2012-02-28T16:36:59.000Z</time>
      </trkpt>
      <trkpt lat="48.72936" lon="1.73873">
        <ele>136.19999694824</ele>
        <time>2012-02-28T16:37:08.000Z</time>
      </trkpt>
      <trkpt lat="48.72927" lon="1.73863">
        <ele>135.80000305176</ele>
        <time>2012-02-28T16:37:15.000Z</time>
      </trkpt>
      <trkpt lat="48.72914" lon="1.73848">
        <ele>135.39999389648</ele>
        <time>2012-02-28T16:37:26.000Z</time>
      </trkpt>
      <trkpt lat="48.72905" lon="1.73839">
        <ele>135.19999694824</ele>
        <time>2012-02-28T16:37:33.000Z</time>
      </trkpt>
      <trkpt lat="48.72893" lon="1.73827">
        <ele>134.80000305176</ele>
        <time>2012-02-28T16:37:43.000Z</time>
      </trkpt>
      <trkpt lat="48.72882" lon="1.73815">
        <ele>134.60000610352</ele>
        <time>2012-02-28T16:37:52.000Z</time>
      </trkpt>
      <trkpt lat="48.72871" lon="1.73805">
        <ele>134.39999389648</ele>
        <time>2012-02-28T16:38:01.000Z</time>
      </trkpt>
      <trkpt lat="48.72861" lon="1.73796">
        <ele>134.19999694824</ele>
        <time>2012-02-28T16:38:10.000Z</time>
      </trkpt>
      <trkpt lat="48.7286" lon="1.73796">
        <ele>134.19999694824</ele>
        <time>2012-02-28T16:38:12.000Z</time>
      </trkpt>
      <trkpt lat="48.72856" lon="1.73791">
        <ele>134.19999694824</ele>
        <time>2012-02-28T16:38:19.000Z</time>
      </trkpt>
      <trkpt lat="48.72845" lon="1.73777">
        <ele>133.80000305176</ele>
        <time>2012-02-28T16:38:28.000Z</time>
      </trkpt>
      <trkpt lat="48.72837" lon="1.7377">
        <ele>133.60000610352</ele>
        <time>2012-02-28T16:38:34.000Z</time>
      </trkpt>
      <trkpt lat="48.72831" lon="1.73763">
        <ele>133.19999694824</ele>
        <time>2012-02-28T16:38:39.000Z</time>
      </trkpt>
      <trkpt lat="48.72825" lon="1.73758">
        <ele>133</ele>
        <time>2012-02-28T16:38:44.000Z</time>
      </trkpt>
      <trkpt lat="48.72821" lon="1.73754">
        <ele>133</ele>
        <time>2012-02-28T16:38:47.000Z</time>
      </trkpt>
      <trkpt lat="48.72815" lon="1.73747">
        <ele>132.60000610352</ele>
        <time>2012-02-28T16:38:52.000Z</time>
      </trkpt>
      <trkpt lat="48.72806" lon="1.73739">
        <ele>132.39999389648</ele>
        <time>2012-02-28T16:38:59.000Z</time>
      </trkpt>
      <trkpt lat="48.72805" lon="1.73737">
        <ele>132.39999389648</ele>
        <time>2012-02-28T16:39:00.000Z</time>
      </trkpt>
      <trkpt lat="48.72792" lon="1.73723">
        <ele>131.80000305176</ele>
        <time>2012-02-28T16:39:10.000Z</time>
      </trkpt>
      <trkpt lat="48.72784" lon="1.73713">
        <ele>131.60000610352</ele>
        <time>2012-02-28T16:39:17.000Z</time>
      </trkpt>
      <trkpt lat="48.72776" lon="1.73706">
        <ele>131.39999389648</ele>
        <time>2012-02-28T16:39:23.000Z</time>
      </trkpt>
      <trkpt lat="48.72763" lon="1.73691">
        <ele>131.19999694824</ele>
        <time>2012-02-28T16:39:33.000Z</time>
      </trkpt>
      <trkpt lat="48.72757" lon="1.73686">
        <ele>131.19999694824</ele>
        <time>2012-02-28T16:39:39.000Z</time>
      </trkpt>
      <trkpt lat="48.72748" lon="1.73681">
        <ele>131.19999694824</ele>
        <time>2012-02-28T16:39:46.000Z</time>
      </trkpt>
      <trkpt lat="48.72739" lon="1.73672">
        <ele>131</ele>
        <time>2012-02-28T16:39:54.000Z</time>
      </trkpt>
      <trkpt lat="48.72728" lon="1.73661">
        <ele>130.60000610352</ele>
        <time>2012-02-28T16:40:03.000Z</time>
      </trkpt>
      <trkpt lat="48.72719" lon="1.73652">
        <ele>130.19999694824</ele>
        <time>2012-02-28T16:40:10.000Z</time>
      </trkpt>
      <trkpt lat="48.72717" lon="1.73649">
        <ele>130</ele>
        <time>2012-02-28T16:40:14.000Z</time>
      </trkpt>
      <trkpt lat="48.72713" lon="1.73644">
        <ele>129.80000305176</ele>
        <time>2012-02-28T16:40:19.000Z</time>
      </trkpt>
      <trkpt lat="48.72709" lon="1.73634">
        <ele>129.60000610352</ele>
        <time>2012-02-28T16:40:23.000Z</time>
      </trkpt>
      <trkpt lat="48.72702" lon="1.73626">
        <ele>129.19999694824</ele>
        <time>2012-02-28T16:40:29.000Z</time>
      </trkpt>
      <trkpt lat="48.72694" lon="1.73621">
        <ele>129</ele>
        <time>2012-02-28T16:40:35.000Z</time>
      </trkpt>
      <trkpt lat="48.72688" lon="1.73617">
        <ele>129</ele>
        <time>2012-02-28T16:40:40.000Z</time>
      </trkpt>
      <trkpt lat="48.72688" lon="1.73616">
        <ele>128.80000305176</ele>
        <time>2012-02-28T16:40:43.000Z</time>
      </trkpt>
      <trkpt lat="48.72683" lon="1.73612">
        <ele>128.80000305176</ele>
        <time>2012-02-28T16:40:48.000Z</time>
      </trkpt>
      <trkpt lat="48.72675" lon="1.73601">
        <ele>128.39999389648</ele>
        <time>2012-02-28T16:40:54.000Z</time>
      </trkpt>
      <trkpt lat="48.72667" lon="1.73593">
        <ele>128.19999694824</ele>
        <time>2012-02-28T16:41:00.000Z</time>
      </trkpt>
      <trkpt lat="48.72656" lon="1.73582">
        <ele>128</ele>
        <time>2012-02-28T16:41:09.000Z</time>
      </trkpt>
      <trkpt lat="48.72644" lon="1.73571">
        <ele>128</ele>
        <time>2012-02-28T16:41:18.000Z</time>
      </trkpt>
      <trkpt lat="48.72634" lon="1.73565">
        <ele>128</ele>
        <time>2012-02-28T16:41:25.000Z</time>
      </trkpt>
      <trkpt lat="48.72628" lon="1.73556">
        <ele>127.80000305176</ele>
        <time>2012-02-28T16:41:30.000Z</time>
      </trkpt>
      <trkpt lat="48.7262" lon="1.73548">
        <ele>127.80000305176</ele>
        <time>2012-02-28T16:41:36.000Z</time>
      </trkpt>
      <trkpt lat="48.72614" lon="1.7354">
        <ele>127.59999847412</ele>
        <time>2012-02-28T16:41:41.000Z</time>
      </trkpt>
      <trkpt lat="48.72606" lon="1.73532">
        <ele>127.59999847412</ele>
        <time>2012-02-28T16:41:48.000Z</time>
      </trkpt>
      <trkpt lat="48.72598" lon="1.73523">
        <ele>127.40000152588</ele>
        <time>2012-02-28T16:41:55.000Z</time>
      </trkpt>
      <trkpt lat="48.72592" lon="1.73518">
        <ele>127.19999694824</ele>
        <time>2012-02-28T16:42:00.000Z</time>
      </trkpt>
      <trkpt lat="48.72591" lon="1.73516">
        <ele>127.19999694824</ele>
        <time>2012-02-28T16:42:01.000Z</time>
      </trkpt>
      <trkpt lat="48.72582" lon="1.73505">
        <ele>127</ele>
        <time>2012-02-28T16:42:08.000Z</time>
      </trkpt>
      <trkpt lat="48.72578" lon="1.73502">
        <ele>127.19999694824</ele>
        <time>2012-02-28T16:42:12.000Z</time>
      </trkpt>
      <trkpt lat="48.72573" lon="1.73498">
        <ele>127.19999694824</ele>
        <time>2012-02-28T16:42:17.000Z</time>
      </trkpt>
      <trkpt lat="48.72565" lon="1.7349">
        <ele>127.59999847412</ele>
        <time>2012-02-28T16:42:23.000Z</time>
      </trkpt>
      <trkpt lat="48.72559" lon="1.73483">
        <ele>127.80000305176</ele>
        <time>2012-02-28T16:42:28.000Z</time>
      </trkpt>
      <trkpt lat="48.72554" lon="1.73476">
        <ele>128</ele>
        <time>2012-02-28T16:42:32.000Z</time>
      </trkpt>
      <trkpt lat="48.72547" lon="1.7347">
        <ele>128.19999694824</ele>
        <time>2012-02-28T16:42:38.000Z</time>
      </trkpt>
      <trkpt lat="48.72536" lon="1.7346">
        <ele>128.60000610352</ele>
        <time>2012-02-28T16:42:47.000Z</time>
      </trkpt>
      <trkpt lat="48.72524" lon="1.73457">
        <ele>128.80000305176</ele>
        <time>2012-02-28T16:42:55.000Z</time>
      </trkpt>
      <trkpt lat="48.7252" lon="1.73455">
        <ele>128.80000305176</ele>
        <time>2012-02-28T16:42:58.000Z</time>
      </trkpt>
      <trkpt lat="48.72513" lon="1.73453">
        <ele>128.80000305176</ele>
        <time>2012-02-28T16:43:03.000Z</time>
      </trkpt>
      <trkpt lat="48.72509" lon="1.73452">
        <ele>129</ele>
        <time>2012-02-28T16:43:06.000Z</time>
      </trkpt>
      <trkpt lat="48.72501" lon="1.7345">
        <ele>129</ele>
        <time>2012-02-28T16:43:12.000Z</time>
      </trkpt>
      <trkpt lat="48.72492" lon="1.73447">
        <ele>128.80000305176</ele>
        <time>2012-02-28T16:43:18.000Z</time>
      </trkpt>
      <trkpt lat="48.72486" lon="1.73446">
        <ele>128.39999389648</ele>
        <time>2012-02-28T16:43:23.000Z</time>
      </trkpt>
      <trkpt lat="48.72475" lon="1.73444">
        <ele>128.19999694824</ele>
        <time>2012-02-28T16:43:29.000Z</time>
      </trkpt>
      <trkpt lat="48.72474" lon="1.73444">
        <ele>128</ele>
        <time>2012-02-28T16:43:30.000Z</time>
      </trkpt>
      <trkpt lat="48.72458" lon="1.73442">
        <ele>127.40000152588</ele>
        <time>2012-02-28T16:43:39.000Z</time>
      </trkpt>
      <trkpt lat="48.72448" lon="1.73438">
        <ele>127.19999694824</ele>
        <time>2012-02-28T16:43:45.000Z</time>
      </trkpt>
      <trkpt lat="48.72435" lon="1.73436">
        <ele>126.59999847412</ele>
        <time>2012-02-28T16:43:53.000Z</time>
      </trkpt>
      <trkpt lat="48.72422" lon="1.73432">
        <ele>126.19999694824</ele>
        <time>2012-02-28T16:44:02.000Z</time>
      </trkpt>
      <trkpt lat="48.72412" lon="1.7343">
        <ele>126.19999694824</ele>
        <time>2012-02-28T16:44:08.000Z</time>
      </trkpt>
      <trkpt lat="48.72404" lon="1.73427">
        <ele>126.40000152588</ele>
        <time>2012-02-28T16:44:14.000Z</time>
      </trkpt>
      <trkpt lat="48.72394" lon="1.73427">
        <ele>126.59999847412</ele>
        <time>2012-02-28T16:44:21.000Z</time>
      </trkpt>
      <trkpt lat="48.72382" lon="1.73426">
        <ele>126.80000305176</ele>
        <time>2012-02-28T16:44:29.000Z</time>
      </trkpt>
      <trkpt lat="48.72373" lon="1.7342">
        <ele>127</ele>
        <time>2012-02-28T16:44:35.000Z</time>
      </trkpt>
      <trkpt lat="48.72362" lon="1.73418">
        <ele>127.40000152588</ele>
        <time>2012-02-28T16:44:42.000Z</time>
      </trkpt>
      <trkpt lat="48.72353" lon="1.73416">
        <ele>127.59999847412</ele>
        <time>2012-02-28T16:44:48.000Z</time>
      </trkpt>
      <trkpt lat="48.72346" lon="1.73415">
        <ele>127.59999847412</ele>
        <time>2012-02-28T16:44:51.000Z</time>
      </trkpt>
      <trkpt lat="48.72336" lon="1.73416">
        <ele>128</ele>
        <time>2012-02-28T16:44:57.000Z</time>
      </trkpt>
      <trkpt lat="48.72333" lon="1.73416">
        <ele>128</ele>
        <time>2012-02-28T16:45:00.000Z</time>
      </trkpt>
      <trkpt lat="48.72322" lon="1.73417">
        <ele>128</ele>
        <time>2012-02-28T16:45:07.000Z</time>
      </trkpt>
      <trkpt lat="48.7232" lon="1.73416">
        <ele>128</ele>
        <time>2012-02-28T16:45:08.000Z</time>
      </trkpt>
      <trkpt lat="48.72318" lon="1.7341">
        <ele>128</ele>
        <time>2012-02-28T16:45:12.000Z</time>
      </trkpt>
      <trkpt lat="48.7231" lon="1.73412">
        <ele>128</ele>
        <time>2012-02-28T16:45:18.000Z</time>
      </trkpt>
      <trkpt lat="48.72304" lon="1.73411">
        <ele>128</ele>
        <time>2012-02-28T16:45:22.000Z</time>
      </trkpt>
      <trkpt lat="48.72299" lon="1.73406">
        <ele>128</ele>
        <time>2012-02-28T16:45:26.000Z</time>
      </trkpt>
      <trkpt lat="48.72287" lon="1.73407">
        <ele>128</ele>
        <time>2012-02-28T16:45:33.000Z</time>
      </trkpt>
      <trkpt lat="48.72284" lon="1.7341">
        <ele>128</ele>
        <time>2012-02-28T16:45:36.000Z</time>
      </trkpt>
      <trkpt lat="48.72275" lon="1.73408">
        <ele>128</ele>
        <time>2012-02-28T16:45:42.000Z</time>
      </trkpt>
      <trkpt lat="48.72263" lon="1.73401">
        <ele>128</ele>
        <time>2012-02-28T16:45:50.000Z</time>
      </trkpt>
      <trkpt lat="48.72262" lon="1.73401">
        <ele>128</ele>
        <time>2012-02-28T16:45:51.000Z</time>
      </trkpt>
      <trkpt lat="48.72254" lon="1.73398">
        <ele>128</ele>
        <time>2012-02-28T16:45:57.000Z</time>
      </trkpt>
      <trkpt lat="48.72243" lon="1.73397">
        <ele>127.80000305176</ele>
        <time>2012-02-28T16:46:04.000Z</time>
      </trkpt>
      <trkpt lat="48.72237" lon="1.73398">
        <ele>127.80000305176</ele>
        <time>2012-02-28T16:46:09.000Z</time>
      </trkpt>
      <trkpt lat="48.72236" lon="1.73399">
        <ele>127.80000305176</ele>
        <time>2012-02-28T16:46:10.000Z</time>
      </trkpt>
      <trkpt lat="48.7223" lon="1.73401">
        <ele>127.59999847412</ele>
        <time>2012-02-28T16:46:14.000Z</time>
      </trkpt>
      <trkpt lat="48.72219" lon="1.73402">
        <ele>127.59999847412</ele>
        <time>2012-02-28T16:46:21.000Z</time>
      </trkpt>
      <trkpt lat="48.72211" lon="1.73404">
        <ele>127.40000152588</ele>
        <time>2012-02-28T16:46:27.000Z</time>
      </trkpt>
      <trkpt lat="48.72205" lon="1.734">
        <ele>127.19999694824</ele>
        <time>2012-02-28T16:46:32.000Z</time>
      </trkpt>
      <trkpt lat="48.72203" lon="1.73401">
        <ele>127.19999694824</ele>
        <time>2012-02-28T16:46:35.000Z</time>
      </trkpt>
      <trkpt lat="48.72191" lon="1.73403">
        <ele>127</ele>
        <time>2012-02-28T16:46:43.000Z</time>
      </trkpt>
      <trkpt lat="48.72187" lon="1.73402">
        <ele>127</ele>
        <time>2012-02-28T16:46:46.000Z</time>
      </trkpt>
      <trkpt lat="48.72184" lon="1.73404">
        <ele>127</ele>
        <time>2012-02-28T16:46:49.000Z</time>
      </trkpt>
      <trkpt lat="48.72174" lon="1.73406">
        <ele>126.80000305176</ele>
        <time>2012-02-28T16:46:56.000Z</time>
      </trkpt>
      <trkpt lat="48.72173" lon="1.73406">
        <ele>126.80000305176</ele>
        <time>2012-02-28T16:47:00.000Z</time>
      </trkpt>
      <trkpt lat="48.72157" lon="1.73408">
        <ele>127.19999694824</ele>
        <time>2012-02-28T16:47:27.000Z</time>
      </trkpt>
      <trkpt lat="48.72147" lon="1.7341">
        <ele>127.59999847412</ele>
        <time>2012-02-28T16:47:33.000Z</time>
      </trkpt>
      <trkpt lat="48.72135" lon="1.73408">
        <ele>128</ele>
        <time>2012-02-28T16:47:41.000Z</time>
      </trkpt>
      <trkpt lat="48.72127" lon="1.73407">
        <ele>128.19999694824</ele>
        <time>2012-02-28T16:47:47.000Z</time>
      </trkpt>
      <trkpt lat="48.72118" lon="1.73406">
        <ele>128.39999389648</ele>
        <time>2012-02-28T16:47:53.000Z</time>
      </trkpt>
      <trkpt lat="48.72107" lon="1.73412">
        <ele>129</ele>
        <time>2012-02-28T16:47:58.000Z</time>
      </trkpt>
      <trkpt lat="48.72092" lon="1.73418">
        <ele>129.60000610352</ele>
        <time>2012-02-28T16:48:03.000Z</time>
      </trkpt>
      <trkpt lat="48.72081" lon="1.73421">
        <ele>130</ele>
        <time>2012-02-28T16:48:10.000Z</time>
      </trkpt>
      <trkpt lat="48.72072" lon="1.73422">
        <ele>130</ele>
        <time>2012-02-28T16:48:17.000Z</time>
      </trkpt>
      <trkpt lat="48.72062" lon="1.73422">
        <ele>130</ele>
        <time>2012-02-28T16:48:24.000Z</time>
      </trkpt>
      <trkpt lat="48.72054" lon="1.73423">
        <ele>130</ele>
        <time>2012-02-28T16:48:29.000Z</time>
      </trkpt>
      <trkpt lat="48.72046" lon="1.73425">
        <ele>130</ele>
        <time>2012-02-28T16:48:35.000Z</time>
      </trkpt>
      <trkpt lat="48.72037" lon="1.73427">
        <ele>130</ele>
        <time>2012-02-28T16:48:41.000Z</time>
      </trkpt>
      <trkpt lat="48.7203" lon="1.73431">
        <ele>130.19999694824</ele>
        <time>2012-02-28T16:48:46.000Z</time>
      </trkpt>
      <trkpt lat="48.72016" lon="1.73433">
        <ele>130.19999694824</ele>
        <time>2012-02-28T16:48:54.000Z</time>
      </trkpt>
      <trkpt lat="48.72004" lon="1.73438">
        <ele>130.39999389648</ele>
        <time>2012-02-28T16:49:01.000Z</time>
      </trkpt>
      <trkpt lat="48.7199" lon="1.73441">
        <ele>130.60000610352</ele>
        <time>2012-02-28T16:49:10.000Z</time>
      </trkpt>
      <trkpt lat="48.71982" lon="1.73445">
        <ele>130.60000610352</ele>
        <time>2012-02-28T16:49:16.000Z</time>
      </trkpt>
      <trkpt lat="48.71969" lon="1.73448">
        <ele>130.80000305176</ele>
        <time>2012-02-28T16:49:24.000Z</time>
      </trkpt>
      <trkpt lat="48.71968" lon="1.73449">
        <ele>130.80000305176</ele>
        <time>2012-02-28T16:49:25.000Z</time>
      </trkpt>
      <trkpt lat="48.71954" lon="1.73451">
        <ele>130.80000305176</ele>
        <time>2012-02-28T16:49:33.000Z</time>
      </trkpt>
      <trkpt lat="48.71945" lon="1.73455">
        <ele>131</ele>
        <time>2012-02-28T16:49:40.000Z</time>
      </trkpt>
      <trkpt lat="48.71934" lon="1.73457">
        <ele>131</ele>
        <time>2012-02-28T16:49:47.000Z</time>
      </trkpt>
      <trkpt lat="48.71922" lon="1.73458">
        <ele>131</ele>
        <time>2012-02-28T16:49:55.000Z</time>
      </trkpt>
      <trkpt lat="48.71911" lon="1.73459">
        <ele>131.19999694824</ele>
        <time>2012-02-28T16:50:03.000Z</time>
      </trkpt>
      <trkpt lat="48.71902" lon="1.73463">
        <ele>131.39999389648</ele>
        <time>2012-02-28T16:50:09.000Z</time>
      </trkpt>
      <trkpt lat="48.7189" lon="1.73466">
        <ele>131.80000305176</ele>
        <time>2012-02-28T16:50:16.000Z</time>
      </trkpt>
      <trkpt lat="48.71874" lon="1.73467">
        <ele>132.19999694824</ele>
        <time>2012-02-28T16:50:27.000Z</time>
      </trkpt>
      <trkpt lat="48.71866" lon="1.73468">
        <ele>132.39999389648</ele>
        <time>2012-02-28T16:50:32.000Z</time>
      </trkpt>
      <trkpt lat="48.71855" lon="1.73471">
        <ele>132.80000305176</ele>
        <time>2012-02-28T16:50:39.000Z</time>
      </trkpt>
      <trkpt lat="48.71849" lon="1.73471">
        <ele>133</ele>
        <time>2012-02-28T16:50:43.000Z</time>
      </trkpt>
      <trkpt lat="48.71835" lon="1.73473">
        <ele>133.39999389648</ele>
        <time>2012-02-28T16:50:50.000Z</time>
      </trkpt>
      <trkpt lat="48.71826" lon="1.73475">
        <ele>133.80000305176</ele>
        <time>2012-02-28T16:50:56.000Z</time>
      </trkpt>
      <trkpt lat="48.71815" lon="1.73478">
        <ele>134.19999694824</ele>
        <time>2012-02-28T16:51:03.000Z</time>
      </trkpt>
      <trkpt lat="48.71795" lon="1.73482">
        <ele>135.19999694824</ele>
        <time>2012-02-28T16:51:16.000Z</time>
      </trkpt>
      <trkpt lat="48.71778" lon="1.73487">
        <ele>135.80000305176</ele>
        <time>2012-02-28T16:51:26.000Z</time>
      </trkpt>
      <trkpt lat="48.71775" lon="1.73489">
        <ele>136</ele>
        <time>2012-02-28T16:51:28.000Z</time>
      </trkpt>
      <trkpt lat="48.71767" lon="1.73493">
        <ele>136.39999389648</ele>
        <time>2012-02-28T16:51:33.000Z</time>
      </trkpt>
      <trkpt lat="48.71765" lon="1.73494">
        <ele>136.39999389648</ele>
        <time>2012-02-28T16:51:34.000Z</time>
      </trkpt>
      <trkpt lat="48.71758" lon="1.73496">
        <ele>136.60000610352</ele>
        <time>2012-02-28T16:51:38.000Z</time>
      </trkpt>
      <trkpt lat="48.71746" lon="1.73496">
        <ele>137.19999694824</ele>
        <time>2012-02-28T16:51:45.000Z</time>
      </trkpt>
      <trkpt lat="48.71736" lon="1.73502">
        <ele>137.60000610352</ele>
        <time>2012-02-28T16:51:51.000Z</time>
      </trkpt>
      <trkpt lat="48.71722" lon="1.73504">
        <ele>138.19999694824</ele>
        <time>2012-02-28T16:52:00.000Z</time>
      </trkpt>
      <trkpt lat="48.71717" lon="1.73506">
        <ele>138.39999389648</ele>
        <time>2012-02-28T16:52:04.000Z</time>
      </trkpt>
      <trkpt lat="48.71704" lon="1.73508">
        <ele>138.80000305176</ele>
        <time>2012-02-28T16:52:12.000Z</time>
      </trkpt>
      <trkpt lat="48.71691" lon="1.73508">
        <ele>139.19999694824</ele>
        <time>2012-02-28T16:52:21.000Z</time>
      </trkpt>
      <trkpt lat="48.71683" lon="1.7351">
        <ele>139.39999389648</ele>
        <time>2012-02-28T16:52:27.000Z</time>
      </trkpt>
      <trkpt lat="48.71673" lon="1.73514">
        <ele>139.80000305176</ele>
        <time>2012-02-28T16:52:33.000Z</time>
      </trkpt>
      <trkpt lat="48.71659" lon="1.73517">
        <ele>140.39999389648</ele>
        <time>2012-02-28T16:52:42.000Z</time>
      </trkpt>
      <trkpt lat="48.7165" lon="1.7352">
        <ele>140.80000305176</ele>
        <time>2012-02-28T16:52:49.000Z</time>
      </trkpt>
      <trkpt lat="48.7164" lon="1.73522">
        <ele>141.39999389648</ele>
        <time>2012-02-28T16:52:55.000Z</time>
      </trkpt>
      <trkpt lat="48.71626" lon="1.73528">
        <ele>142.19999694824</ele>
        <time>2012-02-28T16:53:03.000Z</time>
      </trkpt>
      <trkpt lat="48.71615" lon="1.73533">
        <ele>142.80000305176</ele>
        <time>2012-02-28T16:53:10.000Z</time>
      </trkpt>
      <trkpt lat="48.71604" lon="1.73536">
        <ele>143.39999389648</ele>
        <time>2012-02-28T16:53:18.000Z</time>
      </trkpt>
      <trkpt lat="48.71594" lon="1.73537">
        <ele>144</ele>
        <time>2012-02-28T16:53:25.000Z</time>
      </trkpt>
      <trkpt lat="48.71581" lon="1.73539">
        <ele>144.80000305176</ele>
        <time>2012-02-28T16:53:33.000Z</time>
      </trkpt>
      <trkpt lat="48.71574" lon="1.73541">
        <ele>145.60000610352</ele>
        <time>2012-02-28T16:53:38.000Z</time>
      </trkpt>
      <trkpt lat="48.7156" lon="1.73544">
        <ele>147</ele>
        <time>2012-02-28T16:53:47.000Z</time>
      </trkpt>
      <trkpt lat="48.71553" lon="1.73546">
        <ele>148</ele>
        <time>2012-02-28T16:53:52.000Z</time>
      </trkpt>
      <trkpt lat="48.71536" lon="1.7355">
        <ele>149.80000305176</ele>
        <time>2012-02-28T16:54:03.000Z</time>
      </trkpt>
      <trkpt lat="48.71531" lon="1.73552">
        <ele>150.39999389648</ele>
        <time>2012-02-28T16:54:06.000Z</time>
      </trkpt>
      <trkpt lat="48.71524" lon="1.73553">
        <ele>151.19999694824</ele>
        <time>2012-02-28T16:54:11.000Z</time>
      </trkpt>
      <trkpt lat="48.71519" lon="1.73555">
        <ele>151.80000305176</ele>
        <time>2012-02-28T16:54:14.000Z</time>
      </trkpt>
      <trkpt lat="48.71514" lon="1.73555">
        <ele>152.39999389648</ele>
        <time>2012-02-28T16:54:18.000Z</time>
      </trkpt>
      <trkpt lat="48.71502" lon="1.73558">
        <ele>153.80000305176</ele>
        <time>2012-02-28T16:54:26.000Z</time>
      </trkpt>
      <trkpt lat="48.71495" lon="1.7356">
        <ele>154.80000305176</ele>
        <time>2012-02-28T16:54:31.000Z</time>
      </trkpt>
      <trkpt lat="48.71484" lon="1.73563">
        <ele>156</ele>
        <time>2012-02-28T16:54:39.000Z</time>
      </trkpt>
      <trkpt lat="48.71472" lon="1.73565">
        <ele>157.19999694824</ele>
        <time>2012-02-28T16:54:47.000Z</time>
      </trkpt>
      <trkpt lat="48.71466" lon="1.73564">
        <ele>157.80000305176</ele>
        <time>2012-02-28T16:54:52.000Z</time>
      </trkpt>
      <trkpt lat="48.71462" lon="1.73566">
        <ele>158.19999694824</ele>
        <time>2012-02-28T16:54:56.000Z</time>
      </trkpt>
      <trkpt lat="48.7145" lon="1.73572">
        <ele>159.39999389648</ele>
        <time>2012-02-28T16:55:05.000Z</time>
      </trkpt>
      <trkpt lat="48.71447" lon="1.73575">
        <ele>159.60000610352</ele>
        <time>2012-02-28T16:55:08.000Z</time>
      </trkpt>
      <trkpt lat="48.71444" lon="1.73576">
        <ele>159.80000305176</ele>
        <time>2012-02-28T16:55:11.000Z</time>
      </trkpt>
      <trkpt lat="48.71434" lon="1.73577">
        <ele>160.60000610352</ele>
        <time>2012-02-28T16:55:17.000Z</time>
      </trkpt>
      <trkpt lat="48.71425" lon="1.73579">
        <ele>161.39999389648</ele>
        <time>2012-02-28T16:55:24.000Z</time>
      </trkpt>
      <trkpt lat="48.71416" lon="1.7358">
        <ele>162.19999694824</ele>
        <time>2012-02-28T16:55:30.000Z</time>
      </trkpt>
      <trkpt lat="48.71403" lon="1.73579">
        <ele>163.80000305176</ele>
        <time>2012-02-28T16:55:38.000Z</time>
      </trkpt>
      <trkpt lat="48.71394" lon="1.73578">
        <ele>164.80000305176</ele>
        <time>2012-02-28T16:55:45.000Z</time>
      </trkpt>
      <trkpt lat="48.71389" lon="1.73579">
        <ele>165.19999694824</ele>
        <time>2012-02-28T16:55:49.000Z</time>
      </trkpt>
      <trkpt lat="48.71381" lon="1.73574">
        <ele>166.39999389648</ele>
        <time>2012-02-28T16:55:56.000Z</time>
      </trkpt>
      <trkpt lat="48.71375" lon="1.73568">
        <ele>167.39999389648</ele>
        <time>2012-02-28T16:56:02.000Z</time>
      </trkpt>
      <trkpt lat="48.71368" lon="1.73564">
        <ele>168.39999389648</ele>
        <time>2012-02-28T16:56:07.000Z</time>
      </trkpt>
      <trkpt lat="48.71359" lon="1.73552">
        <ele>170.19999694824</ele>
        <time>2012-02-28T16:56:15.000Z</time>
      </trkpt>
      <trkpt lat="48.71349" lon="1.73542">
        <ele>172.19999694824</ele>
        <time>2012-02-28T16:56:23.000Z</time>
      </trkpt>
      <trkpt lat="48.71348" lon="1.7354">
        <ele>172.39999389648</ele>
        <time>2012-02-28T16:56:24.000Z</time>
      </trkpt>
      <trkpt lat="48.71341" lon="1.73532">
        <ele>173.80000305176</ele>
        <time>2012-02-28T16:56:31.000Z</time>
      </trkpt>
      <trkpt lat="48.71333" lon="1.73526">
        <ele>175.19999694824</ele>
        <time>2012-02-28T16:56:38.000Z</time>
      </trkpt>
      <trkpt lat="48.71324" lon="1.73534">
        <ele>175.60000610352</ele>
        <time>2012-02-28T16:56:44.000Z</time>
      </trkpt>
      <trkpt lat="48.71322" lon="1.73535">
        <ele>175.60000610352</ele>
        <time>2012-02-28T16:56:46.000Z</time>
      </trkpt>
      <trkpt lat="48.71312" lon="1.73541">
        <ele>176.39999389648</ele>
        <time>2012-02-28T16:56:54.000Z</time>
      </trkpt>
      <trkpt lat="48.71307" lon="1.73549">
        <ele>176.80000305176</ele>
        <time>2012-02-28T16:57:00.000Z</time>
      </trkpt>
      <trkpt lat="48.71302" lon="1.73562">
        <ele>177</ele>
        <time>2012-02-28T16:57:08.000Z</time>
      </trkpt>
      <trkpt lat="48.71298" lon="1.73576">
        <ele>177.19999694824</ele>
        <time>2012-02-28T16:57:15.000Z</time>
      </trkpt>
      <trkpt lat="48.71296" lon="1.7358">
        <ele>177.19999694824</ele>
        <time>2012-02-28T16:57:18.000Z</time>
      </trkpt>
      <trkpt lat="48.71294" lon="1.73588">
        <ele>177.60000610352</ele>
        <time>2012-02-28T16:57:23.000Z</time>
      </trkpt>
      <trkpt lat="48.71287" lon="1.73597">
        <ele>178.39999389648</ele>
        <time>2012-02-28T16:57:30.000Z</time>
      </trkpt>
      <trkpt lat="48.71279" lon="1.73607">
        <ele>179.39999389648</ele>
        <time>2012-02-28T16:57:37.000Z</time>
      </trkpt>
      <trkpt lat="48.71272" lon="1.73613">
        <ele>180.60000610352</ele>
        <time>2012-02-28T16:57:43.000Z</time>
      </trkpt>
      <trkpt lat="48.7126" lon="1.73618">
        <ele>182.39999389648</ele>
        <time>2012-02-28T16:57:51.000Z</time>
      </trkpt>
      <trkpt lat="48.71252" lon="1.73619">
        <ele>183.80000305176</ele>
        <time>2012-02-28T16:57:57.000Z</time>
      </trkpt>
      <trkpt lat="48.71238" lon="1.73617">
        <ele>183.80000305176</ele>
        <time>2012-02-28T16:58:06.000Z</time>
      </trkpt>
      <trkpt lat="48.71234" lon="1.73616">
        <ele>183.60000610352</ele>
        <time>2012-02-28T16:58:09.000Z</time>
      </trkpt>
      <trkpt lat="48.71224" lon="1.73614">
        <ele>183.19999694824</ele>
        <time>2012-02-28T16:58:16.000Z</time>
      </trkpt>
      <trkpt lat="48.71214" lon="1.73613">
        <ele>183</ele>
        <time>2012-02-28T16:58:22.000Z</time>
      </trkpt>
      <trkpt lat="48.71205" lon="1.73606">
        <ele>182.39999389648</ele>
        <time>2012-02-28T16:58:29.000Z</time>
      </trkpt>
      <trkpt lat="48.71196" lon="1.7361">
        <ele>182.19999694824</ele>
        <time>2012-02-28T16:58:36.000Z</time>
      </trkpt>
      <trkpt lat="48.71194" lon="1.73614">
        <ele>182.19999694824</ele>
        <time>2012-02-28T16:58:38.000Z</time>
      </trkpt>
      <trkpt lat="48.71185" lon="1.73624">
        <ele>182</ele>
        <time>2012-02-28T16:58:46.000Z</time>
      </trkpt>
      <trkpt lat="48.71178" lon="1.73633">
        <ele>182</ele>
        <time>2012-02-28T16:58:52.000Z</time>
      </trkpt>
      <trkpt lat="48.71167" lon="1.73645">
        <ele>182.19999694824</ele>
        <time>2012-02-28T16:59:00.000Z</time>
      </trkpt>
      <trkpt lat="48.71156" lon="1.73654">
        <ele>182</ele>
        <time>2012-02-28T16:59:08.000Z</time>
      </trkpt>
      <trkpt lat="48.71149" lon="1.73662">
        <ele>182</ele>
        <time>2012-02-28T16:59:14.000Z</time>
      </trkpt>
      <trkpt lat="48.71148" lon="1.73664">
        <ele>182</ele>
        <time>2012-02-28T16:59:15.000Z</time>
      </trkpt>
      <trkpt lat="48.7114" lon="1.73672">
        <ele>181.80000305176</ele>
        <time>2012-02-28T16:59:21.000Z</time>
      </trkpt>
      <trkpt lat="48.7113" lon="1.73682">
        <ele>181.60000610352</ele>
        <time>2012-02-28T16:59:29.000Z</time>
      </trkpt>
      <trkpt lat="48.71122" lon="1.73691">
        <ele>181.60000610352</ele>
        <time>2012-02-28T16:59:36.000Z</time>
      </trkpt>
      <trkpt lat="48.71113" lon="1.73701">
        <ele>181.60000610352</ele>
        <time>2012-02-28T16:59:44.000Z</time>
      </trkpt>
      <trkpt lat="48.71106" lon="1.73708">
        <ele>181.60000610352</ele>
        <time>2012-02-28T16:59:51.000Z</time>
      </trkpt>
      <trkpt lat="48.71099" lon="1.73716">
        <ele>181.80000305176</ele>
        <time>2012-02-28T16:59:57.000Z</time>
      </trkpt>
      <trkpt lat="48.7109" lon="1.73726">
        <ele>182</ele>
        <time>2012-02-28T17:00:04.000Z</time>
      </trkpt>
      <trkpt lat="48.71082" lon="1.73734">
        <ele>182.19999694824</ele>
        <time>2012-02-28T17:00:10.000Z</time>
      </trkpt>
      <trkpt lat="48.71073" lon="1.7374">
        <ele>182.19999694824</ele>
        <time>2012-02-28T17:00:16.000Z</time>
      </trkpt>
      <trkpt lat="48.71064" lon="1.73748">
        <ele>182.39999389648</ele>
        <time>2012-02-28T17:00:22.000Z</time>
      </trkpt>
      <trkpt lat="48.7106" lon="1.73751">
        <ele>182.39999389648</ele>
        <time>2012-02-28T17:00:25.000Z</time>
      </trkpt>
      <trkpt lat="48.71053" lon="1.7376">
        <ele>182.19999694824</ele>
        <time>2012-02-28T17:00:31.000Z</time>
      </trkpt>
      <trkpt lat="48.71051" lon="1.73761">
        <ele>182.19999694824</ele>
        <time>2012-02-28T17:00:32.000Z</time>
      </trkpt>
      <trkpt lat="48.71041" lon="1.73772">
        <ele>182.19999694824</ele>
        <time>2012-02-28T17:00:40.000Z</time>
      </trkpt>
      <trkpt lat="48.71034" lon="1.73782">
        <ele>182.19999694824</ele>
        <time>2012-02-28T17:00:46.000Z</time>
      </trkpt>
      <trkpt lat="48.71026" lon="1.73792">
        <ele>182.19999694824</ele>
        <time>2012-02-28T17:00:52.000Z</time>
      </trkpt>
      <trkpt lat="48.71018" lon="1.738">
        <ele>182.19999694824</ele>
        <time>2012-02-28T17:00:58.000Z</time>
      </trkpt>
      <trkpt lat="48.71011" lon="1.73806">
        <ele>182.39999389648</ele>
        <time>2012-02-28T17:01:04.000Z</time>
      </trkpt>
      <trkpt lat="48.71006" lon="1.73815">
        <ele>182.60000610352</ele>
        <time>2012-02-28T17:01:11.000Z</time>
      </trkpt>
      <trkpt lat="48.71002" lon="1.73825">
        <ele>182.80000305176</ele>
        <time>2012-02-28T17:01:17.000Z</time>
      </trkpt>
      <trkpt lat="48.70998" lon="1.73842">
        <ele>183.19999694824</ele>
        <time>2012-02-28T17:01:25.000Z</time>
      </trkpt>
      <trkpt lat="48.70994" lon="1.73862">
        <ele>183.39999389648</ele>
        <time>2012-02-28T17:01:35.000Z</time>
      </trkpt>
      <trkpt lat="48.70988" lon="1.73884">
        <ele>183.80000305176</ele>
        <time>2012-02-28T17:01:45.000Z</time>
      </trkpt>
      <trkpt lat="48.70983" lon="1.73901">
        <ele>184.19999694824</ele>
        <time>2012-02-28T17:01:53.000Z</time>
      </trkpt>
      <trkpt lat="48.70979" lon="1.73918">
        <ele>184.39999389648</ele>
        <time>2012-02-28T17:02:01.000Z</time>
      </trkpt>
      <trkpt lat="48.70974" lon="1.73939">
        <ele>183.80000305176</ele>
        <time>2012-02-28T17:02:11.000Z</time>
      </trkpt>
      <trkpt lat="48.7097" lon="1.73964">
        <ele>183.19999694824</ele>
        <time>2012-02-28T17:02:22.000Z</time>
      </trkpt>
      <trkpt lat="48.70966" lon="1.73985">
        <ele>182.80000305176</ele>
        <time>2012-02-28T17:02:32.000Z</time>
      </trkpt>
      <trkpt lat="48.70963" lon="1.74001">
        <ele>182.39999389648</ele>
        <time>2012-02-28T17:02:39.000Z</time>
      </trkpt>
      <trkpt lat="48.70959" lon="1.74015">
        <ele>182.39999389648</ele>
        <time>2012-02-28T17:02:45.000Z</time>
      </trkpt>
      <trkpt lat="48.70955" lon="1.74024">
        <ele>182.60000610352</ele>
        <time>2012-02-28T17:02:50.000Z</time>
      </trkpt>
      <trkpt lat="48.7095" lon="1.7404">
        <ele>182.60000610352</ele>
        <time>2012-02-28T17:02:57.000Z</time>
      </trkpt>
      <trkpt lat="48.70949" lon="1.74057">
        <ele>182.60000610352</ele>
        <time>2012-02-28T17:03:05.000Z</time>
      </trkpt>
      <trkpt lat="48.70949" lon="1.74059">
        <ele>182.60000610352</ele>
        <time>2012-02-28T17:03:09.000Z</time>
      </trkpt>
      <trkpt lat="48.70946" lon="1.74068">
        <ele>182.60000610352</ele>
        <time>2012-02-28T17:03:18.000Z</time>
      </trkpt>
      <trkpt lat="48.70945" lon="1.74075">
        <ele>182.60000610352</ele>
        <time>2012-02-28T17:03:20.000Z</time>
      </trkpt>
      <trkpt lat="48.70942" lon="1.74088">
        <ele>182.60000610352</ele>
        <time>2012-02-28T17:03:26.000Z</time>
      </trkpt>
      <trkpt lat="48.70939" lon="1.74098">
        <ele>182.60000610352</ele>
        <time>2012-02-28T17:03:32.000Z</time>
      </trkpt>
      <trkpt lat="48.70939" lon="1.74099">
        <ele>182.60000610352</ele>
        <time>2012-02-28T17:03:34.000Z</time>
      </trkpt>
      <trkpt lat="48.70938" lon="1.74103">
        <ele>182.60000610352</ele>
        <time>2012-02-28T17:03:40.000Z</time>
      </trkpt>
      <trkpt lat="48.70935" lon="1.7412">
        <ele>182.60000610352</ele>
        <time>2012-02-28T17:03:47.000Z</time>
      </trkpt>
      <trkpt lat="48.70933" lon="1.74134">
        <ele>182.60000610352</ele>
        <time>2012-02-28T17:03:53.000Z</time>
      </trkpt>
      <trkpt lat="48.70931" lon="1.74148">
        <ele>182.60000610352</ele>
        <time>2012-02-28T17:04:00.000Z</time>
      </trkpt>
      <trkpt lat="48.7093" lon="1.74151">
        <ele>182.60000610352</ele>
        <time>2012-02-28T17:04:02.000Z</time>
      </trkpt>
      <trkpt lat="48.70927" lon="1.74164">
        <ele>182.60000610352</ele>
        <time>2012-02-28T17:04:09.000Z</time>
      </trkpt>
      <trkpt lat="48.70925" lon="1.74175">
        <ele>182.39999389648</ele>
        <time>2012-02-28T17:04:14.000Z</time>
      </trkpt>
      <trkpt lat="48.70921" lon="1.74189">
        <ele>182.39999389648</ele>
        <time>2012-02-28T17:04:20.000Z</time>
      </trkpt>
      <trkpt lat="48.7092" lon="1.74195">
        <ele>182.19999694824</ele>
        <time>2012-02-28T17:04:23.000Z</time>
      </trkpt>
      <trkpt lat="48.70917" lon="1.74213">
        <ele>181.80000305176</ele>
        <time>2012-02-28T17:04:31.000Z</time>
      </trkpt>
      <trkpt lat="48.70917" lon="1.74215">
        <ele>181.80000305176</ele>
        <time>2012-02-28T17:04:32.000Z</time>
      </trkpt>
      <trkpt lat="48.70912" lon="1.74229">
        <ele>181.39999389648</ele>
        <time>2012-02-28T17:04:39.000Z</time>
      </trkpt>
      <trkpt lat="48.70907" lon="1.74246">
        <ele>181</ele>
        <time>2012-02-28T17:04:47.000Z</time>
      </trkpt>
      <trkpt lat="48.70899" lon="1.74264">
        <ele>180</ele>
        <time>2012-02-28T17:04:57.000Z</time>
      </trkpt>
      <trkpt lat="48.70893" lon="1.74276">
        <ele>179.39999389648</ele>
        <time>2012-02-28T17:05:04.000Z</time>
      </trkpt>
      <trkpt lat="48.70886" lon="1.74289">
        <ele>178.60000610352</ele>
        <time>2012-02-28T17:05:11.000Z</time>
      </trkpt>
      <trkpt lat="48.70876" lon="1.74307">
        <ele>177.80000305176</ele>
        <time>2012-02-28T17:05:20.000Z</time>
      </trkpt>
      <trkpt lat="48.70867" lon="1.74322">
        <ele>177.19999694824</ele>
        <time>2012-02-28T17:05:29.000Z</time>
      </trkpt>
      <trkpt lat="48.70862" lon="1.74334">
        <ele>176.60000610352</ele>
        <time>2012-02-28T17:05:34.000Z</time>
      </trkpt>
      <trkpt lat="48.70859" lon="1.74341">
        <ele>176.60000610352</ele>
        <time>2012-02-28T17:05:39.000Z</time>
      </trkpt>
      <trkpt lat="48.70859" lon="1.74344">
        <ele>176.60000610352</ele>
        <time>2012-02-28T17:05:44.000Z</time>
      </trkpt>
      <trkpt lat="48.70855" lon="1.74352">
        <ele>176.60000610352</ele>
        <time>2012-02-28T17:05:54.000Z</time>
      </trkpt>
      <trkpt lat="48.70854" lon="1.74355">
        <ele>176.39999389648</ele>
        <time>2012-02-28T17:05:58.000Z</time>
      </trkpt>
      <trkpt lat="48.70849" lon="1.74362">
        <ele>176.39999389648</ele>
        <time>2012-02-28T17:06:11.000Z</time>
      </trkpt>
      <trkpt lat="48.70845" lon="1.74369">
        <ele>176.39999389648</ele>
        <time>2012-02-28T17:06:14.000Z</time>
      </trkpt>
      <trkpt lat="48.70841" lon="1.74374">
        <ele>176.39999389648</ele>
        <time>2012-02-28T17:06:18.000Z</time>
      </trkpt>
      <trkpt lat="48.70836" lon="1.74379">
        <ele>176.39999389648</ele>
        <time>2012-02-28T17:06:23.000Z</time>
      </trkpt>
      <trkpt lat="48.70824" lon="1.74393">
        <ele>176.60000610352</ele>
        <time>2012-02-28T17:06:34.000Z</time>
      </trkpt>
      <trkpt lat="48.7081" lon="1.74405">
        <ele>176.80000305176</ele>
        <time>2012-02-28T17:06:45.000Z</time>
      </trkpt>
      <trkpt lat="48.70797" lon="1.74413">
        <ele>177</ele>
        <time>2012-02-28T17:06:55.000Z</time>
      </trkpt>
      <trkpt lat="48.70789" lon="1.74416">
        <ele>177</ele>
        <time>2012-02-28T17:07:02.000Z</time>
      </trkpt>
      <trkpt lat="48.70787" lon="1.74415">
        <ele>177.19999694824</ele>
        <time>2012-02-28T17:07:06.000Z</time>
      </trkpt>
      <trkpt lat="48.70781" lon="1.74423">
        <ele>177.19999694824</ele>
        <time>2012-02-28T17:07:22.000Z</time>
      </trkpt>
      <trkpt lat="48.70768" lon="1.74432">
        <ele>177.39999389648</ele>
        <time>2012-02-28T17:07:31.000Z</time>
      </trkpt>
      <trkpt lat="48.70755" lon="1.74442">
        <ele>177.60000610352</ele>
        <time>2012-02-28T17:07:41.000Z</time>
      </trkpt>
      <trkpt lat="48.70742" lon="1.74448">
        <ele>177.80000305176</ele>
        <time>2012-02-28T17:07:51.000Z</time>
      </trkpt>
      <trkpt lat="48.70733" lon="1.74458">
        <ele>178.19999694824</ele>
        <time>2012-02-28T17:08:00.000Z</time>
      </trkpt>
      <trkpt lat="48.70733" lon="1.7446">
        <ele>178.19999694824</ele>
        <time>2012-02-28T17:08:01.000Z</time>
      </trkpt>
      <trkpt lat="48.7073" lon="1.7447">
        <ele>178</ele>
        <time>2012-02-28T17:08:07.000Z</time>
      </trkpt>
      <trkpt lat="48.70734" lon="1.74477">
        <ele>177.80000305176</ele>
        <time>2012-02-28T17:08:12.000Z</time>
      </trkpt>
      <trkpt lat="48.70743" lon="1.74485">
        <ele>177.39999389648</ele>
        <time>2012-02-28T17:08:19.000Z</time>
      </trkpt>
      <trkpt lat="48.70752" lon="1.74497">
        <ele>177</ele>
        <time>2012-02-28T17:08:27.000Z</time>
      </trkpt>
      <trkpt lat="48.70759" lon="1.74505">
        <ele>176.80000305176</ele>
        <time>2012-02-28T17:08:33.000Z</time>
      </trkpt>
      <trkpt lat="48.70763" lon="1.74508">
        <ele>176.80000305176</ele>
        <time>2012-02-28T17:08:38.000Z</time>
      </trkpt>
      <trkpt lat="48.70767" lon="1.74513">
        <ele>176.80000305176</ele>
        <time>2012-02-28T17:08:43.000Z</time>
      </trkpt>
      <trkpt lat="48.70775" lon="1.74521">
        <ele>176.80000305176</ele>
        <time>2012-02-28T17:08:49.000Z</time>
      </trkpt>
      <trkpt lat="48.70776" lon="1.74522">
        <ele>176.60000610352</ele>
        <time>2012-02-28T17:08:53.000Z</time>
      </trkpt>
      <trkpt lat="48.70778" lon="1.74526">
        <ele>176.60000610352</ele>
        <time>2012-02-28T17:08:57.000Z</time>
      </trkpt>
      <trkpt lat="48.70783" lon="1.74532">
        <ele>176.60000610352</ele>
        <time>2012-02-28T17:09:00.000Z</time>
      </trkpt>
      <trkpt lat="48.70787" lon="1.74536">
        <ele>176.60000610352</ele>
        <time>2012-02-28T17:09:03.000Z</time>
      </trkpt>
      <trkpt lat="48.70801" lon="1.74554">
        <ele>176.39999389648</ele>
        <time>2012-02-28T17:09:16.000Z</time>
      </trkpt>
      <trkpt lat="48.70801" lon="1.74554">
        <ele>176.39999389648</ele>
        <time>2012-02-28T17:09:18.000Z</time>
      </trkpt>
      <trkpt lat="48.70805" lon="1.7456">
        <ele>176.39999389648</ele>
        <time>2012-02-28T17:09:27.000Z</time>
      </trkpt>
      <trkpt lat="48.70813" lon="1.74573">
        <ele>176.19999694824</ele>
        <time>2012-02-28T17:09:34.000Z</time>
      </trkpt>
      <trkpt lat="48.70821" lon="1.74585">
        <ele>176.19999694824</ele>
        <time>2012-02-28T17:09:42.000Z</time>
      </trkpt>
      <trkpt lat="48.70827" lon="1.74595">
        <ele>176</ele>
        <time>2012-02-28T17:09:48.000Z</time>
      </trkpt>
      <trkpt lat="48.70834" lon="1.74603">
        <ele>176</ele>
        <time>2012-02-28T17:09:54.000Z</time>
      </trkpt>
      <trkpt lat="48.70841" lon="1.74613">
        <ele>176</ele>
        <time>2012-02-28T17:10:01.000Z</time>
      </trkpt>
      <trkpt lat="48.70848" lon="1.74625">
        <ele>176</ele>
        <time>2012-02-28T17:10:08.000Z</time>
      </trkpt>
      <trkpt lat="48.70855" lon="1.74632">
        <ele>175.80000305176</ele>
        <time>2012-02-28T17:10:13.000Z</time>
      </trkpt>
      <trkpt lat="48.70861" lon="1.7464">
        <ele>175.80000305176</ele>
        <time>2012-02-28T17:10:18.000Z</time>
      </trkpt>
      <trkpt lat="48.7087" lon="1.74652">
        <ele>176</ele>
        <time>2012-02-28T17:10:25.000Z</time>
      </trkpt>
      <trkpt lat="48.70879" lon="1.74663">
        <ele>176</ele>
        <time>2012-02-28T17:10:33.000Z</time>
      </trkpt>
      <trkpt lat="48.70883" lon="1.74667">
        <ele>176</ele>
        <time>2012-02-28T17:10:36.000Z</time>
      </trkpt>
      <trkpt lat="48.70887" lon="1.74676">
        <ele>176.19999694824</ele>
        <time>2012-02-28T17:10:41.000Z</time>
      </trkpt>
      <trkpt lat="48.70892" lon="1.74683">
        <ele>176.39999389648</ele>
        <time>2012-02-28T17:10:46.000Z</time>
      </trkpt>
      <trkpt lat="48.70896" lon="1.74689">
        <ele>176.60000610352</ele>
        <time>2012-02-28T17:10:50.000Z</time>
      </trkpt>
      <trkpt lat="48.70902" lon="1.74696">
        <ele>176.80000305176</ele>
        <time>2012-02-28T17:10:55.000Z</time>
      </trkpt>
      <trkpt lat="48.70911" lon="1.74706">
        <ele>177</ele>
        <time>2012-02-28T17:11:02.000Z</time>
      </trkpt>
      <trkpt lat="48.70921" lon="1.74717">
        <ele>177.19999694824</ele>
        <time>2012-02-28T17:11:11.000Z</time>
      </trkpt>
      <trkpt lat="48.70925" lon="1.74725">
        <ele>177.39999389648</ele>
        <time>2012-02-28T17:11:16.000Z</time>
      </trkpt>
      <trkpt lat="48.70935" lon="1.74739">
        <ele>177.80000305176</ele>
        <time>2012-02-28T17:11:25.000Z</time>
      </trkpt>
      <trkpt lat="48.70943" lon="1.7475">
        <ele>178</ele>
        <time>2012-02-28T17:11:32.000Z</time>
      </trkpt>
      <trkpt lat="48.70948" lon="1.74754">
        <ele>178</ele>
        <time>2012-02-28T17:11:35.000Z</time>
      </trkpt>
      <trkpt lat="48.70951" lon="1.74758">
        <ele>178</ele>
        <time>2012-02-28T17:11:37.000Z</time>
      </trkpt>
      <trkpt lat="48.7096" lon="1.74769">
        <ele>178.19999694824</ele>
        <time>2012-02-28T17:11:45.000Z</time>
      </trkpt>
      <trkpt lat="48.70966" lon="1.74777">
        <ele>178.19999694824</ele>
        <time>2012-02-28T17:11:50.000Z</time>
      </trkpt>
      <trkpt lat="48.70972" lon="1.74782">
        <ele>178.19999694824</ele>
        <time>2012-02-28T17:11:55.000Z</time>
      </trkpt>
      <trkpt lat="48.70979" lon="1.74788">
        <ele>178.39999389648</ele>
        <time>2012-02-28T17:12:01.000Z</time>
      </trkpt>
      <trkpt lat="48.70985" lon="1.748">
        <ele>178.39999389648</ele>
        <time>2012-02-28T17:12:08.000Z</time>
      </trkpt>
      <trkpt lat="48.70994" lon="1.74814">
        <ele>178.80000305176</ele>
        <time>2012-02-28T17:12:17.000Z</time>
      </trkpt>
      <trkpt lat="48.71003" lon="1.74827">
        <ele>178.80000305176</ele>
        <time>2012-02-28T17:12:26.000Z</time>
      </trkpt>
      <trkpt lat="48.71009" lon="1.74843">
        <ele>178.39999389648</ele>
        <time>2012-02-28T17:12:34.000Z</time>
      </trkpt>
      <trkpt lat="48.71006" lon="1.7486">
        <ele>178.60000610352</ele>
        <time>2012-02-28T17:12:43.000Z</time>
      </trkpt>
      <trkpt lat="48.70997" lon="1.74869">
        <ele>179</ele>
        <time>2012-02-28T17:12:50.000Z</time>
      </trkpt>
      <trkpt lat="48.70992" lon="1.74877">
        <ele>178.80000305176</ele>
        <time>2012-02-28T17:12:55.000Z</time>
      </trkpt>
      <trkpt lat="48.70984" lon="1.74887">
        <ele>178.39999389648</ele>
        <time>2012-02-28T17:13:01.000Z</time>
      </trkpt>
      <trkpt lat="48.70976" lon="1.74895">
        <ele>178</ele>
        <time>2012-02-28T17:13:06.000Z</time>
      </trkpt>
      <trkpt lat="48.7097" lon="1.74906">
        <ele>177.80000305176</ele>
        <time>2012-02-28T17:13:13.000Z</time>
      </trkpt>
      <trkpt lat="48.70962" lon="1.74914">
        <ele>177.19999694824</ele>
        <time>2012-02-28T17:13:19.000Z</time>
      </trkpt>
      <trkpt lat="48.70957" lon="1.74921">
        <ele>176.80000305176</ele>
        <time>2012-02-28T17:13:24.000Z</time>
      </trkpt>
      <trkpt lat="48.70948" lon="1.74935">
        <ele>176.39999389648</ele>
        <time>2012-02-28T17:13:32.000Z</time>
      </trkpt>
      <trkpt lat="48.70941" lon="1.74944">
        <ele>176</ele>
        <time>2012-02-28T17:13:37.000Z</time>
      </trkpt>
      <trkpt lat="48.70935" lon="1.74957">
        <ele>175.80000305176</ele>
        <time>2012-02-28T17:13:44.000Z</time>
      </trkpt>
      <trkpt lat="48.70929" lon="1.74969">
        <ele>175.60000610352</ele>
        <time>2012-02-28T17:13:50.000Z</time>
      </trkpt>
      <trkpt lat="48.70925" lon="1.74976">
        <ele>175.39999389648</ele>
        <time>2012-02-28T17:13:55.000Z</time>
      </trkpt>
      <trkpt lat="48.70919" lon="1.74987">
        <ele>175</ele>
        <time>2012-02-28T17:14:02.000Z</time>
      </trkpt>
      <trkpt lat="48.70918" lon="1.74988">
        <ele>175</ele>
        <time>2012-02-28T17:14:04.000Z</time>
      </trkpt>
    </trkseg>
  </trk>
</gpx>